<?xml version="1.0" encoding="UTF-8" standalone="no" ?>
<gpx xmlns="http://www.topografix.com/GPX/1/1" xmlns:xsi="http://www.w3.org/2001/XMLSchema-instance" xsi:schemaLocation="http://www.topografix.com/GPX/1/1 http://www.topografix.com/GPX/1/1/gpx.xsd" version="1.1" creator="VisuGPX - https://www.visugpx.com">
  <metadata>
    <name>La 6000D - La 6D Lacs</name>
  </metadata>
  <trk>
    <name><![CDATA[La 6000D - La 6D Lacs]]></name>
    <trkseg>
      <trkpt lat="45.51253" lon="6.6982">
        <ele>1925</ele>
        <time>2019-07-18T13:09:33Z</time>
      </trkpt>
      <trkpt lat="45.51265" lon="6.69853">
        <ele>1927</ele>
        <time>2019-07-18T13:09:33Z</time>
      </trkpt>
      <trkpt lat="45.51281" lon="6.69897">
        <ele>1930</ele>
        <time>2019-07-18T13:09:33Z</time>
      </trkpt>
      <trkpt lat="45.51285" lon="6.6994">
        <ele>1935</ele>
        <time>2019-07-18T13:09:33Z</time>
      </trkpt>
      <trkpt lat="45.51275" lon="6.69957">
        <ele>1937.6</ele>
        <time>2019-07-18T13:09:33Z</time>
      </trkpt>
      <trkpt lat="45.51257" lon="6.69948">
        <ele>1935</ele>
        <time>2019-07-18T13:09:33Z</time>
      </trkpt>
      <trkpt lat="45.51244" lon="6.6992">
        <ele>1934</ele>
        <time>2019-07-18T13:09:33Z</time>
      </trkpt>
      <trkpt lat="45.5123" lon="6.69891">
        <ele>1933</ele>
        <time>2019-07-18T13:09:33Z</time>
      </trkpt>
      <trkpt lat="45.51218" lon="6.6986">
        <ele>1933</ele>
        <time>2019-07-18T13:09:33Z</time>
      </trkpt>
      <trkpt lat="45.51206" lon="6.69829">
        <ele>1932</ele>
        <time>2019-07-18T13:09:33Z</time>
      </trkpt>
      <trkpt lat="45.51191" lon="6.69797">
        <ele>1932</ele>
        <time>2019-07-18T13:09:33Z</time>
      </trkpt>
      <trkpt lat="45.51175" lon="6.69778">
        <ele>1932</ele>
        <time>2019-07-18T13:09:33Z</time>
      </trkpt>
      <trkpt lat="45.51164" lon="6.6977">
        <ele>1934.3</ele>
        <time>2019-07-18T13:09:33Z</time>
      </trkpt>
      <trkpt lat="45.51143" lon="6.69752">
        <ele>1937</ele>
        <time>2019-07-18T13:09:33Z</time>
      </trkpt>
      <trkpt lat="45.51124" lon="6.69731">
        <ele>1944</ele>
        <time>2019-07-18T13:09:33Z</time>
      </trkpt>
      <trkpt lat="45.51118" lon="6.69709">
        <ele>1948.5</ele>
        <time>2019-07-18T13:09:33Z</time>
      </trkpt>
      <trkpt lat="45.51118" lon="6.69689">
        <ele>1950</ele>
        <time>2019-07-18T13:09:33Z</time>
      </trkpt>
      <trkpt lat="45.51128" lon="6.69651">
        <ele>1953</ele>
        <time>2019-07-18T13:09:33Z</time>
      </trkpt>
      <trkpt lat="45.51132" lon="6.69639">
        <ele>1954.7</ele>
        <time>2019-07-18T13:09:33Z</time>
      </trkpt>
      <trkpt lat="45.51135" lon="6.69619">
        <ele>1955</ele>
        <time>2019-07-18T13:09:33Z</time>
      </trkpt>
      <trkpt lat="45.51145" lon="6.69596">
        <ele>1958</ele>
        <time>2019-07-18T13:09:33Z</time>
      </trkpt>
      <trkpt lat="45.51172" lon="6.69563">
        <ele>1961</ele>
        <time>2019-07-18T13:09:33Z</time>
      </trkpt>
      <trkpt lat="45.51193" lon="6.69525">
        <ele>1967</ele>
        <time>2019-07-18T13:09:33Z</time>
      </trkpt>
      <trkpt lat="45.5116" lon="6.69543">
        <ele>1972</ele>
        <time>2019-07-18T13:09:33Z</time>
      </trkpt>
      <trkpt lat="45.51143" lon="6.69548">
        <ele>1975.6</ele>
        <time>2019-07-18T13:09:33Z</time>
      </trkpt>
      <trkpt lat="45.51115" lon="6.69567">
        <ele>1979</ele>
        <time>2019-07-18T13:09:33Z</time>
      </trkpt>
      <trkpt lat="45.51141" lon="6.69531">
        <ele>1984</ele>
        <time>2019-07-18T13:09:33Z</time>
      </trkpt>
      <trkpt lat="45.51159" lon="6.69503">
        <ele>1983</ele>
        <time>2019-07-18T13:09:33Z</time>
      </trkpt>
      <trkpt lat="45.51184" lon="6.69477">
        <ele>1987</ele>
        <time>2019-07-18T13:09:33Z</time>
      </trkpt>
      <trkpt lat="45.51157" lon="6.69482">
        <ele>1992</ele>
        <time>2019-07-18T13:09:33Z</time>
      </trkpt>
      <trkpt lat="45.51128" lon="6.69511">
        <ele>1995</ele>
        <time>2019-07-18T13:09:33Z</time>
      </trkpt>
      <trkpt lat="45.51138" lon="6.69494">
        <ele>1997</ele>
        <time>2019-07-18T13:09:33Z</time>
      </trkpt>
      <trkpt lat="45.51145" lon="6.69463">
        <ele>1995</ele>
        <time>2019-07-18T13:09:33Z</time>
      </trkpt>
      <trkpt lat="45.51152" lon="6.69452">
        <ele>2001.9</ele>
        <time>2019-07-18T13:09:33Z</time>
      </trkpt>
      <trkpt lat="45.51169" lon="6.69447">
        <ele>1995</ele>
        <time>2019-07-18T13:09:33Z</time>
      </trkpt>
      <trkpt lat="45.51166" lon="6.69425">
        <ele>2001.2</ele>
        <time>2019-07-18T13:09:33Z</time>
      </trkpt>
      <trkpt lat="45.51165" lon="6.69409">
        <ele>1998</ele>
        <time>2019-07-18T13:09:33Z</time>
      </trkpt>
      <trkpt lat="45.51155" lon="6.69398">
        <ele>2007.6</ele>
        <time>2019-07-18T13:09:33Z</time>
      </trkpt>
      <trkpt lat="45.51196" lon="6.69385">
        <ele>2001</ele>
        <time>2019-07-18T13:09:33Z</time>
      </trkpt>
      <trkpt lat="45.51202" lon="6.69369">
        <ele>2005.6</ele>
        <time>2019-07-18T13:09:33Z</time>
      </trkpt>
      <trkpt lat="45.51209" lon="6.69354">
        <ele>2006</ele>
        <time>2019-07-18T13:09:33Z</time>
      </trkpt>
      <trkpt lat="45.51196" lon="6.69364">
        <ele>2007</ele>
        <time>2019-07-18T13:09:33Z</time>
      </trkpt>
      <trkpt lat="45.51183" lon="6.69376">
        <ele>2009.2</ele>
        <time>2019-07-18T13:09:33Z</time>
      </trkpt>
      <trkpt lat="45.51164" lon="6.6937">
        <ele>2015</ele>
        <time>2019-07-18T13:09:33Z</time>
      </trkpt>
      <trkpt lat="45.51138" lon="6.69347">
        <ele>2017</ele>
        <time>2019-07-18T13:09:33Z</time>
      </trkpt>
      <trkpt lat="45.51126" lon="6.69368">
        <ele>2027.6</ele>
        <time>2019-07-18T13:09:33Z</time>
      </trkpt>
      <trkpt lat="45.51124" lon="6.69401">
        <ele>2017</ele>
        <time>2019-07-18T13:09:33Z</time>
      </trkpt>
      <trkpt lat="45.51121" lon="6.69425">
        <ele>2018.3</ele>
        <time>2019-07-18T13:09:33Z</time>
      </trkpt>
      <trkpt lat="45.51101" lon="6.69467">
        <ele>2017</ele>
        <time>2019-07-18T13:09:33Z</time>
      </trkpt>
      <trkpt lat="45.51084" lon="6.69486">
        <ele>2018</ele>
        <time>2019-07-18T13:09:33Z</time>
      </trkpt>
      <trkpt lat="45.51094" lon="6.69451">
        <ele>2024</ele>
        <time>2019-07-18T13:09:33Z</time>
      </trkpt>
      <trkpt lat="45.51106" lon="6.69408">
        <ele>2026</ele>
        <time>2019-07-18T13:09:33Z</time>
      </trkpt>
      <trkpt lat="45.51067" lon="6.69443">
        <ele>2034</ele>
        <time>2019-07-18T13:09:33Z</time>
      </trkpt>
      <trkpt lat="45.51074" lon="6.69416">
        <ele>2038</ele>
        <time>2019-07-18T13:09:33Z</time>
      </trkpt>
      <trkpt lat="45.51084" lon="6.69397">
        <ele>2040.9</ele>
        <time>2019-07-18T13:09:33Z</time>
      </trkpt>
      <trkpt lat="45.51094" lon="6.69363">
        <ele>2039</ele>
        <time>2019-07-18T13:09:33Z</time>
      </trkpt>
      <trkpt lat="45.5111" lon="6.6934">
        <ele>2038</ele>
        <time>2019-07-18T13:09:33Z</time>
      </trkpt>
      <trkpt lat="45.51117" lon="6.69318">
        <ele>2044.4</ele>
        <time>2019-07-18T13:09:33Z</time>
      </trkpt>
      <trkpt lat="45.51133" lon="6.69329">
        <ele>2038</ele>
        <time>2019-07-18T13:09:33Z</time>
      </trkpt>
      <trkpt lat="45.51152" lon="6.69314">
        <ele>2039</ele>
        <time>2019-07-18T13:09:33Z</time>
      </trkpt>
      <trkpt lat="45.5114" lon="6.6931">
        <ele>2045.1</ele>
        <time>2019-07-18T13:09:33Z</time>
      </trkpt>
      <trkpt lat="45.51149" lon="6.69292">
        <ele>2048</ele>
        <time>2019-07-18T13:09:33Z</time>
      </trkpt>
      <trkpt lat="45.51143" lon="6.6927">
        <ele>2057.4</ele>
        <time>2019-07-18T13:09:33Z</time>
      </trkpt>
      <trkpt lat="45.51079" lon="6.69265">
        <ele>2064</ele>
        <time>2019-07-18T13:09:33Z</time>
      </trkpt>
      <trkpt lat="45.51055" lon="6.6922">
        <ele>2068</ele>
        <time>2019-07-18T13:09:33Z</time>
      </trkpt>
      <trkpt lat="45.51089" lon="6.6924">
        <ele>2073</ele>
        <time>2019-07-18T13:09:33Z</time>
      </trkpt>
      <trkpt lat="45.51112" lon="6.6924">
        <ele>2073</ele>
        <time>2019-07-18T13:09:33Z</time>
      </trkpt>
      <trkpt lat="45.51128" lon="6.69204">
        <ele>2073</ele>
        <time>2019-07-18T13:09:33Z</time>
      </trkpt>
      <trkpt lat="45.51149" lon="6.69173">
        <ele>2084</ele>
        <time>2019-07-18T13:09:33Z</time>
      </trkpt>
      <trkpt lat="45.51119" lon="6.69199">
        <ele>2084</ele>
        <time>2019-07-18T13:09:33Z</time>
      </trkpt>
      <trkpt lat="45.51127" lon="6.69166">
        <ele>2087</ele>
        <time>2019-07-18T13:09:33Z</time>
      </trkpt>
      <trkpt lat="45.51122" lon="6.69156">
        <ele>2096.6</ele>
        <time>2019-07-18T13:09:33Z</time>
      </trkpt>
      <trkpt lat="45.51108" lon="6.69169">
        <ele>2092</ele>
        <time>2019-07-18T13:09:33Z</time>
      </trkpt>
      <trkpt lat="45.51082" lon="6.69176">
        <ele>2098</ele>
        <time>2019-07-18T13:09:33Z</time>
      </trkpt>
      <trkpt lat="45.51097" lon="6.69143">
        <ele>2098</ele>
        <time>2019-07-18T13:09:33Z</time>
      </trkpt>
      <trkpt lat="45.51099" lon="6.69118">
        <ele>2108.7</ele>
        <time>2019-07-18T13:09:33Z</time>
      </trkpt>
      <trkpt lat="45.51123" lon="6.69103">
        <ele>2105</ele>
        <time>2019-07-18T13:09:33Z</time>
      </trkpt>
      <trkpt lat="45.51117" lon="6.69061">
        <ele>2109</ele>
        <time>2019-07-18T13:09:33Z</time>
      </trkpt>
      <trkpt lat="45.51125" lon="6.69054">
        <ele>2118.3</ele>
        <time>2019-07-18T13:09:33Z</time>
      </trkpt>
      <trkpt lat="45.51143" lon="6.69071">
        <ele>2114</ele>
        <time>2019-07-18T13:09:33Z</time>
      </trkpt>
      <trkpt lat="45.51167" lon="6.69058">
        <ele>2114</ele>
        <time>2019-07-18T13:09:33Z</time>
      </trkpt>
      <trkpt lat="45.51187" lon="6.69027">
        <ele>2118</ele>
        <time>2019-07-18T13:09:33Z</time>
      </trkpt>
      <trkpt lat="45.51165" lon="6.69038">
        <ele>2120</ele>
        <time>2019-07-18T13:09:33Z</time>
      </trkpt>
      <trkpt lat="45.51153" lon="6.6904">
        <ele>2121.3</ele>
        <time>2019-07-18T13:09:33Z</time>
      </trkpt>
      <trkpt lat="45.5115" lon="6.69027">
        <ele>2122</ele>
        <time>2019-07-18T13:09:33Z</time>
      </trkpt>
      <trkpt lat="45.51146" lon="6.69015">
        <ele>2125.5</ele>
        <time>2019-07-18T13:09:33Z</time>
      </trkpt>
      <trkpt lat="45.51151" lon="6.69003">
        <ele>2124</ele>
        <time>2019-07-18T13:09:33Z</time>
      </trkpt>
      <trkpt lat="45.51147" lon="6.68975">
        <ele>2127</ele>
        <time>2019-07-18T13:09:33Z</time>
      </trkpt>
      <trkpt lat="45.51155" lon="6.68946">
        <ele>2131</ele>
        <time>2019-07-18T13:09:33Z</time>
      </trkpt>
      <trkpt lat="45.51161" lon="6.68909">
        <ele>2132</ele>
        <time>2019-07-18T13:09:33Z</time>
      </trkpt>
      <trkpt lat="45.51168" lon="6.68865">
        <ele>2133</ele>
        <time>2019-07-18T13:09:33Z</time>
      </trkpt>
      <trkpt lat="45.51156" lon="6.68867">
        <ele>2137</ele>
        <time>2019-07-18T13:09:33Z</time>
      </trkpt>
      <trkpt lat="45.51142" lon="6.68883">
        <ele>2135</ele>
        <time>2019-07-18T13:09:33Z</time>
      </trkpt>
      <trkpt lat="45.51124" lon="6.68898">
        <ele>2138</ele>
        <time>2019-07-18T13:09:33Z</time>
      </trkpt>
      <trkpt lat="45.5111" lon="6.68913">
        <ele>2138.2</ele>
        <time>2019-07-18T13:09:33Z</time>
      </trkpt>
      <trkpt lat="45.51084" lon="6.6894">
        <ele>2138</ele>
        <time>2019-07-18T13:09:33Z</time>
      </trkpt>
      <trkpt lat="45.51076" lon="6.68962">
        <ele>2138</ele>
        <time>2019-07-18T13:09:33Z</time>
      </trkpt>
      <trkpt lat="45.51068" lon="6.68982">
        <ele>2138</ele>
        <time>2019-07-18T13:09:33Z</time>
      </trkpt>
      <trkpt lat="45.51055" lon="6.68994">
        <ele>2136.6</ele>
        <time>2019-07-18T13:09:33Z</time>
      </trkpt>
      <trkpt lat="45.51037" lon="6.69007">
        <ele>2138</ele>
        <time>2019-07-18T13:09:33Z</time>
      </trkpt>
      <trkpt lat="45.5101" lon="6.69023">
        <ele>2134</ele>
        <time>2019-07-18T13:09:33Z</time>
      </trkpt>
      <trkpt lat="45.50985" lon="6.69039">
        <ele>2130</ele>
        <time>2019-07-18T13:09:33Z</time>
      </trkpt>
      <trkpt lat="45.50963" lon="6.69053">
        <ele>2127</ele>
        <time>2019-07-18T13:09:33Z</time>
      </trkpt>
      <trkpt lat="45.50944" lon="6.69062">
        <ele>2126</ele>
        <time>2019-07-18T13:09:33Z</time>
      </trkpt>
      <trkpt lat="45.50933" lon="6.69066">
        <ele>2123.5</ele>
        <time>2019-07-18T13:09:33Z</time>
      </trkpt>
      <trkpt lat="45.5092" lon="6.69066">
        <ele>2125</ele>
        <time>2019-07-18T13:09:33Z</time>
      </trkpt>
      <trkpt lat="45.50898" lon="6.69049">
        <ele>2124</ele>
        <time>2019-07-18T13:09:33Z</time>
      </trkpt>
      <trkpt lat="45.50888" lon="6.69046">
        <ele>2122.6</ele>
        <time>2019-07-18T13:09:33Z</time>
      </trkpt>
      <trkpt lat="45.50872" lon="6.69053">
        <ele>2124</ele>
        <time>2019-07-18T13:09:33Z</time>
      </trkpt>
      <trkpt lat="45.50856" lon="6.69062">
        <ele>2123.1</ele>
        <time>2019-07-18T13:09:33Z</time>
      </trkpt>
      <trkpt lat="45.50844" lon="6.69067">
        <ele>2124</ele>
        <time>2019-07-18T13:09:33Z</time>
      </trkpt>
      <trkpt lat="45.50825" lon="6.69076">
        <ele>2124</ele>
        <time>2019-07-18T13:09:33Z</time>
      </trkpt>
      <trkpt lat="45.50809" lon="6.69078">
        <ele>2124.2</ele>
        <time>2019-07-18T13:09:33Z</time>
      </trkpt>
      <trkpt lat="45.50792" lon="6.69074">
        <ele>2124</ele>
        <time>2019-07-18T13:09:33Z</time>
      </trkpt>
      <trkpt lat="45.50772" lon="6.69075">
        <ele>2124</ele>
        <time>2019-07-18T13:09:33Z</time>
      </trkpt>
      <trkpt lat="45.50758" lon="6.69081">
        <ele>2122.3</ele>
        <time>2019-07-18T13:09:33Z</time>
      </trkpt>
      <trkpt lat="45.50746" lon="6.69088">
        <ele>2123</ele>
        <time>2019-07-18T13:09:33Z</time>
      </trkpt>
      <trkpt lat="45.50738" lon="6.69096">
        <ele>2119.5</ele>
        <time>2019-07-18T13:09:33Z</time>
      </trkpt>
      <trkpt lat="45.50727" lon="6.69108">
        <ele>2121</ele>
        <time>2019-07-18T13:09:33Z</time>
      </trkpt>
      <trkpt lat="45.50717" lon="6.69121">
        <ele>2118.5</ele>
        <time>2019-07-18T13:09:33Z</time>
      </trkpt>
      <trkpt lat="45.50706" lon="6.6913">
        <ele>2117</ele>
        <time>2019-07-18T13:09:33Z</time>
      </trkpt>
      <trkpt lat="45.50701" lon="6.69142">
        <ele>2119.4</ele>
        <time>2019-07-18T13:09:33Z</time>
      </trkpt>
      <trkpt lat="45.50693" lon="6.69166">
        <ele>2117</ele>
        <time>2019-07-18T13:09:33Z</time>
      </trkpt>
      <trkpt lat="45.50686" lon="6.69186">
        <ele>2120.6</ele>
        <time>2019-07-18T13:09:33Z</time>
      </trkpt>
      <trkpt lat="45.50675" lon="6.69206">
        <ele>2119</ele>
        <time>2019-07-18T13:09:33Z</time>
      </trkpt>
      <trkpt lat="45.50667" lon="6.6922">
        <ele>2121.8</ele>
        <time>2019-07-18T13:09:33Z</time>
      </trkpt>
      <trkpt lat="45.50654" lon="6.69225">
        <ele>2121</ele>
        <time>2019-07-18T13:09:33Z</time>
      </trkpt>
      <trkpt lat="45.50643" lon="6.69224">
        <ele>2123.6</ele>
        <time>2019-07-18T13:09:33Z</time>
      </trkpt>
      <trkpt lat="45.50632" lon="6.69221">
        <ele>2122</ele>
        <time>2019-07-18T13:09:33Z</time>
      </trkpt>
      <trkpt lat="45.50621" lon="6.69215">
        <ele>2125.6</ele>
        <time>2019-07-18T13:09:33Z</time>
      </trkpt>
      <trkpt lat="45.5061" lon="6.69209">
        <ele>2125</ele>
        <time>2019-07-18T13:09:33Z</time>
      </trkpt>
      <trkpt lat="45.5059" lon="6.69202">
        <ele>2128</ele>
        <time>2019-07-18T13:09:33Z</time>
      </trkpt>
      <trkpt lat="45.50579" lon="6.69197">
        <ele>2128.7</ele>
        <time>2019-07-18T13:09:33Z</time>
      </trkpt>
      <trkpt lat="45.5057" lon="6.69195">
        <ele>2129</ele>
        <time>2019-07-18T13:09:33Z</time>
      </trkpt>
      <trkpt lat="45.50559" lon="6.69198">
        <ele>2129</ele>
        <time>2019-07-18T13:09:33Z</time>
      </trkpt>
      <trkpt lat="45.50539" lon="6.69209">
        <ele>2130.4</ele>
        <time>2019-07-18T13:09:33Z</time>
      </trkpt>
      <trkpt lat="45.50527" lon="6.69213">
        <ele>2130</ele>
        <time>2019-07-18T13:09:33Z</time>
      </trkpt>
      <trkpt lat="45.50518" lon="6.69213">
        <ele>2130.1</ele>
        <time>2019-07-18T13:09:33Z</time>
      </trkpt>
      <trkpt lat="45.50503" lon="6.69215">
        <ele>2130</ele>
        <time>2019-07-18T13:09:33Z</time>
      </trkpt>
      <trkpt lat="45.50486" lon="6.69221">
        <ele>2130.7</ele>
        <time>2019-07-18T13:09:33Z</time>
      </trkpt>
      <trkpt lat="45.50473" lon="6.69227">
        <ele>2131</ele>
        <time>2019-07-18T13:09:33Z</time>
      </trkpt>
      <trkpt lat="45.50442" lon="6.69243">
        <ele>2132</ele>
        <time>2019-07-18T13:09:33Z</time>
      </trkpt>
      <trkpt lat="45.50426" lon="6.69239">
        <ele>2135.6</ele>
        <time>2019-07-18T13:09:33Z</time>
      </trkpt>
      <trkpt lat="45.50407" lon="6.6923">
        <ele>2134</ele>
        <time>2019-07-18T13:09:33Z</time>
      </trkpt>
      <trkpt lat="45.50395" lon="6.69223">
        <ele>2137.4</ele>
        <time>2019-07-18T13:09:33Z</time>
      </trkpt>
      <trkpt lat="45.50362" lon="6.69231">
        <ele>2137</ele>
        <time>2019-07-18T13:09:33Z</time>
      </trkpt>
      <trkpt lat="45.50348" lon="6.69235">
        <ele>2143.1</ele>
        <time>2019-07-18T13:09:33Z</time>
      </trkpt>
      <trkpt lat="45.5034" lon="6.69242">
        <ele>2142</ele>
        <time>2019-07-18T13:09:33Z</time>
      </trkpt>
      <trkpt lat="45.50347" lon="6.69278">
        <ele>2145</ele>
        <time>2019-07-18T13:09:33Z</time>
      </trkpt>
      <trkpt lat="45.50354" lon="6.69326">
        <ele>2144</ele>
        <time>2019-07-18T13:09:33Z</time>
      </trkpt>
      <trkpt lat="45.50349" lon="6.69354">
        <ele>2144</ele>
        <time>2019-07-18T13:09:33Z</time>
      </trkpt>
      <trkpt lat="45.50329" lon="6.69397">
        <ele>2144</ele>
        <time>2019-07-18T13:09:33Z</time>
      </trkpt>
      <trkpt lat="45.50317" lon="6.694">
        <ele>2145.9</ele>
        <time>2019-07-18T13:09:33Z</time>
      </trkpt>
      <trkpt lat="45.50306" lon="6.69406">
        <ele>2144</ele>
        <time>2019-07-18T13:09:33Z</time>
      </trkpt>
      <trkpt lat="45.50297" lon="6.69417">
        <ele>2145.2</ele>
        <time>2019-07-18T13:09:33Z</time>
      </trkpt>
      <trkpt lat="45.50293" lon="6.69433">
        <ele>2145</ele>
        <time>2019-07-18T13:09:33Z</time>
      </trkpt>
      <trkpt lat="45.50289" lon="6.69449">
        <ele>2145.4</ele>
        <time>2019-07-18T13:09:33Z</time>
      </trkpt>
      <trkpt lat="45.50278" lon="6.69455">
        <ele>2145</ele>
        <time>2019-07-18T13:09:33Z</time>
      </trkpt>
      <trkpt lat="45.50265" lon="6.69456">
        <ele>2147.1</ele>
        <time>2019-07-18T13:09:33Z</time>
      </trkpt>
      <trkpt lat="45.50254" lon="6.69461">
        <ele>2145</ele>
        <time>2019-07-18T13:09:33Z</time>
      </trkpt>
      <trkpt lat="45.50244" lon="6.69468">
        <ele>2147.4</ele>
        <time>2019-07-18T13:09:33Z</time>
      </trkpt>
      <trkpt lat="45.50234" lon="6.69474">
        <ele>2145</ele>
        <time>2019-07-18T13:09:33Z</time>
      </trkpt>
      <trkpt lat="45.50226" lon="6.69476">
        <ele>2147.1</ele>
        <time>2019-07-18T13:09:33Z</time>
      </trkpt>
      <trkpt lat="45.50215" lon="6.69479">
        <ele>2145</ele>
        <time>2019-07-18T13:09:33Z</time>
      </trkpt>
      <trkpt lat="45.50204" lon="6.69485">
        <ele>2147.1</ele>
        <time>2019-07-18T13:09:33Z</time>
      </trkpt>
      <trkpt lat="45.50194" lon="6.69491">
        <ele>2146</ele>
        <time>2019-07-18T13:09:33Z</time>
      </trkpt>
      <trkpt lat="45.50187" lon="6.69504">
        <ele>2145.6</ele>
        <time>2019-07-18T13:09:33Z</time>
      </trkpt>
      <trkpt lat="45.5018" lon="6.69518">
        <ele>2145</ele>
        <time>2019-07-18T13:09:33Z</time>
      </trkpt>
      <trkpt lat="45.50171" lon="6.69528">
        <ele>2146.2</ele>
        <time>2019-07-18T13:09:33Z</time>
      </trkpt>
      <trkpt lat="45.50158" lon="6.69534">
        <ele>2146</ele>
        <time>2019-07-18T13:09:33Z</time>
      </trkpt>
      <trkpt lat="45.50149" lon="6.69545">
        <ele>2147.5</ele>
        <time>2019-07-18T13:09:33Z</time>
      </trkpt>
      <trkpt lat="45.50141" lon="6.69555">
        <ele>2147</ele>
        <time>2019-07-18T13:09:33Z</time>
      </trkpt>
      <trkpt lat="45.50135" lon="6.69568">
        <ele>2147.6</ele>
        <time>2019-07-18T13:09:33Z</time>
      </trkpt>
      <trkpt lat="45.50129" lon="6.69581">
        <ele>2148</ele>
        <time>2019-07-18T13:09:33Z</time>
      </trkpt>
      <trkpt lat="45.50123" lon="6.69595">
        <ele>2148.5</ele>
        <time>2019-07-18T13:09:33Z</time>
      </trkpt>
      <trkpt lat="45.50118" lon="6.69609">
        <ele>2148</ele>
        <time>2019-07-18T13:09:33Z</time>
      </trkpt>
      <trkpt lat="45.50112" lon="6.69622">
        <ele>2149.6</ele>
        <time>2019-07-18T13:09:33Z</time>
      </trkpt>
      <trkpt lat="45.50108" lon="6.69635">
        <ele>2148</ele>
        <time>2019-07-18T13:09:33Z</time>
      </trkpt>
      <trkpt lat="45.50105" lon="6.69651">
        <ele>2150.5</ele>
        <time>2019-07-18T13:09:33Z</time>
      </trkpt>
      <trkpt lat="45.50104" lon="6.69666">
        <ele>2148</ele>
        <time>2019-07-18T13:09:33Z</time>
      </trkpt>
      <trkpt lat="45.50103" lon="6.69683">
        <ele>2149.9</ele>
        <time>2019-07-18T13:09:33Z</time>
      </trkpt>
      <trkpt lat="45.50102" lon="6.69698">
        <ele>2149</ele>
        <time>2019-07-18T13:09:33Z</time>
      </trkpt>
      <trkpt lat="45.50104" lon="6.69713">
        <ele>2152</ele>
        <time>2019-07-18T13:09:33Z</time>
      </trkpt>
      <trkpt lat="45.50106" lon="6.69728">
        <ele>2151</ele>
        <time>2019-07-18T13:09:33Z</time>
      </trkpt>
      <trkpt lat="45.50106" lon="6.69744">
        <ele>2153.5</ele>
        <time>2019-07-18T13:09:33Z</time>
      </trkpt>
      <trkpt lat="45.50102" lon="6.6976">
        <ele>2152</ele>
        <time>2019-07-18T13:09:33Z</time>
      </trkpt>
      <trkpt lat="45.50097" lon="6.69775">
        <ele>2154.8</ele>
        <time>2019-07-18T13:09:33Z</time>
      </trkpt>
      <trkpt lat="45.50093" lon="6.69789">
        <ele>2152</ele>
        <time>2019-07-18T13:09:33Z</time>
      </trkpt>
      <trkpt lat="45.50087" lon="6.69828">
        <ele>2156.4</ele>
        <time>2019-07-18T13:09:33Z</time>
      </trkpt>
      <trkpt lat="45.50096" lon="6.6993">
        <ele>2159</ele>
        <time>2019-07-18T13:09:33Z</time>
      </trkpt>
      <trkpt lat="45.50103" lon="6.69938">
        <ele>2161.5</ele>
        <time>2019-07-18T13:09:33Z</time>
      </trkpt>
      <trkpt lat="45.50116" lon="6.69954">
        <ele>2160</ele>
        <time>2019-07-18T13:09:33Z</time>
      </trkpt>
      <trkpt lat="45.50123" lon="6.69965">
        <ele>2162.5</ele>
        <time>2019-07-18T13:09:33Z</time>
      </trkpt>
      <trkpt lat="45.50129" lon="6.69979">
        <ele>2162</ele>
        <time>2019-07-18T13:09:33Z</time>
      </trkpt>
      <trkpt lat="45.50123" lon="6.69995">
        <ele>2163.8</ele>
        <time>2019-07-18T13:09:33Z</time>
      </trkpt>
      <trkpt lat="45.501" lon="6.70008">
        <ele>2166.6</ele>
        <time>2019-07-18T13:09:33Z</time>
      </trkpt>
      <trkpt lat="45.5007" lon="6.70017">
        <ele>2166</ele>
        <time>2019-07-18T13:09:33Z</time>
      </trkpt>
      <trkpt lat="45.50054" lon="6.70015">
        <ele>2170.9</ele>
        <time>2019-07-18T13:09:33Z</time>
      </trkpt>
      <trkpt lat="45.50036" lon="6.70017">
        <ele>2173.2</ele>
        <time>2019-07-18T13:09:33Z</time>
      </trkpt>
      <trkpt lat="45.50026" lon="6.70019">
        <ele>2172</ele>
        <time>2019-07-18T13:09:33Z</time>
      </trkpt>
      <trkpt lat="45.50015" lon="6.70021">
        <ele>2175.5</ele>
        <time>2019-07-18T13:09:33Z</time>
      </trkpt>
      <trkpt lat="45.50005" lon="6.70026">
        <ele>2174</ele>
        <time>2019-07-18T13:09:33Z</time>
      </trkpt>
      <trkpt lat="45.49995" lon="6.70032">
        <ele>2178.5</ele>
        <time>2019-07-18T13:09:33Z</time>
      </trkpt>
      <trkpt lat="45.49985" lon="6.70036">
        <ele>2177</ele>
        <time>2019-07-18T13:09:33Z</time>
      </trkpt>
      <trkpt lat="45.49975" lon="6.70039">
        <ele>2181.1</ele>
        <time>2019-07-18T13:09:33Z</time>
      </trkpt>
      <trkpt lat="45.49964" lon="6.70045">
        <ele>2180</ele>
        <time>2019-07-18T13:09:33Z</time>
      </trkpt>
      <trkpt lat="45.49954" lon="6.7005">
        <ele>2184</ele>
        <time>2019-07-18T13:09:33Z</time>
      </trkpt>
      <trkpt lat="45.49944" lon="6.70057">
        <ele>2183</ele>
        <time>2019-07-18T13:09:33Z</time>
      </trkpt>
      <trkpt lat="45.49935" lon="6.70066">
        <ele>2188.1</ele>
        <time>2019-07-18T13:09:33Z</time>
      </trkpt>
      <trkpt lat="45.49928" lon="6.70075">
        <ele>2186</ele>
        <time>2019-07-18T13:09:33Z</time>
      </trkpt>
      <trkpt lat="45.49921" lon="6.70084">
        <ele>2190.8</ele>
        <time>2019-07-18T13:09:33Z</time>
      </trkpt>
      <trkpt lat="45.49915" lon="6.70093">
        <ele>2191.9</ele>
        <time>2019-07-18T13:09:33Z</time>
      </trkpt>
      <trkpt lat="45.49909" lon="6.70103">
        <ele>2189</ele>
        <time>2019-07-18T13:09:33Z</time>
      </trkpt>
      <trkpt lat="45.49905" lon="6.70114">
        <ele>2195.2</ele>
        <time>2019-07-18T13:09:33Z</time>
      </trkpt>
      <trkpt lat="45.499" lon="6.70126">
        <ele>2196.6</ele>
        <time>2019-07-18T13:09:33Z</time>
      </trkpt>
      <trkpt lat="45.49894" lon="6.70138">
        <ele>2193</ele>
        <time>2019-07-18T13:09:33Z</time>
      </trkpt>
      <trkpt lat="45.49891" lon="6.70151">
        <ele>2199.1</ele>
        <time>2019-07-18T13:09:33Z</time>
      </trkpt>
      <trkpt lat="45.49886" lon="6.70164">
        <ele>2197</ele>
        <time>2019-07-18T13:09:33Z</time>
      </trkpt>
      <trkpt lat="45.49885" lon="6.70204">
        <ele>2206.1</ele>
        <time>2019-07-18T13:09:33Z</time>
      </trkpt>
      <trkpt lat="45.49883" lon="6.70226">
        <ele>2204</ele>
        <time>2019-07-18T13:09:33Z</time>
      </trkpt>
      <trkpt lat="45.4988" lon="6.70238">
        <ele>2213.3</ele>
        <time>2019-07-18T13:09:33Z</time>
      </trkpt>
      <trkpt lat="45.49878" lon="6.70251">
        <ele>2216.5</ele>
        <time>2019-07-18T13:09:33Z</time>
      </trkpt>
      <trkpt lat="45.49871" lon="6.70272">
        <ele>2218.7</ele>
        <time>2019-07-18T13:09:33Z</time>
      </trkpt>
      <trkpt lat="45.4987" lon="6.70317">
        <ele>2224.3</ele>
        <time>2019-07-18T13:09:33Z</time>
      </trkpt>
      <trkpt lat="45.49866" lon="6.70328">
        <ele>2221</ele>
        <time>2019-07-18T13:09:33Z</time>
      </trkpt>
      <trkpt lat="45.49861" lon="6.70371">
        <ele>2230</ele>
        <time>2019-07-18T13:09:33Z</time>
      </trkpt>
      <trkpt lat="45.49855" lon="6.70385">
        <ele>2228</ele>
        <time>2019-07-18T13:09:33Z</time>
      </trkpt>
      <trkpt lat="45.49747" lon="6.70479">
        <ele>2239.2</ele>
        <time>2019-07-18T13:09:33Z</time>
      </trkpt>
      <trkpt lat="45.4974" lon="6.70487">
        <ele>2239</ele>
        <time>2019-07-18T13:09:33Z</time>
      </trkpt>
      <trkpt lat="45.49718" lon="6.70506">
        <ele>2239</ele>
        <time>2019-07-18T13:09:33Z</time>
      </trkpt>
      <trkpt lat="45.49669" lon="6.70544">
        <ele>2247.4</ele>
        <time>2019-07-18T13:09:33Z</time>
      </trkpt>
      <trkpt lat="45.4966" lon="6.70549">
        <ele>2244</ele>
        <time>2019-07-18T13:09:33Z</time>
      </trkpt>
      <trkpt lat="45.49651" lon="6.70553">
        <ele>2249.2</ele>
        <time>2019-07-18T13:09:33Z</time>
      </trkpt>
      <trkpt lat="45.49635" lon="6.70558">
        <ele>2248</ele>
        <time>2019-07-18T13:09:33Z</time>
      </trkpt>
      <trkpt lat="45.49625" lon="6.7056">
        <ele>2250.4</ele>
        <time>2019-07-18T13:09:33Z</time>
      </trkpt>
      <trkpt lat="45.49615" lon="6.7056">
        <ele>2250</ele>
        <time>2019-07-18T13:09:33Z</time>
      </trkpt>
      <trkpt lat="45.49601" lon="6.70561">
        <ele>2252</ele>
        <time>2019-07-18T13:09:33Z</time>
      </trkpt>
      <trkpt lat="45.49553" lon="6.70614">
        <ele>2254.3</ele>
        <time>2019-07-18T13:09:33Z</time>
      </trkpt>
      <trkpt lat="45.49545" lon="6.70623">
        <ele>2253</ele>
        <time>2019-07-18T13:09:33Z</time>
      </trkpt>
      <trkpt lat="45.49535" lon="6.70631">
        <ele>2255.9</ele>
        <time>2019-07-18T13:09:33Z</time>
      </trkpt>
      <trkpt lat="45.49525" lon="6.70637">
        <ele>2255</ele>
        <time>2019-07-18T13:09:33Z</time>
      </trkpt>
      <trkpt lat="45.49516" lon="6.70643">
        <ele>2257.9</ele>
        <time>2019-07-18T13:09:33Z</time>
      </trkpt>
      <trkpt lat="45.49507" lon="6.70651">
        <ele>2256</ele>
        <time>2019-07-18T13:09:33Z</time>
      </trkpt>
      <trkpt lat="45.49494" lon="6.70664">
        <ele>2260.8</ele>
        <time>2019-07-18T13:09:33Z</time>
      </trkpt>
      <trkpt lat="45.49484" lon="6.70672">
        <ele>2258</ele>
        <time>2019-07-18T13:09:33Z</time>
      </trkpt>
      <trkpt lat="45.49476" lon="6.70678">
        <ele>2264.6</ele>
        <time>2019-07-18T13:09:33Z</time>
      </trkpt>
      <trkpt lat="45.49467" lon="6.70684">
        <ele>2262</ele>
        <time>2019-07-18T13:09:33Z</time>
      </trkpt>
      <trkpt lat="45.49459" lon="6.70691">
        <ele>2269.2</ele>
        <time>2019-07-18T13:09:33Z</time>
      </trkpt>
      <trkpt lat="45.49452" lon="6.70699">
        <ele>2270.6</ele>
        <time>2019-07-18T13:09:33Z</time>
      </trkpt>
      <trkpt lat="45.4943" lon="6.70719">
        <ele>2276.9</ele>
        <time>2019-07-18T13:09:33Z</time>
      </trkpt>
      <trkpt lat="45.4942" lon="6.70723">
        <ele>2273</ele>
        <time>2019-07-18T13:09:33Z</time>
      </trkpt>
      <trkpt lat="45.4941" lon="6.70727">
        <ele>2282.4</ele>
        <time>2019-07-18T13:09:33Z</time>
      </trkpt>
      <trkpt lat="45.494" lon="6.7073">
        <ele>2280</ele>
        <time>2019-07-18T13:09:33Z</time>
      </trkpt>
      <trkpt lat="45.49321" lon="6.70742">
        <ele>2302.7</ele>
        <time>2019-07-18T13:09:33Z</time>
      </trkpt>
      <trkpt lat="45.49298" lon="6.70745">
        <ele>2307.7</ele>
        <time>2019-07-18T13:09:33Z</time>
      </trkpt>
      <trkpt lat="45.49269" lon="6.70749">
        <ele>2312.5</ele>
        <time>2019-07-18T13:09:33Z</time>
      </trkpt>
      <trkpt lat="45.4922" lon="6.70831">
        <ele>2337.2</ele>
        <time>2019-07-18T13:09:33Z</time>
      </trkpt>
      <trkpt lat="45.49225" lon="6.70862">
        <ele>2347.3</ele>
        <time>2019-07-18T13:09:33Z</time>
      </trkpt>
      <trkpt lat="45.49235" lon="6.70921">
        <ele>2361.7</ele>
        <time>2019-07-18T13:09:33Z</time>
      </trkpt>
      <trkpt lat="45.49225" lon="6.7093">
        <ele>2361</ele>
        <time>2019-07-18T13:09:33Z</time>
      </trkpt>
      <trkpt lat="45.49216" lon="6.70935">
        <ele>2364.3</ele>
        <time>2019-07-18T13:09:33Z</time>
      </trkpt>
      <trkpt lat="45.49206" lon="6.70942">
        <ele>2364</ele>
        <time>2019-07-18T13:09:33Z</time>
      </trkpt>
      <trkpt lat="45.49187" lon="6.70972">
        <ele>2365.5</ele>
        <time>2019-07-18T13:09:33Z</time>
      </trkpt>
      <trkpt lat="45.49174" lon="6.70979">
        <ele>2362</ele>
        <time>2019-07-18T13:09:33Z</time>
      </trkpt>
      <trkpt lat="45.49162" lon="6.70984">
        <ele>2360.1</ele>
        <time>2019-07-18T13:09:33Z</time>
      </trkpt>
      <trkpt lat="45.4915" lon="6.70988">
        <ele>2361</ele>
        <time>2019-07-18T13:09:33Z</time>
      </trkpt>
      <trkpt lat="45.49142" lon="6.70992">
        <ele>2357.7</ele>
        <time>2019-07-18T13:09:33Z</time>
      </trkpt>
      <trkpt lat="45.49109" lon="6.71015">
        <ele>2354</ele>
        <time>2019-07-18T13:09:33Z</time>
      </trkpt>
      <trkpt lat="45.49101" lon="6.71027">
        <ele>2353.7</ele>
        <time>2019-07-18T13:09:33Z</time>
      </trkpt>
      <trkpt lat="45.49098" lon="6.71041">
        <ele>2354</ele>
        <time>2019-07-18T13:09:33Z</time>
      </trkpt>
      <trkpt lat="45.49098" lon="6.71055">
        <ele>2356.9</ele>
        <time>2019-07-18T13:09:33Z</time>
      </trkpt>
      <trkpt lat="45.49099" lon="6.71068">
        <ele>2355</ele>
        <time>2019-07-18T13:09:33Z</time>
      </trkpt>
      <trkpt lat="45.49099" lon="6.71082">
        <ele>2358.9</ele>
        <time>2019-07-18T13:09:33Z</time>
      </trkpt>
      <trkpt lat="45.49096" lon="6.71098">
        <ele>2356</ele>
        <time>2019-07-18T13:09:33Z</time>
      </trkpt>
      <trkpt lat="45.49091" lon="6.71111">
        <ele>2359.4</ele>
        <time>2019-07-18T13:09:33Z</time>
      </trkpt>
      <trkpt lat="45.49087" lon="6.71122">
        <ele>2357</ele>
        <time>2019-07-18T13:09:33Z</time>
      </trkpt>
      <trkpt lat="45.49084" lon="6.71147">
        <ele>2359.9</ele>
        <time>2019-07-18T13:09:33Z</time>
      </trkpt>
      <trkpt lat="45.49082" lon="6.71161">
        <ele>2359</ele>
        <time>2019-07-18T13:09:33Z</time>
      </trkpt>
      <trkpt lat="45.49082" lon="6.71173">
        <ele>2360.4</ele>
        <time>2019-07-18T13:09:33Z</time>
      </trkpt>
      <trkpt lat="45.49079" lon="6.71197">
        <ele>2359</ele>
        <time>2019-07-18T13:09:33Z</time>
      </trkpt>
      <trkpt lat="45.49081" lon="6.71222">
        <ele>2361.1</ele>
        <time>2019-07-18T13:09:33Z</time>
      </trkpt>
      <trkpt lat="45.49083" lon="6.71237">
        <ele>2360</ele>
        <time>2019-07-18T13:09:33Z</time>
      </trkpt>
      <trkpt lat="45.49086" lon="6.71251">
        <ele>2362.6</ele>
        <time>2019-07-18T13:09:33Z</time>
      </trkpt>
      <trkpt lat="45.49089" lon="6.71265">
        <ele>2361</ele>
        <time>2019-07-18T13:09:33Z</time>
      </trkpt>
      <trkpt lat="45.49091" lon="6.71279">
        <ele>2363.8</ele>
        <time>2019-07-18T13:09:33Z</time>
      </trkpt>
      <trkpt lat="45.4909" lon="6.71293">
        <ele>2363</ele>
        <time>2019-07-18T13:09:33Z</time>
      </trkpt>
      <trkpt lat="45.49091" lon="6.71305">
        <ele>2369</ele>
        <time>2019-07-18T13:09:33Z</time>
      </trkpt>
      <trkpt lat="45.4909" lon="6.71338">
        <ele>2375.3</ele>
        <time>2019-07-18T13:09:33Z</time>
      </trkpt>
      <trkpt lat="45.49097" lon="6.71472">
        <ele>2396.6</ele>
        <time>2019-07-18T13:09:33Z</time>
      </trkpt>
      <trkpt lat="45.49099" lon="6.71485">
        <ele>2400.4</ele>
        <time>2019-07-18T13:09:33Z</time>
      </trkpt>
      <trkpt lat="45.49118" lon="6.71524">
        <ele>2402</ele>
        <time>2019-07-18T13:09:33Z</time>
      </trkpt>
      <trkpt lat="45.49108" lon="6.71526">
        <ele>2413.1</ele>
        <time>2019-07-18T13:09:33Z</time>
      </trkpt>
      <trkpt lat="45.49093" lon="6.71517">
        <ele>2407</ele>
        <time>2019-07-18T13:09:33Z</time>
      </trkpt>
      <trkpt lat="45.49088" lon="6.7153">
        <ele>2419.3</ele>
        <time>2019-07-18T13:09:33Z</time>
      </trkpt>
      <trkpt lat="45.49095" lon="6.7154">
        <ele>2414</ele>
        <time>2019-07-18T13:09:33Z</time>
      </trkpt>
      <trkpt lat="45.49108" lon="6.71559">
        <ele>2421.1</ele>
        <time>2019-07-18T13:09:33Z</time>
      </trkpt>
      <trkpt lat="45.49116" lon="6.71566">
        <ele>2416</ele>
        <time>2019-07-18T13:09:33Z</time>
      </trkpt>
      <trkpt lat="45.49125" lon="6.71576">
        <ele>2420.8</ele>
        <time>2019-07-18T13:09:33Z</time>
      </trkpt>
      <trkpt lat="45.49132" lon="6.71587">
        <ele>2419</ele>
        <time>2019-07-18T13:09:33Z</time>
      </trkpt>
      <trkpt lat="45.49137" lon="6.716">
        <ele>2426</ele>
        <time>2019-07-18T13:09:33Z</time>
      </trkpt>
      <trkpt lat="45.49145" lon="6.71622">
        <ele>2423</ele>
        <time>2019-07-18T13:09:33Z</time>
      </trkpt>
      <trkpt lat="45.49152" lon="6.71633">
        <ele>2431.6</ele>
        <time>2019-07-18T13:09:33Z</time>
      </trkpt>
      <trkpt lat="45.49159" lon="6.71641">
        <ele>2433.1</ele>
        <time>2019-07-18T13:09:33Z</time>
      </trkpt>
      <trkpt lat="45.49165" lon="6.71652">
        <ele>2426</ele>
        <time>2019-07-18T13:09:33Z</time>
      </trkpt>
      <trkpt lat="45.49173" lon="6.71664">
        <ele>2436.6</ele>
        <time>2019-07-18T13:09:33Z</time>
      </trkpt>
      <trkpt lat="45.49179" lon="6.71676">
        <ele>2433</ele>
        <time>2019-07-18T13:09:33Z</time>
      </trkpt>
      <trkpt lat="45.49183" lon="6.71691">
        <ele>2436.4</ele>
        <time>2019-07-18T13:09:33Z</time>
      </trkpt>
      <trkpt lat="45.49185" lon="6.71704">
        <ele>2433</ele>
        <time>2019-07-18T13:09:33Z</time>
      </trkpt>
      <trkpt lat="45.49188" lon="6.71732">
        <ele>2433</ele>
        <time>2019-07-18T13:09:33Z</time>
      </trkpt>
      <trkpt lat="45.49187" lon="6.71747">
        <ele>2434.7</ele>
        <time>2019-07-18T13:09:33Z</time>
      </trkpt>
      <trkpt lat="45.49186" lon="6.71762">
        <ele>2432</ele>
        <time>2019-07-18T13:09:33Z</time>
      </trkpt>
      <trkpt lat="45.49184" lon="6.71777">
        <ele>2433.7</ele>
        <time>2019-07-18T13:09:33Z</time>
      </trkpt>
      <trkpt lat="45.49183" lon="6.71792">
        <ele>2432</ele>
        <time>2019-07-18T13:09:33Z</time>
      </trkpt>
      <trkpt lat="45.49189" lon="6.71804">
        <ele>2435.2</ele>
        <time>2019-07-18T13:09:33Z</time>
      </trkpt>
      <trkpt lat="45.49197" lon="6.71815">
        <ele>2432</ele>
        <time>2019-07-18T13:09:33Z</time>
      </trkpt>
      <trkpt lat="45.49195" lon="6.71838">
        <ele>2433.4</ele>
        <time>2019-07-18T13:09:33Z</time>
      </trkpt>
      <trkpt lat="45.4919" lon="6.71848">
        <ele>2433</ele>
        <time>2019-07-18T13:09:33Z</time>
      </trkpt>
      <trkpt lat="45.4919" lon="6.71862">
        <ele>2435.3</ele>
        <time>2019-07-18T13:09:33Z</time>
      </trkpt>
      <trkpt lat="45.49189" lon="6.71875">
        <ele>2436.8</ele>
        <time>2019-07-18T13:09:33Z</time>
      </trkpt>
      <trkpt lat="45.4919" lon="6.71888">
        <ele>2434</ele>
        <time>2019-07-18T13:09:33Z</time>
      </trkpt>
      <trkpt lat="45.49194" lon="6.71901">
        <ele>2439.8</ele>
        <time>2019-07-18T13:09:33Z</time>
      </trkpt>
      <trkpt lat="45.49199" lon="6.71914">
        <ele>2439</ele>
        <time>2019-07-18T13:09:33Z</time>
      </trkpt>
      <trkpt lat="45.49204" lon="6.71926">
        <ele>2443.5</ele>
        <time>2019-07-18T13:09:33Z</time>
      </trkpt>
      <trkpt lat="45.49212" lon="6.71936">
        <ele>2442</ele>
        <time>2019-07-18T13:09:33Z</time>
      </trkpt>
      <trkpt lat="45.49219" lon="6.71949">
        <ele>2445.1</ele>
        <time>2019-07-18T13:09:33Z</time>
      </trkpt>
      <trkpt lat="45.49224" lon="6.71961">
        <ele>2444</ele>
        <time>2019-07-18T13:09:33Z</time>
      </trkpt>
      <trkpt lat="45.4923" lon="6.71973">
        <ele>2446.6</ele>
        <time>2019-07-18T13:09:33Z</time>
      </trkpt>
      <trkpt lat="45.49234" lon="6.71984">
        <ele>2446</ele>
        <time>2019-07-18T13:09:33Z</time>
      </trkpt>
      <trkpt lat="45.49237" lon="6.71997">
        <ele>2449</ele>
        <time>2019-07-18T13:09:33Z</time>
      </trkpt>
      <trkpt lat="45.49242" lon="6.72008">
        <ele>2449.8</ele>
        <time>2019-07-18T13:09:33Z</time>
      </trkpt>
      <trkpt lat="45.49246" lon="6.72019">
        <ele>2447</ele>
        <time>2019-07-18T13:09:33Z</time>
      </trkpt>
      <trkpt lat="45.49247" lon="6.72075">
        <ele>2454.1</ele>
        <time>2019-07-18T13:09:33Z</time>
      </trkpt>
      <trkpt lat="45.49245" lon="6.72088">
        <ele>2453</ele>
        <time>2019-07-18T13:09:33Z</time>
      </trkpt>
      <trkpt lat="45.49241" lon="6.721">
        <ele>2457.1</ele>
        <time>2019-07-18T13:09:33Z</time>
      </trkpt>
      <trkpt lat="45.49235" lon="6.72123">
        <ele>2456</ele>
        <time>2019-07-18T13:09:33Z</time>
      </trkpt>
      <trkpt lat="45.49232" lon="6.72146">
        <ele>2463</ele>
        <time>2019-07-18T13:09:33Z</time>
      </trkpt>
      <trkpt lat="45.4923" lon="6.7216">
        <ele>2460</ele>
        <time>2019-07-18T13:09:33Z</time>
      </trkpt>
      <trkpt lat="45.49228" lon="6.72173">
        <ele>2466.8</ele>
        <time>2019-07-18T13:09:33Z</time>
      </trkpt>
      <trkpt lat="45.49221" lon="6.72209">
        <ele>2470.7</ele>
        <time>2019-07-18T13:09:33Z</time>
      </trkpt>
      <trkpt lat="45.49216" lon="6.72234">
        <ele>2469</ele>
        <time>2019-07-18T13:09:33Z</time>
      </trkpt>
      <trkpt lat="45.49213" lon="6.72247">
        <ele>2474.7</ele>
        <time>2019-07-18T13:09:33Z</time>
      </trkpt>
      <trkpt lat="45.49211" lon="6.72259">
        <ele>2476.3</ele>
        <time>2019-07-18T13:09:33Z</time>
      </trkpt>
      <trkpt lat="45.49208" lon="6.72274">
        <ele>2473</ele>
        <time>2019-07-18T13:09:33Z</time>
      </trkpt>
      <trkpt lat="45.49207" lon="6.72288">
        <ele>2479.8</ele>
        <time>2019-07-18T13:09:33Z</time>
      </trkpt>
      <trkpt lat="45.49194" lon="6.72306">
        <ele>2479</ele>
        <time>2019-07-18T13:09:33Z</time>
      </trkpt>
      <trkpt lat="45.49184" lon="6.72315">
        <ele>2482.6</ele>
        <time>2019-07-18T13:09:33Z</time>
      </trkpt>
      <trkpt lat="45.49179" lon="6.72326">
        <ele>2482</ele>
        <time>2019-07-18T13:09:33Z</time>
      </trkpt>
      <trkpt lat="45.49178" lon="6.72342">
        <ele>2484.8</ele>
        <time>2019-07-18T13:09:33Z</time>
      </trkpt>
      <trkpt lat="45.49178" lon="6.72358">
        <ele>2483</ele>
        <time>2019-07-18T13:09:33Z</time>
      </trkpt>
      <trkpt lat="45.49181" lon="6.72372">
        <ele>2486.6</ele>
        <time>2019-07-18T13:09:33Z</time>
      </trkpt>
      <trkpt lat="45.49183" lon="6.72385">
        <ele>2485</ele>
        <time>2019-07-18T13:09:33Z</time>
      </trkpt>
      <trkpt lat="45.49183" lon="6.724">
        <ele>2488.5</ele>
        <time>2019-07-18T13:09:33Z</time>
      </trkpt>
      <trkpt lat="45.49182" lon="6.72412">
        <ele>2489.2</ele>
        <time>2019-07-18T13:09:33Z</time>
      </trkpt>
      <trkpt lat="45.49179" lon="6.72424">
        <ele>2488</ele>
        <time>2019-07-18T13:09:33Z</time>
      </trkpt>
      <trkpt lat="45.49173" lon="6.72437">
        <ele>2490.7</ele>
        <time>2019-07-18T13:09:33Z</time>
      </trkpt>
      <trkpt lat="45.49168" lon="6.72449">
        <ele>2489</ele>
        <time>2019-07-18T13:09:33Z</time>
      </trkpt>
      <trkpt lat="45.4916" lon="6.7246">
        <ele>2491.5</ele>
        <time>2019-07-18T13:09:33Z</time>
      </trkpt>
      <trkpt lat="45.49154" lon="6.72469">
        <ele>2490</ele>
        <time>2019-07-18T13:09:33Z</time>
      </trkpt>
      <trkpt lat="45.49148" lon="6.72479">
        <ele>2492.3</ele>
        <time>2019-07-18T13:09:33Z</time>
      </trkpt>
      <trkpt lat="45.49142" lon="6.72489">
        <ele>2492.7</ele>
        <time>2019-07-18T13:09:33Z</time>
      </trkpt>
      <trkpt lat="45.49138" lon="6.725">
        <ele>2491</ele>
        <time>2019-07-18T13:09:33Z</time>
      </trkpt>
      <trkpt lat="45.49134" lon="6.72512">
        <ele>2492.9</ele>
        <time>2019-07-18T13:09:33Z</time>
      </trkpt>
      <trkpt lat="45.49133" lon="6.72526">
        <ele>2492</ele>
        <time>2019-07-18T13:09:33Z</time>
      </trkpt>
      <trkpt lat="45.49132" lon="6.7254">
        <ele>2494.5</ele>
        <time>2019-07-18T13:09:33Z</time>
      </trkpt>
      <trkpt lat="45.49131" lon="6.72553">
        <ele>2493</ele>
        <time>2019-07-18T13:09:33Z</time>
      </trkpt>
      <trkpt lat="45.49132" lon="6.72567">
        <ele>2496.5</ele>
        <time>2019-07-18T13:09:33Z</time>
      </trkpt>
      <trkpt lat="45.49134" lon="6.72582">
        <ele>2495</ele>
        <time>2019-07-18T13:09:33Z</time>
      </trkpt>
      <trkpt lat="45.49137" lon="6.72593">
        <ele>2498.6</ele>
        <time>2019-07-18T13:09:33Z</time>
      </trkpt>
      <trkpt lat="45.49142" lon="6.72606">
        <ele>2499.8</ele>
        <time>2019-07-18T13:09:33Z</time>
      </trkpt>
      <trkpt lat="45.49147" lon="6.72617">
        <ele>2498</ele>
        <time>2019-07-18T13:09:33Z</time>
      </trkpt>
      <trkpt lat="45.49157" lon="6.72635">
        <ele>2504.4</ele>
        <time>2019-07-18T13:09:33Z</time>
      </trkpt>
      <trkpt lat="45.49161" lon="6.72658">
        <ele>2509.1</ele>
        <time>2019-07-18T13:09:33Z</time>
      </trkpt>
      <trkpt lat="45.49162" lon="6.72714">
        <ele>2511</ele>
        <time>2019-07-18T13:09:33Z</time>
      </trkpt>
      <trkpt lat="45.49164" lon="6.72728">
        <ele>2521.2</ele>
        <time>2019-07-18T13:09:33Z</time>
      </trkpt>
      <trkpt lat="45.4917" lon="6.72774">
        <ele>2528</ele>
        <time>2019-07-18T13:09:33Z</time>
      </trkpt>
      <trkpt lat="45.49173" lon="6.72786">
        <ele>2523</ele>
        <time>2019-07-18T13:09:33Z</time>
      </trkpt>
      <trkpt lat="45.49171" lon="6.72833">
        <ele>2538.4</ele>
        <time>2019-07-18T13:09:33Z</time>
      </trkpt>
      <trkpt lat="45.49164" lon="6.72867">
        <ele>2545.1</ele>
        <time>2019-07-18T13:09:33Z</time>
      </trkpt>
      <trkpt lat="45.49158" lon="6.72876">
        <ele>2546.6</ele>
        <time>2019-07-18T13:09:33Z</time>
      </trkpt>
      <trkpt lat="45.49145" lon="6.72889">
        <ele>2548.5</ele>
        <time>2019-07-18T13:09:33Z</time>
      </trkpt>
      <trkpt lat="45.49141" lon="6.729">
        <ele>2549.4</ele>
        <time>2019-07-18T13:09:33Z</time>
      </trkpt>
      <trkpt lat="45.49139" lon="6.72912">
        <ele>2547</ele>
        <time>2019-07-18T13:09:33Z</time>
      </trkpt>
      <trkpt lat="45.49136" lon="6.72925">
        <ele>2552</ele>
        <time>2019-07-18T13:09:33Z</time>
      </trkpt>
      <trkpt lat="45.49128" lon="6.72959">
        <ele>2555.9</ele>
        <time>2019-07-18T13:09:33Z</time>
      </trkpt>
      <trkpt lat="45.49127" lon="6.72971">
        <ele>2557.1</ele>
        <time>2019-07-18T13:09:33Z</time>
      </trkpt>
      <trkpt lat="45.49129" lon="6.72995">
        <ele>2558.4</ele>
        <time>2019-07-18T13:09:33Z</time>
      </trkpt>
      <trkpt lat="45.49135" lon="6.73006">
        <ele>2559.7</ele>
        <time>2019-07-18T13:09:33Z</time>
      </trkpt>
      <trkpt lat="45.49187" lon="6.73137">
        <ele>2572</ele>
        <time>2019-07-18T13:09:33Z</time>
      </trkpt>
      <trkpt lat="45.49196" lon="6.73141">
        <ele>2574.6</ele>
        <time>2019-07-18T13:09:33Z</time>
      </trkpt>
      <trkpt lat="45.49225" lon="6.73158">
        <ele>2579.2</ele>
        <time>2019-07-18T13:09:33Z</time>
      </trkpt>
      <trkpt lat="45.49249" lon="6.73153">
        <ele>2581.4</ele>
        <time>2019-07-18T13:09:33Z</time>
      </trkpt>
      <trkpt lat="45.49266" lon="6.73155">
        <ele>2583.1</ele>
        <time>2019-07-18T13:09:33Z</time>
      </trkpt>
      <trkpt lat="45.49283" lon="6.73157">
        <ele>2581</ele>
        <time>2019-07-18T13:09:33Z</time>
      </trkpt>
      <trkpt lat="45.49298" lon="6.73158">
        <ele>2587.3</ele>
        <time>2019-07-18T13:09:33Z</time>
      </trkpt>
      <trkpt lat="45.49308" lon="6.73156">
        <ele>2585</ele>
        <time>2019-07-18T13:09:33Z</time>
      </trkpt>
      <trkpt lat="45.49317" lon="6.73153">
        <ele>2588.2</ele>
        <time>2019-07-18T13:09:33Z</time>
      </trkpt>
      <trkpt lat="45.49327" lon="6.73151">
        <ele>2588</ele>
        <time>2019-07-18T13:09:33Z</time>
      </trkpt>
      <trkpt lat="45.49336" lon="6.73151">
        <ele>2590.2</ele>
        <time>2019-07-18T13:09:33Z</time>
      </trkpt>
      <trkpt lat="45.4936" lon="6.73154">
        <ele>2593.3</ele>
        <time>2019-07-18T13:09:33Z</time>
      </trkpt>
      <trkpt lat="45.494" lon="6.73155">
        <ele>2595</ele>
        <time>2019-07-18T13:09:33Z</time>
      </trkpt>
      <trkpt lat="45.49429" lon="6.7317">
        <ele>2602.1</ele>
        <time>2019-07-18T13:09:33Z</time>
      </trkpt>
      <trkpt lat="45.49437" lon="6.73175">
        <ele>2603</ele>
        <time>2019-07-18T13:09:33Z</time>
      </trkpt>
      <trkpt lat="45.49445" lon="6.73182">
        <ele>2600</ele>
        <time>2019-07-18T13:09:33Z</time>
      </trkpt>
      <trkpt lat="45.49453" lon="6.73188">
        <ele>2606.1</ele>
        <time>2019-07-18T13:09:33Z</time>
      </trkpt>
      <trkpt lat="45.49489" lon="6.732">
        <ele>2608</ele>
        <time>2019-07-18T13:09:33Z</time>
      </trkpt>
      <trkpt lat="45.49505" lon="6.73204">
        <ele>2614.1</ele>
        <time>2019-07-18T13:09:33Z</time>
      </trkpt>
      <trkpt lat="45.4953" lon="6.73207">
        <ele>2616.6</ele>
        <time>2019-07-18T13:09:33Z</time>
      </trkpt>
      <trkpt lat="45.49511" lon="6.73278">
        <ele>2650.7</ele>
        <time>2019-07-18T13:09:33Z</time>
      </trkpt>
      <trkpt lat="45.49493" lon="6.73284">
        <ele>2649</ele>
        <time>2019-07-18T13:09:33Z</time>
      </trkpt>
      <trkpt lat="45.49483" lon="6.73287">
        <ele>2654.6</ele>
        <time>2019-07-18T13:09:33Z</time>
      </trkpt>
      <trkpt lat="45.49457" lon="6.73301">
        <ele>2657.8</ele>
        <time>2019-07-18T13:09:33Z</time>
      </trkpt>
      <trkpt lat="45.49443" lon="6.7331">
        <ele>2661</ele>
        <time>2019-07-18T13:09:33Z</time>
      </trkpt>
      <trkpt lat="45.49433" lon="6.73314">
        <ele>2661</ele>
        <time>2019-07-18T13:09:33Z</time>
      </trkpt>
      <trkpt lat="45.49422" lon="6.73316">
        <ele>2665.2</ele>
        <time>2019-07-18T13:09:33Z</time>
      </trkpt>
      <trkpt lat="45.49331" lon="6.7335">
        <ele>2678.7</ele>
        <time>2019-07-18T13:09:33Z</time>
      </trkpt>
      <trkpt lat="45.49322" lon="6.73356">
        <ele>2676</ele>
        <time>2019-07-18T13:09:33Z</time>
      </trkpt>
      <trkpt lat="45.49314" lon="6.7336">
        <ele>2681.6</ele>
        <time>2019-07-18T13:09:33Z</time>
      </trkpt>
      <trkpt lat="45.49304" lon="6.73366">
        <ele>2681</ele>
        <time>2019-07-18T13:09:33Z</time>
      </trkpt>
      <trkpt lat="45.49294" lon="6.73367">
        <ele>2683</ele>
        <time>2019-07-18T13:09:33Z</time>
      </trkpt>
      <trkpt lat="45.49284" lon="6.73372">
        <ele>2683</ele>
        <time>2019-07-18T13:09:33Z</time>
      </trkpt>
      <trkpt lat="45.49274" lon="6.73378">
        <ele>2685.3</ele>
        <time>2019-07-18T13:09:33Z</time>
      </trkpt>
      <trkpt lat="45.49265" lon="6.73384">
        <ele>2683</ele>
        <time>2019-07-18T13:09:33Z</time>
      </trkpt>
      <trkpt lat="45.49256" lon="6.73391">
        <ele>2688.5</ele>
        <time>2019-07-18T13:09:33Z</time>
      </trkpt>
      <trkpt lat="45.49247" lon="6.734">
        <ele>2683</ele>
        <time>2019-07-18T13:09:33Z</time>
      </trkpt>
      <trkpt lat="45.49233" lon="6.73416">
        <ele>2693.8</ele>
        <time>2019-07-18T13:09:33Z</time>
      </trkpt>
      <trkpt lat="45.49234" lon="6.73441">
        <ele>2694</ele>
        <time>2019-07-18T13:09:33Z</time>
      </trkpt>
      <trkpt lat="45.49243" lon="6.73464">
        <ele>2693</ele>
        <time>2019-07-18T13:09:33Z</time>
      </trkpt>
      <trkpt lat="45.49261" lon="6.73523">
        <ele>2694</ele>
        <time>2019-07-18T13:09:33Z</time>
      </trkpt>
      <trkpt lat="45.49247" lon="6.73522">
        <ele>2689</ele>
        <time>2019-07-18T13:09:33Z</time>
      </trkpt>
      <trkpt lat="45.49242" lon="6.73507">
        <ele>2692</ele>
        <time>2019-07-18T13:09:33Z</time>
      </trkpt>
      <trkpt lat="45.49236" lon="6.73495">
        <ele>2685.5</ele>
        <time>2019-07-18T13:09:33Z</time>
      </trkpt>
      <trkpt lat="45.49229" lon="6.7348">
        <ele>2687</ele>
        <time>2019-07-18T13:09:33Z</time>
      </trkpt>
      <trkpt lat="45.49213" lon="6.73446">
        <ele>2686</ele>
        <time>2019-07-18T13:09:33Z</time>
      </trkpt>
      <trkpt lat="45.49206" lon="6.73432">
        <ele>2682.9</ele>
        <time>2019-07-18T13:09:33Z</time>
      </trkpt>
      <trkpt lat="45.49198" lon="6.73417">
        <ele>2684</ele>
        <time>2019-07-18T13:09:33Z</time>
      </trkpt>
      <trkpt lat="45.49191" lon="6.73407">
        <ele>2681</ele>
        <time>2019-07-18T13:09:33Z</time>
      </trkpt>
      <trkpt lat="45.49183" lon="6.73397">
        <ele>2682</ele>
        <time>2019-07-18T13:09:33Z</time>
      </trkpt>
      <trkpt lat="45.49175" lon="6.73388">
        <ele>2679</ele>
        <time>2019-07-18T13:09:33Z</time>
      </trkpt>
      <trkpt lat="45.49044" lon="6.73293">
        <ele>2659.1</ele>
        <time>2019-07-18T13:09:33Z</time>
      </trkpt>
      <trkpt lat="45.49035" lon="6.73287">
        <ele>2658</ele>
        <time>2019-07-18T13:09:33Z</time>
      </trkpt>
      <trkpt lat="45.49025" lon="6.73282">
        <ele>2657.1</ele>
        <time>2019-07-18T13:09:33Z</time>
      </trkpt>
      <trkpt lat="45.49016" lon="6.73279">
        <ele>2655</ele>
        <time>2019-07-18T13:09:33Z</time>
      </trkpt>
      <trkpt lat="45.49004" lon="6.73275">
        <ele>2654.6</ele>
        <time>2019-07-18T13:09:33Z</time>
      </trkpt>
      <trkpt lat="45.48994" lon="6.73272">
        <ele>2655</ele>
        <time>2019-07-18T13:09:33Z</time>
      </trkpt>
      <trkpt lat="45.48985" lon="6.73269">
        <ele>2652.6</ele>
        <time>2019-07-18T13:09:33Z</time>
      </trkpt>
      <trkpt lat="45.48976" lon="6.73265">
        <ele>2654</ele>
        <time>2019-07-18T13:09:33Z</time>
      </trkpt>
      <trkpt lat="45.48981" lon="6.73278">
        <ele>2647.8</ele>
        <time>2019-07-18T13:09:33Z</time>
      </trkpt>
      <trkpt lat="45.48991" lon="6.73285">
        <ele>2653</ele>
        <time>2019-07-18T13:09:33Z</time>
      </trkpt>
      <trkpt lat="45.49001" lon="6.73295">
        <ele>2644.2</ele>
        <time>2019-07-18T13:09:33Z</time>
      </trkpt>
      <trkpt lat="45.49012" lon="6.73305">
        <ele>2647</ele>
        <time>2019-07-18T13:09:33Z</time>
      </trkpt>
      <trkpt lat="45.49022" lon="6.73315">
        <ele>2641.9</ele>
        <time>2019-07-18T13:09:33Z</time>
      </trkpt>
      <trkpt lat="45.49018" lon="6.73329">
        <ele>2644</ele>
        <time>2019-07-18T13:09:33Z</time>
      </trkpt>
      <trkpt lat="45.49007" lon="6.73327">
        <ele>2633.1</ele>
        <time>2019-07-18T13:09:33Z</time>
      </trkpt>
      <trkpt lat="45.48996" lon="6.73323">
        <ele>2637</ele>
        <time>2019-07-18T13:09:33Z</time>
      </trkpt>
      <trkpt lat="45.48987" lon="6.73318">
        <ele>2631.8</ele>
        <time>2019-07-18T13:09:33Z</time>
      </trkpt>
      <trkpt lat="45.48975" lon="6.73318">
        <ele>2631</ele>
        <time>2019-07-18T13:09:33Z</time>
      </trkpt>
      <trkpt lat="45.4898" lon="6.73334">
        <ele>2626.2</ele>
        <time>2019-07-18T13:09:33Z</time>
      </trkpt>
      <trkpt lat="45.4899" lon="6.73337">
        <ele>2626</ele>
        <time>2019-07-18T13:09:33Z</time>
      </trkpt>
      <trkpt lat="45.48999" lon="6.73344">
        <ele>2623.6</ele>
        <time>2019-07-18T13:09:33Z</time>
      </trkpt>
      <trkpt lat="45.49006" lon="6.73353">
        <ele>2624</ele>
        <time>2019-07-18T13:09:33Z</time>
      </trkpt>
      <trkpt lat="45.49014" lon="6.73359">
        <ele>2621.5</ele>
        <time>2019-07-18T13:09:33Z</time>
      </trkpt>
      <trkpt lat="45.49068" lon="6.73409">
        <ele>2610</ele>
        <time>2019-07-18T13:09:33Z</time>
      </trkpt>
      <trkpt lat="45.49077" lon="6.73416">
        <ele>2608.7</ele>
        <time>2019-07-18T13:09:33Z</time>
      </trkpt>
      <trkpt lat="45.49085" lon="6.73426">
        <ele>2610</ele>
        <time>2019-07-18T13:09:33Z</time>
      </trkpt>
      <trkpt lat="45.49092" lon="6.73436">
        <ele>2607.4</ele>
        <time>2019-07-18T13:09:33Z</time>
      </trkpt>
      <trkpt lat="45.49101" lon="6.73446">
        <ele>2608</ele>
        <time>2019-07-18T13:09:33Z</time>
      </trkpt>
      <trkpt lat="45.49108" lon="6.73458">
        <ele>2606.2</ele>
        <time>2019-07-18T13:09:33Z</time>
      </trkpt>
      <trkpt lat="45.49116" lon="6.73473">
        <ele>2607</ele>
        <time>2019-07-18T13:09:33Z</time>
      </trkpt>
      <trkpt lat="45.49121" lon="6.73489">
        <ele>2605.7</ele>
        <time>2019-07-18T13:09:33Z</time>
      </trkpt>
      <trkpt lat="45.49125" lon="6.73506">
        <ele>2605</ele>
        <time>2019-07-18T13:09:33Z</time>
      </trkpt>
      <trkpt lat="45.49128" lon="6.73524">
        <ele>2605.7</ele>
        <time>2019-07-18T13:09:33Z</time>
      </trkpt>
      <trkpt lat="45.4913" lon="6.73542">
        <ele>2605</ele>
        <time>2019-07-18T13:09:33Z</time>
      </trkpt>
      <trkpt lat="45.49133" lon="6.73558">
        <ele>2604.8</ele>
        <time>2019-07-18T13:09:33Z</time>
      </trkpt>
      <trkpt lat="45.49136" lon="6.73575">
        <ele>2606</ele>
        <time>2019-07-18T13:09:33Z</time>
      </trkpt>
      <trkpt lat="45.49137" lon="6.73592">
        <ele>2605.1</ele>
        <time>2019-07-18T13:09:33Z</time>
      </trkpt>
      <trkpt lat="45.49138" lon="6.73609">
        <ele>2606</ele>
        <time>2019-07-18T13:09:33Z</time>
      </trkpt>
      <trkpt lat="45.49137" lon="6.73627">
        <ele>2603.8</ele>
        <time>2019-07-18T13:09:33Z</time>
      </trkpt>
      <trkpt lat="45.49136" lon="6.73641">
        <ele>2605</ele>
        <time>2019-07-18T13:09:33Z</time>
      </trkpt>
      <trkpt lat="45.49133" lon="6.73655">
        <ele>2602.9</ele>
        <time>2019-07-18T13:09:33Z</time>
      </trkpt>
      <trkpt lat="45.49128" lon="6.73672">
        <ele>2604</ele>
        <time>2019-07-18T13:09:33Z</time>
      </trkpt>
      <trkpt lat="45.49125" lon="6.7369">
        <ele>2601</ele>
        <time>2019-07-18T13:09:33Z</time>
      </trkpt>
      <trkpt lat="45.4912" lon="6.73707">
        <ele>2601</ele>
        <time>2019-07-18T13:09:33Z</time>
      </trkpt>
      <trkpt lat="45.49114" lon="6.7372">
        <ele>2597.6</ele>
        <time>2019-07-18T13:09:33Z</time>
      </trkpt>
      <trkpt lat="45.49108" lon="6.73732">
        <ele>2599</ele>
        <time>2019-07-18T13:09:33Z</time>
      </trkpt>
      <trkpt lat="45.49098" lon="6.73741">
        <ele>2596.3</ele>
        <time>2019-07-18T13:09:33Z</time>
      </trkpt>
      <trkpt lat="45.49089" lon="6.73748">
        <ele>2597</ele>
        <time>2019-07-18T13:09:33Z</time>
      </trkpt>
      <trkpt lat="45.4908" lon="6.73756">
        <ele>2592.8</ele>
        <time>2019-07-18T13:09:33Z</time>
      </trkpt>
      <trkpt lat="45.49072" lon="6.73765">
        <ele>2595</ele>
        <time>2019-07-18T13:09:33Z</time>
      </trkpt>
      <trkpt lat="45.49062" lon="6.73777">
        <ele>2589.8</ele>
        <time>2019-07-18T13:09:33Z</time>
      </trkpt>
      <trkpt lat="45.49054" lon="6.73785">
        <ele>2591</ele>
        <time>2019-07-18T13:09:33Z</time>
      </trkpt>
      <trkpt lat="45.49045" lon="6.73793">
        <ele>2590</ele>
        <time>2019-07-18T13:09:33Z</time>
      </trkpt>
      <trkpt lat="45.49032" lon="6.73798">
        <ele>2591</ele>
        <time>2019-07-18T13:09:33Z</time>
      </trkpt>
      <trkpt lat="45.49021" lon="6.73806">
        <ele>2587.5</ele>
        <time>2019-07-18T13:09:33Z</time>
      </trkpt>
      <trkpt lat="45.49011" lon="6.73816">
        <ele>2589</ele>
        <time>2019-07-18T13:09:33Z</time>
      </trkpt>
      <trkpt lat="45.48999" lon="6.73823">
        <ele>2586.5</ele>
        <time>2019-07-18T13:09:33Z</time>
      </trkpt>
      <trkpt lat="45.48989" lon="6.73826">
        <ele>2587</ele>
        <time>2019-07-18T13:09:33Z</time>
      </trkpt>
      <trkpt lat="45.48978" lon="6.73824">
        <ele>2585.9</ele>
        <time>2019-07-18T13:09:33Z</time>
      </trkpt>
      <trkpt lat="45.48968" lon="6.73819">
        <ele>2586</ele>
        <time>2019-07-18T13:09:33Z</time>
      </trkpt>
      <trkpt lat="45.48959" lon="6.73815">
        <ele>2581.2</ele>
        <time>2019-07-18T13:09:33Z</time>
      </trkpt>
      <trkpt lat="45.48949" lon="6.73812">
        <ele>2584</ele>
        <time>2019-07-18T13:09:33Z</time>
      </trkpt>
      <trkpt lat="45.4894" lon="6.73816">
        <ele>2579.8</ele>
        <time>2019-07-18T13:09:33Z</time>
      </trkpt>
      <trkpt lat="45.48931" lon="6.73826">
        <ele>2580</ele>
        <time>2019-07-18T13:09:33Z</time>
      </trkpt>
      <trkpt lat="45.48924" lon="6.73836">
        <ele>2576.2</ele>
        <time>2019-07-18T13:09:33Z</time>
      </trkpt>
      <trkpt lat="45.48919" lon="6.73848">
        <ele>2577</ele>
        <time>2019-07-18T13:09:33Z</time>
      </trkpt>
      <trkpt lat="45.48918" lon="6.73862">
        <ele>2571.9</ele>
        <time>2019-07-18T13:09:33Z</time>
      </trkpt>
      <trkpt lat="45.48917" lon="6.73887">
        <ele>2573</ele>
        <time>2019-07-18T13:09:33Z</time>
      </trkpt>
      <trkpt lat="45.48914" lon="6.73902">
        <ele>2566.5</ele>
        <time>2019-07-18T13:09:33Z</time>
      </trkpt>
      <trkpt lat="45.48911" lon="6.73916">
        <ele>2570</ele>
        <time>2019-07-18T13:09:33Z</time>
      </trkpt>
      <trkpt lat="45.48909" lon="6.7393">
        <ele>2563.3</ele>
        <time>2019-07-18T13:09:33Z</time>
      </trkpt>
      <trkpt lat="45.48906" lon="6.73945">
        <ele>2566</ele>
        <time>2019-07-18T13:09:33Z</time>
      </trkpt>
      <trkpt lat="45.48903" lon="6.73959">
        <ele>2559.7</ele>
        <time>2019-07-18T13:09:33Z</time>
      </trkpt>
      <trkpt lat="45.48901" lon="6.73974">
        <ele>2563</ele>
        <time>2019-07-18T13:09:33Z</time>
      </trkpt>
      <trkpt lat="45.48899" lon="6.73992">
        <ele>2557.5</ele>
        <time>2019-07-18T13:09:33Z</time>
      </trkpt>
      <trkpt lat="45.48897" lon="6.74007">
        <ele>2558</ele>
        <time>2019-07-18T13:09:33Z</time>
      </trkpt>
      <trkpt lat="45.48895" lon="6.74025">
        <ele>2554.6</ele>
        <time>2019-07-18T13:09:33Z</time>
      </trkpt>
      <trkpt lat="45.48892" lon="6.74039">
        <ele>2555</ele>
        <time>2019-07-18T13:09:33Z</time>
      </trkpt>
      <trkpt lat="45.48886" lon="6.7405">
        <ele>2552.9</ele>
        <time>2019-07-18T13:09:33Z</time>
      </trkpt>
      <trkpt lat="45.48879" lon="6.74061">
        <ele>2554</ele>
        <time>2019-07-18T13:09:33Z</time>
      </trkpt>
      <trkpt lat="45.48872" lon="6.74072">
        <ele>2550.4</ele>
        <time>2019-07-18T13:09:33Z</time>
      </trkpt>
      <trkpt lat="45.48863" lon="6.74081">
        <ele>2551</ele>
        <time>2019-07-18T13:09:33Z</time>
      </trkpt>
      <trkpt lat="45.48852" lon="6.7409">
        <ele>2545</ele>
        <time>2019-07-18T13:09:33Z</time>
      </trkpt>
      <trkpt lat="45.48843" lon="6.74098">
        <ele>2549</ele>
        <time>2019-07-18T13:09:33Z</time>
      </trkpt>
      <trkpt lat="45.48834" lon="6.74104">
        <ele>2542</ele>
        <time>2019-07-18T13:09:33Z</time>
      </trkpt>
      <trkpt lat="45.48825" lon="6.74109">
        <ele>2547</ele>
        <time>2019-07-18T13:09:33Z</time>
      </trkpt>
      <trkpt lat="45.48814" lon="6.74113">
        <ele>2539</ele>
        <time>2019-07-18T13:09:33Z</time>
      </trkpt>
      <trkpt lat="45.48804" lon="6.74117">
        <ele>2540</ele>
        <time>2019-07-18T13:09:33Z</time>
      </trkpt>
      <trkpt lat="45.48792" lon="6.74123">
        <ele>2535.7</ele>
        <time>2019-07-18T13:09:33Z</time>
      </trkpt>
      <trkpt lat="45.48783" lon="6.74132">
        <ele>2538</ele>
        <time>2019-07-18T13:09:33Z</time>
      </trkpt>
      <trkpt lat="45.48773" lon="6.74143">
        <ele>2535.3</ele>
        <time>2019-07-18T13:09:33Z</time>
      </trkpt>
      <trkpt lat="45.48762" lon="6.74154">
        <ele>2537</ele>
        <time>2019-07-18T13:09:33Z</time>
      </trkpt>
      <trkpt lat="45.48751" lon="6.74163">
        <ele>2530.5</ele>
        <time>2019-07-18T13:09:33Z</time>
      </trkpt>
      <trkpt lat="45.48742" lon="6.74169">
        <ele>2535</ele>
        <time>2019-07-18T13:09:33Z</time>
      </trkpt>
      <trkpt lat="45.48733" lon="6.74174">
        <ele>2528.6</ele>
        <time>2019-07-18T13:09:33Z</time>
      </trkpt>
      <trkpt lat="45.48724" lon="6.74181">
        <ele>2529</ele>
        <time>2019-07-18T13:09:33Z</time>
      </trkpt>
      <trkpt lat="45.48713" lon="6.74191">
        <ele>2527.4</ele>
        <time>2019-07-18T13:09:33Z</time>
      </trkpt>
      <trkpt lat="45.48702" lon="6.742">
        <ele>2528</ele>
        <time>2019-07-18T13:09:33Z</time>
      </trkpt>
      <trkpt lat="45.4869" lon="6.74207">
        <ele>2525.7</ele>
        <time>2019-07-18T13:09:33Z</time>
      </trkpt>
      <trkpt lat="45.48681" lon="6.74211">
        <ele>2527</ele>
        <time>2019-07-18T13:09:33Z</time>
      </trkpt>
      <trkpt lat="45.4867" lon="6.74219">
        <ele>2523.3</ele>
        <time>2019-07-18T13:09:33Z</time>
      </trkpt>
      <trkpt lat="45.48662" lon="6.74229">
        <ele>2523</ele>
        <time>2019-07-18T13:09:33Z</time>
      </trkpt>
      <trkpt lat="45.48655" lon="6.74239">
        <ele>2523.8</ele>
        <time>2019-07-18T13:09:33Z</time>
      </trkpt>
      <trkpt lat="45.48646" lon="6.74247">
        <ele>2523</ele>
        <time>2019-07-18T13:09:33Z</time>
      </trkpt>
      <trkpt lat="45.48637" lon="6.74254">
        <ele>2522.1</ele>
        <time>2019-07-18T13:09:33Z</time>
      </trkpt>
      <trkpt lat="45.48625" lon="6.7426">
        <ele>2522</ele>
        <time>2019-07-18T13:09:33Z</time>
      </trkpt>
      <trkpt lat="45.48615" lon="6.74262">
        <ele>2520</ele>
        <time>2019-07-18T13:09:33Z</time>
      </trkpt>
      <trkpt lat="45.48605" lon="6.74264">
        <ele>2521</ele>
        <time>2019-07-18T13:09:33Z</time>
      </trkpt>
      <trkpt lat="45.48593" lon="6.74273">
        <ele>2516.5</ele>
        <time>2019-07-18T13:09:33Z</time>
      </trkpt>
      <trkpt lat="45.48587" lon="6.74289">
        <ele>2517</ele>
        <time>2019-07-18T13:09:33Z</time>
      </trkpt>
      <trkpt lat="45.48591" lon="6.74306">
        <ele>2506.9</ele>
        <time>2019-07-18T13:09:33Z</time>
      </trkpt>
      <trkpt lat="45.48603" lon="6.74312">
        <ele>2511</ele>
        <time>2019-07-18T13:09:33Z</time>
      </trkpt>
      <trkpt lat="45.48614" lon="6.74313">
        <ele>2504.4</ele>
        <time>2019-07-18T13:09:33Z</time>
      </trkpt>
      <trkpt lat="45.48624" lon="6.74317">
        <ele>2504</ele>
        <time>2019-07-18T13:09:33Z</time>
      </trkpt>
      <trkpt lat="45.48634" lon="6.74318">
        <ele>2504.3</ele>
        <time>2019-07-18T13:09:33Z</time>
      </trkpt>
      <trkpt lat="45.48646" lon="6.74319">
        <ele>2502</ele>
        <time>2019-07-18T13:09:33Z</time>
      </trkpt>
      <trkpt lat="45.48656" lon="6.7432">
        <ele>2503.6</ele>
        <time>2019-07-18T13:09:33Z</time>
      </trkpt>
      <trkpt lat="45.48666" lon="6.74321">
        <ele>2502</ele>
        <time>2019-07-18T13:09:33Z</time>
      </trkpt>
      <trkpt lat="45.48677" lon="6.74323">
        <ele>2500.8</ele>
        <time>2019-07-18T13:09:33Z</time>
      </trkpt>
      <trkpt lat="45.48687" lon="6.74323">
        <ele>2501</ele>
        <time>2019-07-18T13:09:33Z</time>
      </trkpt>
      <trkpt lat="45.48697" lon="6.74324">
        <ele>2498.2</ele>
        <time>2019-07-18T13:09:33Z</time>
      </trkpt>
      <trkpt lat="45.48707" lon="6.74322">
        <ele>2500</ele>
        <time>2019-07-18T13:09:33Z</time>
      </trkpt>
      <trkpt lat="45.48718" lon="6.74319">
        <ele>2496.1</ele>
        <time>2019-07-18T13:09:33Z</time>
      </trkpt>
      <trkpt lat="45.48728" lon="6.74314">
        <ele>2497</ele>
        <time>2019-07-18T13:09:33Z</time>
      </trkpt>
      <trkpt lat="45.48746" lon="6.74305">
        <ele>2497</ele>
        <time>2019-07-18T13:09:33Z</time>
      </trkpt>
      <trkpt lat="45.48755" lon="6.74304">
        <ele>2496.5</ele>
        <time>2019-07-18T13:09:33Z</time>
      </trkpt>
      <trkpt lat="45.48767" lon="6.74299">
        <ele>2497</ele>
        <time>2019-07-18T13:09:33Z</time>
      </trkpt>
      <trkpt lat="45.48782" lon="6.74286">
        <ele>2499.1</ele>
        <time>2019-07-18T13:09:33Z</time>
      </trkpt>
      <trkpt lat="45.48798" lon="6.74276">
        <ele>2499.4</ele>
        <time>2019-07-18T13:09:33Z</time>
      </trkpt>
      <trkpt lat="45.48807" lon="6.74272">
        <ele>2499.2</ele>
        <time>2019-07-18T13:09:33Z</time>
      </trkpt>
      <trkpt lat="45.48815" lon="6.74268">
        <ele>2497</ele>
        <time>2019-07-18T13:09:33Z</time>
      </trkpt>
      <trkpt lat="45.4883" lon="6.74256">
        <ele>2498.6</ele>
        <time>2019-07-18T13:09:33Z</time>
      </trkpt>
      <trkpt lat="45.48839" lon="6.74254">
        <ele>2498</ele>
        <time>2019-07-18T13:09:33Z</time>
      </trkpt>
      <trkpt lat="45.48856" lon="6.7426">
        <ele>2498.9</ele>
        <time>2019-07-18T13:09:33Z</time>
      </trkpt>
      <trkpt lat="45.48873" lon="6.74264">
        <ele>2499</ele>
        <time>2019-07-18T13:09:33Z</time>
      </trkpt>
      <trkpt lat="45.48882" lon="6.74267">
        <ele>2498.9</ele>
        <time>2019-07-18T13:09:33Z</time>
      </trkpt>
      <trkpt lat="45.48888" lon="6.74277">
        <ele>2498</ele>
        <time>2019-07-18T13:09:33Z</time>
      </trkpt>
      <trkpt lat="45.48887" lon="6.74291">
        <ele>2499.7</ele>
        <time>2019-07-18T13:09:33Z</time>
      </trkpt>
      <trkpt lat="45.48885" lon="6.74303">
        <ele>2498</ele>
        <time>2019-07-18T13:09:33Z</time>
      </trkpt>
      <trkpt lat="45.48883" lon="6.74319">
        <ele>2498.9</ele>
        <time>2019-07-18T13:09:33Z</time>
      </trkpt>
      <trkpt lat="45.48887" lon="6.74333">
        <ele>2498</ele>
        <time>2019-07-18T13:09:33Z</time>
      </trkpt>
      <trkpt lat="45.48899" lon="6.74338">
        <ele>2498.8</ele>
        <time>2019-07-18T13:09:33Z</time>
      </trkpt>
      <trkpt lat="45.48911" lon="6.74343">
        <ele>2498</ele>
        <time>2019-07-18T13:09:33Z</time>
      </trkpt>
      <trkpt lat="45.48924" lon="6.74345">
        <ele>2497.7</ele>
        <time>2019-07-18T13:09:33Z</time>
      </trkpt>
      <trkpt lat="45.48935" lon="6.74345">
        <ele>2498</ele>
        <time>2019-07-18T13:09:33Z</time>
      </trkpt>
      <trkpt lat="45.48955" lon="6.74351">
        <ele>2498</ele>
        <time>2019-07-18T13:09:33Z</time>
      </trkpt>
      <trkpt lat="45.48959" lon="6.74364">
        <ele>2500.5</ele>
        <time>2019-07-18T13:09:33Z</time>
      </trkpt>
      <trkpt lat="45.48962" lon="6.74378">
        <ele>2499</ele>
        <time>2019-07-18T13:09:33Z</time>
      </trkpt>
      <trkpt lat="45.48966" lon="6.74392">
        <ele>2499.9</ele>
        <time>2019-07-18T13:09:33Z</time>
      </trkpt>
      <trkpt lat="45.48973" lon="6.74404">
        <ele>2499</ele>
        <time>2019-07-18T13:09:33Z</time>
      </trkpt>
      <trkpt lat="45.48979" lon="6.74412">
        <ele>2498.8</ele>
        <time>2019-07-18T13:09:33Z</time>
      </trkpt>
      <trkpt lat="45.48989" lon="6.7442">
        <ele>2498</ele>
        <time>2019-07-18T13:09:33Z</time>
      </trkpt>
      <trkpt lat="45.48997" lon="6.74426">
        <ele>2498.9</ele>
        <time>2019-07-18T13:09:33Z</time>
      </trkpt>
      <trkpt lat="45.49005" lon="6.74429">
        <ele>2499.3</ele>
        <time>2019-07-18T13:09:33Z</time>
      </trkpt>
      <trkpt lat="45.49033" lon="6.74459">
        <ele>2497.9</ele>
        <time>2019-07-18T13:09:33Z</time>
      </trkpt>
      <trkpt lat="45.49041" lon="6.74467">
        <ele>2498.2</ele>
        <time>2019-07-18T13:09:33Z</time>
      </trkpt>
      <trkpt lat="45.49048" lon="6.74476">
        <ele>2498</ele>
        <time>2019-07-18T13:09:33Z</time>
      </trkpt>
      <trkpt lat="45.49056" lon="6.74483">
        <ele>2497.3</ele>
        <time>2019-07-18T13:09:33Z</time>
      </trkpt>
      <trkpt lat="45.49096" lon="6.74529">
        <ele>2496</ele>
        <time>2019-07-18T13:09:33Z</time>
      </trkpt>
      <trkpt lat="45.49101" lon="6.74544">
        <ele>2495.9</ele>
        <time>2019-07-18T13:09:33Z</time>
      </trkpt>
      <trkpt lat="45.49108" lon="6.7456">
        <ele>2495</ele>
        <time>2019-07-18T13:09:33Z</time>
      </trkpt>
      <trkpt lat="45.49117" lon="6.74584">
        <ele>2495</ele>
        <time>2019-07-18T13:09:33Z</time>
      </trkpt>
      <trkpt lat="45.49124" lon="6.74599">
        <ele>2495.1</ele>
        <time>2019-07-18T13:09:33Z</time>
      </trkpt>
      <trkpt lat="45.4913" lon="6.74614">
        <ele>2495</ele>
        <time>2019-07-18T13:09:33Z</time>
      </trkpt>
      <trkpt lat="45.49147" lon="6.74647">
        <ele>2493</ele>
        <time>2019-07-18T13:09:33Z</time>
      </trkpt>
      <trkpt lat="45.4916" lon="6.74643">
        <ele>2490</ele>
        <time>2019-07-18T13:09:33Z</time>
      </trkpt>
      <trkpt lat="45.4917" lon="6.74633">
        <ele>2487.9</ele>
        <time>2019-07-18T13:09:33Z</time>
      </trkpt>
      <trkpt lat="45.49178" lon="6.74625">
        <ele>2488</ele>
        <time>2019-07-18T13:09:33Z</time>
      </trkpt>
      <trkpt lat="45.49185" lon="6.74614">
        <ele>2484</ele>
        <time>2019-07-18T13:09:33Z</time>
      </trkpt>
      <trkpt lat="45.49192" lon="6.74602">
        <ele>2485</ele>
        <time>2019-07-18T13:09:33Z</time>
      </trkpt>
      <trkpt lat="45.49197" lon="6.74589">
        <ele>2479</ele>
        <time>2019-07-18T13:09:33Z</time>
      </trkpt>
      <trkpt lat="45.49204" lon="6.74576">
        <ele>2480</ele>
        <time>2019-07-18T13:09:33Z</time>
      </trkpt>
      <trkpt lat="45.49209" lon="6.74565">
        <ele>2474.7</ele>
        <time>2019-07-18T13:09:33Z</time>
      </trkpt>
      <trkpt lat="45.49217" lon="6.7455">
        <ele>2476</ele>
        <time>2019-07-18T13:09:33Z</time>
      </trkpt>
      <trkpt lat="45.49223" lon="6.74536">
        <ele>2471.1</ele>
        <time>2019-07-18T13:09:33Z</time>
      </trkpt>
      <trkpt lat="45.4923" lon="6.74525">
        <ele>2472</ele>
        <time>2019-07-18T13:09:33Z</time>
      </trkpt>
      <trkpt lat="45.49238" lon="6.74516">
        <ele>2466.2</ele>
        <time>2019-07-18T13:09:33Z</time>
      </trkpt>
      <trkpt lat="45.49246" lon="6.74506">
        <ele>2469</ele>
        <time>2019-07-18T13:09:33Z</time>
      </trkpt>
      <trkpt lat="45.49405" lon="6.74339">
        <ele>2429</ele>
        <time>2019-07-18T13:09:33Z</time>
      </trkpt>
      <trkpt lat="45.49414" lon="6.7433">
        <ele>2425.8</ele>
        <time>2019-07-18T13:09:33Z</time>
      </trkpt>
      <trkpt lat="45.49434" lon="6.74314">
        <ele>2420.8</ele>
        <time>2019-07-18T13:09:33Z</time>
      </trkpt>
      <trkpt lat="45.49444" lon="6.74309">
        <ele>2422</ele>
        <time>2019-07-18T13:09:33Z</time>
      </trkpt>
      <trkpt lat="45.4946" lon="6.74299">
        <ele>2413.6</ele>
        <time>2019-07-18T13:09:33Z</time>
      </trkpt>
      <trkpt lat="45.49481" lon="6.74264">
        <ele>2403.4</ele>
        <time>2019-07-18T13:09:33Z</time>
      </trkpt>
      <trkpt lat="45.49471" lon="6.74257">
        <ele>2403</ele>
        <time>2019-07-18T13:09:33Z</time>
      </trkpt>
      <trkpt lat="45.49452" lon="6.74213">
        <ele>2400</ele>
        <time>2019-07-18T13:09:33Z</time>
      </trkpt>
      <trkpt lat="45.49462" lon="6.74207">
        <ele>2390.2</ele>
        <time>2019-07-18T13:09:33Z</time>
      </trkpt>
      <trkpt lat="45.49474" lon="6.74204">
        <ele>2391</ele>
        <time>2019-07-18T13:09:33Z</time>
      </trkpt>
      <trkpt lat="45.49492" lon="6.74202">
        <ele>2383</ele>
        <time>2019-07-18T13:09:33Z</time>
      </trkpt>
      <trkpt lat="45.49505" lon="6.74199">
        <ele>2386</ele>
        <time>2019-07-18T13:09:33Z</time>
      </trkpt>
      <trkpt lat="45.49517" lon="6.74194">
        <ele>2376.5</ele>
        <time>2019-07-18T13:09:33Z</time>
      </trkpt>
      <trkpt lat="45.49529" lon="6.74186">
        <ele>2378</ele>
        <time>2019-07-18T13:09:33Z</time>
      </trkpt>
      <trkpt lat="45.49537" lon="6.74178">
        <ele>2369.5</ele>
        <time>2019-07-18T13:09:33Z</time>
      </trkpt>
      <trkpt lat="45.49549" lon="6.7417">
        <ele>2370</ele>
        <time>2019-07-18T13:09:33Z</time>
      </trkpt>
      <trkpt lat="45.49559" lon="6.7417">
        <ele>2363</ele>
        <time>2019-07-18T13:09:33Z</time>
      </trkpt>
      <trkpt lat="45.49568" lon="6.74173">
        <ele>2363</ele>
        <time>2019-07-18T13:09:33Z</time>
      </trkpt>
      <trkpt lat="45.4958" lon="6.74169">
        <ele>2358.4</ele>
        <time>2019-07-18T13:09:33Z</time>
      </trkpt>
      <trkpt lat="45.49592" lon="6.74165">
        <ele>2360</ele>
        <time>2019-07-18T13:09:33Z</time>
      </trkpt>
      <trkpt lat="45.49604" lon="6.74163">
        <ele>2352</ele>
        <time>2019-07-18T13:09:33Z</time>
      </trkpt>
      <trkpt lat="45.49617" lon="6.74163">
        <ele>2354</ele>
        <time>2019-07-18T13:09:33Z</time>
      </trkpt>
      <trkpt lat="45.49629" lon="6.74159">
        <ele>2347.1</ele>
        <time>2019-07-18T13:09:33Z</time>
      </trkpt>
      <trkpt lat="45.49639" lon="6.74156">
        <ele>2349</ele>
        <time>2019-07-18T13:09:33Z</time>
      </trkpt>
      <trkpt lat="45.4965" lon="6.74155">
        <ele>2343.4</ele>
        <time>2019-07-18T13:09:33Z</time>
      </trkpt>
      <trkpt lat="45.4966" lon="6.74153">
        <ele>2344</ele>
        <time>2019-07-18T13:09:33Z</time>
      </trkpt>
      <trkpt lat="45.4967" lon="6.74151">
        <ele>2339.7</ele>
        <time>2019-07-18T13:09:33Z</time>
      </trkpt>
      <trkpt lat="45.49679" lon="6.74149">
        <ele>2341</ele>
        <time>2019-07-18T13:09:33Z</time>
      </trkpt>
      <trkpt lat="45.49689" lon="6.74146">
        <ele>2336.4</ele>
        <time>2019-07-18T13:09:33Z</time>
      </trkpt>
      <trkpt lat="45.49699" lon="6.74144">
        <ele>2338</ele>
        <time>2019-07-18T13:09:33Z</time>
      </trkpt>
      <trkpt lat="45.49709" lon="6.74144">
        <ele>2334</ele>
        <time>2019-07-18T13:09:33Z</time>
      </trkpt>
      <trkpt lat="45.49722" lon="6.74145">
        <ele>2335</ele>
        <time>2019-07-18T13:09:33Z</time>
      </trkpt>
      <trkpt lat="45.49732" lon="6.74147">
        <ele>2329.9</ele>
        <time>2019-07-18T13:09:33Z</time>
      </trkpt>
      <trkpt lat="45.49742" lon="6.74151">
        <ele>2331</ele>
        <time>2019-07-18T13:09:33Z</time>
      </trkpt>
      <trkpt lat="45.49752" lon="6.74157">
        <ele>2325.4</ele>
        <time>2019-07-18T13:09:33Z</time>
      </trkpt>
      <trkpt lat="45.49762" lon="6.74162">
        <ele>2328</ele>
        <time>2019-07-18T13:09:33Z</time>
      </trkpt>
      <trkpt lat="45.49773" lon="6.74171">
        <ele>2321</ele>
        <time>2019-07-18T13:09:33Z</time>
      </trkpt>
      <trkpt lat="45.49783" lon="6.74182">
        <ele>2324</ele>
        <time>2019-07-18T13:09:33Z</time>
      </trkpt>
      <trkpt lat="45.4979" lon="6.74195">
        <ele>2316.2</ele>
        <time>2019-07-18T13:09:33Z</time>
      </trkpt>
      <trkpt lat="45.49798" lon="6.74209">
        <ele>2318</ele>
        <time>2019-07-18T13:09:33Z</time>
      </trkpt>
      <trkpt lat="45.49803" lon="6.74225">
        <ele>2310.8</ele>
        <time>2019-07-18T13:09:33Z</time>
      </trkpt>
      <trkpt lat="45.49812" lon="6.74235">
        <ele>2313</ele>
        <time>2019-07-18T13:09:33Z</time>
      </trkpt>
      <trkpt lat="45.49821" lon="6.74241">
        <ele>2307.3</ele>
        <time>2019-07-18T13:09:33Z</time>
      </trkpt>
      <trkpt lat="45.49829" lon="6.74249">
        <ele>2310</ele>
        <time>2019-07-18T13:09:33Z</time>
      </trkpt>
      <trkpt lat="45.49838" lon="6.74256">
        <ele>2302.6</ele>
        <time>2019-07-18T13:09:33Z</time>
      </trkpt>
      <trkpt lat="45.49849" lon="6.74265">
        <ele>2305</ele>
        <time>2019-07-18T13:09:33Z</time>
      </trkpt>
      <trkpt lat="45.49859" lon="6.74276">
        <ele>2296.6</ele>
        <time>2019-07-18T13:09:33Z</time>
      </trkpt>
      <trkpt lat="45.49861" lon="6.74292">
        <ele>2300</ele>
        <time>2019-07-18T13:09:33Z</time>
      </trkpt>
      <trkpt lat="45.49859" lon="6.74306">
        <ele>2292.5</ele>
        <time>2019-07-18T13:09:33Z</time>
      </trkpt>
      <trkpt lat="45.49863" lon="6.74317">
        <ele>2291.8</ele>
        <time>2019-07-18T13:09:33Z</time>
      </trkpt>
      <trkpt lat="45.49873" lon="6.74313">
        <ele>2293</ele>
        <time>2019-07-18T13:09:33Z</time>
      </trkpt>
      <trkpt lat="45.49881" lon="6.74301">
        <ele>2289.2</ele>
        <time>2019-07-18T13:09:33Z</time>
      </trkpt>
      <trkpt lat="45.49889" lon="6.74291">
        <ele>2289</ele>
        <time>2019-07-18T13:09:33Z</time>
      </trkpt>
      <trkpt lat="45.49899" lon="6.74278">
        <ele>2285.6</ele>
        <time>2019-07-18T13:09:33Z</time>
      </trkpt>
      <trkpt lat="45.49907" lon="6.74271">
        <ele>2289</ele>
        <time>2019-07-18T13:09:33Z</time>
      </trkpt>
      <trkpt lat="45.4992" lon="6.74267">
        <ele>2282.2</ele>
        <time>2019-07-18T13:09:33Z</time>
      </trkpt>
      <trkpt lat="45.49929" lon="6.74261">
        <ele>2284</ele>
        <time>2019-07-18T13:09:33Z</time>
      </trkpt>
      <trkpt lat="45.49939" lon="6.74251">
        <ele>2280.3</ele>
        <time>2019-07-18T13:09:33Z</time>
      </trkpt>
      <trkpt lat="45.49948" lon="6.74241">
        <ele>2281</ele>
        <time>2019-07-18T13:09:33Z</time>
      </trkpt>
      <trkpt lat="45.4996" lon="6.74235">
        <ele>2276.8</ele>
        <time>2019-07-18T13:09:33Z</time>
      </trkpt>
      <trkpt lat="45.49969" lon="6.7423">
        <ele>2278</ele>
        <time>2019-07-18T13:09:33Z</time>
      </trkpt>
      <trkpt lat="45.4998" lon="6.74222">
        <ele>2274.6</ele>
        <time>2019-07-18T13:09:33Z</time>
      </trkpt>
      <trkpt lat="45.49991" lon="6.74214">
        <ele>2275</ele>
        <time>2019-07-18T13:09:33Z</time>
      </trkpt>
      <trkpt lat="45.49999" lon="6.74205">
        <ele>2269.9</ele>
        <time>2019-07-18T13:09:33Z</time>
      </trkpt>
      <trkpt lat="45.50008" lon="6.74194">
        <ele>2272</ele>
        <time>2019-07-18T13:09:33Z</time>
      </trkpt>
      <trkpt lat="45.50017" lon="6.74182">
        <ele>2265.4</ele>
        <time>2019-07-18T13:09:33Z</time>
      </trkpt>
      <trkpt lat="45.50025" lon="6.74173">
        <ele>2268</ele>
        <time>2019-07-18T13:09:33Z</time>
      </trkpt>
      <trkpt lat="45.50089" lon="6.74124">
        <ele>2256.8</ele>
        <time>2019-07-18T13:09:33Z</time>
      </trkpt>
      <trkpt lat="45.50108" lon="6.74099">
        <ele>2253.6</ele>
        <time>2019-07-18T13:09:33Z</time>
      </trkpt>
      <trkpt lat="45.50166" lon="6.73962">
        <ele>2234</ele>
        <time>2019-07-18T13:09:33Z</time>
      </trkpt>
      <trkpt lat="45.50179" lon="6.73957">
        <ele>2226.1</ele>
        <time>2019-07-18T13:09:33Z</time>
      </trkpt>
      <trkpt lat="45.50189" lon="6.73956">
        <ele>2228</ele>
        <time>2019-07-18T13:09:33Z</time>
      </trkpt>
      <trkpt lat="45.502" lon="6.73955">
        <ele>2219.7</ele>
        <time>2019-07-18T13:09:33Z</time>
      </trkpt>
      <trkpt lat="45.50212" lon="6.7395">
        <ele>2222</ele>
        <time>2019-07-18T13:09:33Z</time>
      </trkpt>
      <trkpt lat="45.50228" lon="6.73943">
        <ele>2213</ele>
        <time>2019-07-18T13:09:33Z</time>
      </trkpt>
      <trkpt lat="45.50239" lon="6.7394">
        <ele>2217</ele>
        <time>2019-07-18T13:09:33Z</time>
      </trkpt>
      <trkpt lat="45.50249" lon="6.73933">
        <ele>2206.5</ele>
        <time>2019-07-18T13:09:33Z</time>
      </trkpt>
      <trkpt lat="45.50258" lon="6.73941">
        <ele>2209</ele>
        <time>2019-07-18T13:09:33Z</time>
      </trkpt>
      <trkpt lat="45.50267" lon="6.73947">
        <ele>2197</ele>
        <time>2019-07-18T13:09:33Z</time>
      </trkpt>
      <trkpt lat="45.50275" lon="6.73957">
        <ele>2201</ele>
        <time>2019-07-18T13:09:33Z</time>
      </trkpt>
      <trkpt lat="45.50285" lon="6.73958">
        <ele>2189.2</ele>
        <time>2019-07-18T13:09:33Z</time>
      </trkpt>
      <trkpt lat="45.50295" lon="6.73948">
        <ele>2194</ele>
        <time>2019-07-18T13:09:33Z</time>
      </trkpt>
      <trkpt lat="45.50304" lon="6.73939">
        <ele>2183</ele>
        <time>2019-07-18T13:09:33Z</time>
      </trkpt>
      <trkpt lat="45.50313" lon="6.73931">
        <ele>2186</ele>
        <time>2019-07-18T13:09:33Z</time>
      </trkpt>
      <trkpt lat="45.50321" lon="6.73922">
        <ele>2176.5</ele>
        <time>2019-07-18T13:09:33Z</time>
      </trkpt>
      <trkpt lat="45.5033" lon="6.73903">
        <ele>2180</ele>
        <time>2019-07-18T13:09:33Z</time>
      </trkpt>
      <trkpt lat="45.5035" lon="6.73857">
        <ele>2160.8</ele>
        <time>2019-07-18T13:09:33Z</time>
      </trkpt>
      <trkpt lat="45.5036" lon="6.73859">
        <ele>2162</ele>
        <time>2019-07-18T13:09:33Z</time>
      </trkpt>
      <trkpt lat="45.50394" lon="6.73869">
        <ele>2149.5</ele>
        <time>2019-07-18T13:09:33Z</time>
      </trkpt>
      <trkpt lat="45.50405" lon="6.73864">
        <ele>2150</ele>
        <time>2019-07-18T13:09:33Z</time>
      </trkpt>
      <trkpt lat="45.50416" lon="6.7386">
        <ele>2144.4</ele>
        <time>2019-07-18T13:09:33Z</time>
      </trkpt>
      <trkpt lat="45.50427" lon="6.73853">
        <ele>2147</ele>
        <time>2019-07-18T13:09:33Z</time>
      </trkpt>
      <trkpt lat="45.50451" lon="6.73832">
        <ele>2140</ele>
        <time>2019-07-18T13:09:33Z</time>
      </trkpt>
      <trkpt lat="45.50462" lon="6.73826">
        <ele>2127.7</ele>
        <time>2019-07-18T13:09:33Z</time>
      </trkpt>
      <trkpt lat="45.50486" lon="6.73805">
        <ele>2117.7</ele>
        <time>2019-07-18T13:09:33Z</time>
      </trkpt>
      <trkpt lat="45.50495" lon="6.73803">
        <ele>2124</ele>
        <time>2019-07-18T13:09:33Z</time>
      </trkpt>
      <trkpt lat="45.50507" lon="6.73802">
        <ele>2109.5</ele>
        <time>2019-07-18T13:09:33Z</time>
      </trkpt>
      <trkpt lat="45.50526" lon="6.73825">
        <ele>2101.2</ele>
        <time>2019-07-18T13:09:33Z</time>
      </trkpt>
      <trkpt lat="45.50554" lon="6.73821">
        <ele>2099</ele>
        <time>2019-07-18T13:09:33Z</time>
      </trkpt>
      <trkpt lat="45.50575" lon="6.73829">
        <ele>2092</ele>
        <time>2019-07-18T13:09:33Z</time>
      </trkpt>
      <trkpt lat="45.50584" lon="6.7383">
        <ele>2076.3</ele>
        <time>2019-07-18T13:09:33Z</time>
      </trkpt>
      <trkpt lat="45.50589" lon="6.7382">
        <ele>2072.8</ele>
        <time>2019-07-18T13:09:33Z</time>
      </trkpt>
      <trkpt lat="45.50602" lon="6.73831">
        <ele>2068</ele>
        <time>2019-07-18T13:09:33Z</time>
      </trkpt>
      <trkpt lat="45.50608" lon="6.7384">
        <ele>2065.9</ele>
        <time>2019-07-18T13:09:33Z</time>
      </trkpt>
      <trkpt lat="45.50626" lon="6.73806">
        <ele>2063</ele>
        <time>2019-07-18T13:09:33Z</time>
      </trkpt>
      <trkpt lat="45.5063" lon="6.73817">
        <ele>2052.8</ele>
        <time>2019-07-18T13:09:33Z</time>
      </trkpt>
      <trkpt lat="45.50642" lon="6.73803">
        <ele>2048</ele>
        <time>2019-07-18T13:09:33Z</time>
      </trkpt>
      <trkpt lat="45.5064" lon="6.73787">
        <ele>2042.9</ele>
        <time>2019-07-18T13:09:33Z</time>
      </trkpt>
      <trkpt lat="45.50643" lon="6.73776">
        <ele>2045</ele>
        <time>2019-07-18T13:09:33Z</time>
      </trkpt>
      <trkpt lat="45.5063" lon="6.73748">
        <ele>2040</ele>
        <time>2019-07-18T13:09:33Z</time>
      </trkpt>
      <trkpt lat="45.50625" lon="6.73734">
        <ele>2033.2</ele>
        <time>2019-07-18T13:09:33Z</time>
      </trkpt>
      <trkpt lat="45.50617" lon="6.73727">
        <ele>2036</ele>
        <time>2019-07-18T13:09:33Z</time>
      </trkpt>
      <trkpt lat="45.50609" lon="6.73719">
        <ele>2032.1</ele>
        <time>2019-07-18T13:09:33Z</time>
      </trkpt>
      <trkpt lat="45.5061" lon="6.73704">
        <ele>2034</ele>
        <time>2019-07-18T13:09:33Z</time>
      </trkpt>
      <trkpt lat="45.50619" lon="6.73696">
        <ele>2019.6</ele>
        <time>2019-07-18T13:09:33Z</time>
      </trkpt>
      <trkpt lat="45.50628" lon="6.73686">
        <ele>2029</ele>
        <time>2019-07-18T13:09:33Z</time>
      </trkpt>
      <trkpt lat="45.50638" lon="6.73686">
        <ele>2011</ele>
        <time>2019-07-18T13:09:33Z</time>
      </trkpt>
      <trkpt lat="45.50644" lon="6.737">
        <ele>2018</ele>
        <time>2019-07-18T13:09:33Z</time>
      </trkpt>
      <trkpt lat="45.50651" lon="6.73713">
        <ele>2014</ele>
        <time>2019-07-18T13:09:33Z</time>
      </trkpt>
      <trkpt lat="45.50668" lon="6.73723">
        <ele>2005.7</ele>
        <time>2019-07-18T13:09:33Z</time>
      </trkpt>
      <trkpt lat="45.50677" lon="6.73731">
        <ele>2010</ele>
        <time>2019-07-18T13:09:33Z</time>
      </trkpt>
      <trkpt lat="45.50689" lon="6.73726">
        <ele>1996.4</ele>
        <time>2019-07-18T13:09:33Z</time>
      </trkpt>
      <trkpt lat="45.50693" lon="6.73713">
        <ele>2005</ele>
        <time>2019-07-18T13:09:33Z</time>
      </trkpt>
      <trkpt lat="45.50701" lon="6.73722">
        <ele>1988.9</ele>
        <time>2019-07-18T13:09:33Z</time>
      </trkpt>
      <trkpt lat="45.50708" lon="6.73733">
        <ele>1992</ele>
        <time>2019-07-18T13:09:33Z</time>
      </trkpt>
      <trkpt lat="45.50714" lon="6.73747">
        <ele>1984.9</ele>
        <time>2019-07-18T13:09:33Z</time>
      </trkpt>
      <trkpt lat="45.50719" lon="6.73735">
        <ele>1990</ele>
        <time>2019-07-18T13:09:33Z</time>
      </trkpt>
      <trkpt lat="45.50721" lon="6.73722">
        <ele>1976.7</ele>
        <time>2019-07-18T13:09:33Z</time>
      </trkpt>
      <trkpt lat="45.50723" lon="6.73709">
        <ele>1973.6</ele>
        <time>2019-07-18T13:09:33Z</time>
      </trkpt>
      <trkpt lat="45.50738" lon="6.73693">
        <ele>1962.4</ele>
        <time>2019-07-18T13:09:33Z</time>
      </trkpt>
      <trkpt lat="45.50745" lon="6.737">
        <ele>1972</ele>
        <time>2019-07-18T13:09:33Z</time>
      </trkpt>
      <trkpt lat="45.50752" lon="6.73709">
        <ele>1956.8</ele>
        <time>2019-07-18T13:09:33Z</time>
      </trkpt>
      <trkpt lat="45.50759" lon="6.73677">
        <ele>1946.9</ele>
        <time>2019-07-18T13:09:33Z</time>
      </trkpt>
      <trkpt lat="45.5077" lon="6.73693">
        <ele>1952</ele>
        <time>2019-07-18T13:09:33Z</time>
      </trkpt>
      <trkpt lat="45.50779" lon="6.73714">
        <ele>1940.3</ele>
        <time>2019-07-18T13:09:33Z</time>
      </trkpt>
      <trkpt lat="45.50785" lon="6.73705">
        <ele>1944</ele>
        <time>2019-07-18T13:09:33Z</time>
      </trkpt>
      <trkpt lat="45.50789" lon="6.73681">
        <ele>1932.9</ele>
        <time>2019-07-18T13:09:33Z</time>
      </trkpt>
      <trkpt lat="45.50799" lon="6.73684">
        <ele>1938</ele>
        <time>2019-07-18T13:09:33Z</time>
      </trkpt>
      <trkpt lat="45.50817" lon="6.73676">
        <ele>1928</ele>
        <time>2019-07-18T13:09:33Z</time>
      </trkpt>
      <trkpt lat="45.50826" lon="6.7367">
        <ele>1919</ele>
        <time>2019-07-18T13:09:33Z</time>
      </trkpt>
      <trkpt lat="45.50835" lon="6.73661">
        <ele>1922</ele>
        <time>2019-07-18T13:09:33Z</time>
      </trkpt>
      <trkpt lat="45.50843" lon="6.73652">
        <ele>1915.7</ele>
        <time>2019-07-18T13:09:33Z</time>
      </trkpt>
      <trkpt lat="45.50854" lon="6.73648">
        <ele>1916</ele>
        <time>2019-07-18T13:09:33Z</time>
      </trkpt>
      <trkpt lat="45.50867" lon="6.73648">
        <ele>1910</ele>
        <time>2019-07-18T13:09:33Z</time>
      </trkpt>
      <trkpt lat="45.50877" lon="6.73649">
        <ele>1913</ele>
        <time>2019-07-18T13:09:33Z</time>
      </trkpt>
      <trkpt lat="45.50889" lon="6.73649">
        <ele>1905</ele>
        <time>2019-07-18T13:09:33Z</time>
      </trkpt>
      <trkpt lat="45.50901" lon="6.73649">
        <ele>1907</ele>
        <time>2019-07-18T13:09:33Z</time>
      </trkpt>
      <trkpt lat="45.50912" lon="6.73653">
        <ele>1901.7</ele>
        <time>2019-07-18T13:09:33Z</time>
      </trkpt>
      <trkpt lat="45.50922" lon="6.73657">
        <ele>1903</ele>
        <time>2019-07-18T13:09:33Z</time>
      </trkpt>
      <trkpt lat="45.50973" lon="6.7367">
        <ele>1894.3</ele>
        <time>2019-07-18T13:09:33Z</time>
      </trkpt>
      <trkpt lat="45.50983" lon="6.73665">
        <ele>1894</ele>
        <time>2019-07-18T13:09:33Z</time>
      </trkpt>
      <trkpt lat="45.50999" lon="6.73658">
        <ele>1891.6</ele>
        <time>2019-07-18T13:09:33Z</time>
      </trkpt>
      <trkpt lat="45.51008" lon="6.73652">
        <ele>1892</ele>
        <time>2019-07-18T13:09:33Z</time>
      </trkpt>
      <trkpt lat="45.51016" lon="6.73647">
        <ele>1889.5</ele>
        <time>2019-07-18T13:09:33Z</time>
      </trkpt>
      <trkpt lat="45.51033" lon="6.73635">
        <ele>1889</ele>
        <time>2019-07-18T13:09:33Z</time>
      </trkpt>
      <trkpt lat="45.51042" lon="6.73631">
        <ele>1886.1</ele>
        <time>2019-07-18T13:09:33Z</time>
      </trkpt>
      <trkpt lat="45.51052" lon="6.73626">
        <ele>1886</ele>
        <time>2019-07-18T13:09:33Z</time>
      </trkpt>
      <trkpt lat="45.51061" lon="6.73624">
        <ele>1884.2</ele>
        <time>2019-07-18T13:09:33Z</time>
      </trkpt>
      <trkpt lat="45.5107" lon="6.73621">
        <ele>1882.9</ele>
        <time>2019-07-18T13:09:33Z</time>
      </trkpt>
      <trkpt lat="45.51079" lon="6.73616">
        <ele>1884</ele>
        <time>2019-07-18T13:09:33Z</time>
      </trkpt>
      <trkpt lat="45.51095" lon="6.73612">
        <ele>1878.9</ele>
        <time>2019-07-18T13:09:33Z</time>
      </trkpt>
      <trkpt lat="45.51104" lon="6.73611">
        <ele>1880</ele>
        <time>2019-07-18T13:09:33Z</time>
      </trkpt>
      <trkpt lat="45.51113" lon="6.73605">
        <ele>1876.1</ele>
        <time>2019-07-18T13:09:33Z</time>
      </trkpt>
      <trkpt lat="45.51122" lon="6.73598">
        <ele>1876</ele>
        <time>2019-07-18T13:09:33Z</time>
      </trkpt>
      <trkpt lat="45.51131" lon="6.7359">
        <ele>1873.9</ele>
        <time>2019-07-18T13:09:33Z</time>
      </trkpt>
      <trkpt lat="45.51143" lon="6.73585">
        <ele>1874</ele>
        <time>2019-07-18T13:09:33Z</time>
      </trkpt>
      <trkpt lat="45.51153" lon="6.73581">
        <ele>1871</ele>
        <time>2019-07-18T13:09:33Z</time>
      </trkpt>
      <trkpt lat="45.51162" lon="6.73577">
        <ele>1871</ele>
        <time>2019-07-18T13:09:33Z</time>
      </trkpt>
      <trkpt lat="45.51174" lon="6.73571">
        <ele>1869.5</ele>
        <time>2019-07-18T13:09:33Z</time>
      </trkpt>
      <trkpt lat="45.51187" lon="6.73564">
        <ele>1870</ele>
        <time>2019-07-18T13:09:33Z</time>
      </trkpt>
      <trkpt lat="45.51197" lon="6.7356">
        <ele>1867</ele>
        <time>2019-07-18T13:09:33Z</time>
      </trkpt>
      <trkpt lat="45.5121" lon="6.7356">
        <ele>1866</ele>
        <time>2019-07-18T13:09:33Z</time>
      </trkpt>
      <trkpt lat="45.51223" lon="6.73562">
        <ele>1864.4</ele>
        <time>2019-07-18T13:09:33Z</time>
      </trkpt>
      <trkpt lat="45.51234" lon="6.73566">
        <ele>1864</ele>
        <time>2019-07-18T13:09:33Z</time>
      </trkpt>
      <trkpt lat="45.51244" lon="6.73572">
        <ele>1861.9</ele>
        <time>2019-07-18T13:09:33Z</time>
      </trkpt>
      <trkpt lat="45.51253" lon="6.73578">
        <ele>1862</ele>
        <time>2019-07-18T13:09:33Z</time>
      </trkpt>
      <trkpt lat="45.51264" lon="6.73584">
        <ele>1859.7</ele>
        <time>2019-07-18T13:09:33Z</time>
      </trkpt>
      <trkpt lat="45.51293" lon="6.73597">
        <ele>1859</ele>
        <time>2019-07-18T13:09:33Z</time>
      </trkpt>
      <trkpt lat="45.51326" lon="6.73606">
        <ele>1858</ele>
        <time>2019-07-18T13:09:33Z</time>
      </trkpt>
      <trkpt lat="45.51368" lon="6.73605">
        <ele>1854.2</ele>
        <time>2019-07-18T13:09:33Z</time>
      </trkpt>
      <trkpt lat="45.51378" lon="6.73602">
        <ele>1855</ele>
        <time>2019-07-18T13:09:33Z</time>
      </trkpt>
      <trkpt lat="45.51396" lon="6.73597">
        <ele>1853.2</ele>
        <time>2019-07-18T13:09:33Z</time>
      </trkpt>
      <trkpt lat="45.51408" lon="6.73597">
        <ele>1852</ele>
        <time>2019-07-18T13:09:33Z</time>
      </trkpt>
      <trkpt lat="45.51419" lon="6.73606">
        <ele>1852.9</ele>
        <time>2019-07-18T13:09:33Z</time>
      </trkpt>
      <trkpt lat="45.51425" lon="6.73616">
        <ele>1850</ele>
        <time>2019-07-18T13:09:33Z</time>
      </trkpt>
      <trkpt lat="45.51452" lon="6.73642">
        <ele>1850</ele>
        <time>2019-07-18T13:09:33Z</time>
      </trkpt>
      <trkpt lat="45.51541" lon="6.73677">
        <ele>1845</ele>
        <time>2019-07-18T13:09:33Z</time>
      </trkpt>
      <trkpt lat="45.51557" lon="6.7368">
        <ele>1844.2</ele>
        <time>2019-07-18T13:09:33Z</time>
      </trkpt>
      <trkpt lat="45.5158" lon="6.73685">
        <ele>1841.5</ele>
        <time>2019-07-18T13:09:33Z</time>
      </trkpt>
      <trkpt lat="45.5159" lon="6.73689">
        <ele>1841</ele>
        <time>2019-07-18T13:09:33Z</time>
      </trkpt>
      <trkpt lat="45.51599" lon="6.73694">
        <ele>1839.7</ele>
        <time>2019-07-18T13:09:33Z</time>
      </trkpt>
      <trkpt lat="45.51612" lon="6.737">
        <ele>1839</ele>
        <time>2019-07-18T13:09:33Z</time>
      </trkpt>
      <trkpt lat="45.51621" lon="6.73705">
        <ele>1837.7</ele>
        <time>2019-07-18T13:09:33Z</time>
      </trkpt>
      <trkpt lat="45.51639" lon="6.73712">
        <ele>1838</ele>
        <time>2019-07-18T13:09:33Z</time>
      </trkpt>
      <trkpt lat="45.51713" lon="6.73733">
        <ele>1835.7</ele>
        <time>2019-07-18T13:09:33Z</time>
      </trkpt>
      <trkpt lat="45.51725" lon="6.73736">
        <ele>1834</ele>
        <time>2019-07-18T13:09:33Z</time>
      </trkpt>
      <trkpt lat="45.5176" lon="6.73754">
        <ele>1835</ele>
        <time>2019-07-18T13:09:33Z</time>
      </trkpt>
      <trkpt lat="45.5177" lon="6.7376">
        <ele>1834</ele>
        <time>2019-07-18T13:09:33Z</time>
      </trkpt>
      <trkpt lat="45.51779" lon="6.73767">
        <ele>1834.8</ele>
        <time>2019-07-18T13:09:33Z</time>
      </trkpt>
      <trkpt lat="45.51791" lon="6.73769">
        <ele>1834</ele>
        <time>2019-07-18T13:09:33Z</time>
      </trkpt>
      <trkpt lat="45.51802" lon="6.73768">
        <ele>1834.3</ele>
        <time>2019-07-18T13:09:33Z</time>
      </trkpt>
      <trkpt lat="45.51814" lon="6.73769">
        <ele>1833</ele>
        <time>2019-07-18T13:09:33Z</time>
      </trkpt>
      <trkpt lat="45.51826" lon="6.73772">
        <ele>1831.9</ele>
        <time>2019-07-18T13:09:33Z</time>
      </trkpt>
      <trkpt lat="45.51838" lon="6.73775">
        <ele>1833</ele>
        <time>2019-07-18T13:09:33Z</time>
      </trkpt>
      <trkpt lat="45.5185" lon="6.73774">
        <ele>1829.3</ele>
        <time>2019-07-18T13:09:33Z</time>
      </trkpt>
      <trkpt lat="45.51859" lon="6.73772">
        <ele>1830</ele>
        <time>2019-07-18T13:09:33Z</time>
      </trkpt>
      <trkpt lat="45.51871" lon="6.73769">
        <ele>1826.9</ele>
        <time>2019-07-18T13:09:33Z</time>
      </trkpt>
      <trkpt lat="45.51883" lon="6.73765">
        <ele>1828</ele>
        <time>2019-07-18T13:09:33Z</time>
      </trkpt>
      <trkpt lat="45.51895" lon="6.73762">
        <ele>1824.5</ele>
        <time>2019-07-18T13:09:33Z</time>
      </trkpt>
      <trkpt lat="45.51908" lon="6.73759">
        <ele>1824</ele>
        <time>2019-07-18T13:09:33Z</time>
      </trkpt>
      <trkpt lat="45.51918" lon="6.73757">
        <ele>1821.1</ele>
        <time>2019-07-18T13:09:33Z</time>
      </trkpt>
      <trkpt lat="45.51929" lon="6.73749">
        <ele>1820</ele>
        <time>2019-07-18T13:09:33Z</time>
      </trkpt>
      <trkpt lat="45.51939" lon="6.73744">
        <ele>1820.4</ele>
        <time>2019-07-18T13:09:33Z</time>
      </trkpt>
      <trkpt lat="45.51951" lon="6.73742">
        <ele>1818</ele>
        <time>2019-07-18T13:09:33Z</time>
      </trkpt>
      <trkpt lat="45.51963" lon="6.73739">
        <ele>1820</ele>
        <time>2019-07-18T13:09:33Z</time>
      </trkpt>
      <trkpt lat="45.51975" lon="6.73734">
        <ele>1818</ele>
        <time>2019-07-18T13:09:33Z</time>
      </trkpt>
      <trkpt lat="45.51986" lon="6.7373">
        <ele>1819.1</ele>
        <time>2019-07-18T13:09:33Z</time>
      </trkpt>
      <trkpt lat="45.51997" lon="6.73728">
        <ele>1817</ele>
        <time>2019-07-18T13:09:33Z</time>
      </trkpt>
      <trkpt lat="45.52008" lon="6.73729">
        <ele>1816.9</ele>
        <time>2019-07-18T13:09:33Z</time>
      </trkpt>
      <trkpt lat="45.52019" lon="6.73732">
        <ele>1817</ele>
        <time>2019-07-18T13:09:33Z</time>
      </trkpt>
      <trkpt lat="45.52031" lon="6.73736">
        <ele>1814.2</ele>
        <time>2019-07-18T13:09:33Z</time>
      </trkpt>
      <trkpt lat="45.52042" lon="6.73726">
        <ele>1815</ele>
        <time>2019-07-18T13:09:33Z</time>
      </trkpt>
      <trkpt lat="45.5205" lon="6.73713">
        <ele>1811.9</ele>
        <time>2019-07-18T13:09:33Z</time>
      </trkpt>
      <trkpt lat="45.52058" lon="6.73702">
        <ele>1813</ele>
        <time>2019-07-18T13:09:33Z</time>
      </trkpt>
      <trkpt lat="45.52067" lon="6.73695">
        <ele>1809.9</ele>
        <time>2019-07-18T13:09:33Z</time>
      </trkpt>
      <trkpt lat="45.52078" lon="6.73692">
        <ele>1810</ele>
        <time>2019-07-18T13:09:33Z</time>
      </trkpt>
      <trkpt lat="45.52088" lon="6.73694">
        <ele>1807.1</ele>
        <time>2019-07-18T13:09:33Z</time>
      </trkpt>
      <trkpt lat="45.52099" lon="6.73697">
        <ele>1808</ele>
        <time>2019-07-18T13:09:33Z</time>
      </trkpt>
      <trkpt lat="45.5211" lon="6.73702">
        <ele>1805.7</ele>
        <time>2019-07-18T13:09:33Z</time>
      </trkpt>
      <trkpt lat="45.52119" lon="6.73713">
        <ele>1805</ele>
        <time>2019-07-18T13:09:33Z</time>
      </trkpt>
      <trkpt lat="45.52125" lon="6.73728">
        <ele>1802</ele>
        <time>2019-07-18T13:09:33Z</time>
      </trkpt>
      <trkpt lat="45.52132" lon="6.73742">
        <ele>1802</ele>
        <time>2019-07-18T13:09:33Z</time>
      </trkpt>
      <trkpt lat="45.52137" lon="6.73755">
        <ele>1799.3</ele>
        <time>2019-07-18T13:09:33Z</time>
      </trkpt>
      <trkpt lat="45.52143" lon="6.73768">
        <ele>1799</ele>
        <time>2019-07-18T13:09:33Z</time>
      </trkpt>
      <trkpt lat="45.52149" lon="6.73781">
        <ele>1796.4</ele>
        <time>2019-07-18T13:09:33Z</time>
      </trkpt>
      <trkpt lat="45.52156" lon="6.73792">
        <ele>1797</ele>
        <time>2019-07-18T13:09:33Z</time>
      </trkpt>
      <trkpt lat="45.52163" lon="6.73804">
        <ele>1794.9</ele>
        <time>2019-07-18T13:09:33Z</time>
      </trkpt>
      <trkpt lat="45.52173" lon="6.73813">
        <ele>1795</ele>
        <time>2019-07-18T13:09:33Z</time>
      </trkpt>
      <trkpt lat="45.52183" lon="6.7382">
        <ele>1793.3</ele>
        <time>2019-07-18T13:09:33Z</time>
      </trkpt>
      <trkpt lat="45.52193" lon="6.73825">
        <ele>1792</ele>
        <time>2019-07-18T13:09:33Z</time>
      </trkpt>
      <trkpt lat="45.52204" lon="6.73833">
        <ele>1792</ele>
        <time>2019-07-18T13:09:33Z</time>
      </trkpt>
      <trkpt lat="45.52213" lon="6.73839">
        <ele>1791</ele>
        <time>2019-07-18T13:09:33Z</time>
      </trkpt>
      <trkpt lat="45.5222" lon="6.73852">
        <ele>1790.7</ele>
        <time>2019-07-18T13:09:33Z</time>
      </trkpt>
      <trkpt lat="45.5223" lon="6.73861">
        <ele>1789</ele>
        <time>2019-07-18T13:09:33Z</time>
      </trkpt>
      <trkpt lat="45.52241" lon="6.73856">
        <ele>1789.1</ele>
        <time>2019-07-18T13:09:33Z</time>
      </trkpt>
      <trkpt lat="45.52254" lon="6.73856">
        <ele>1787</ele>
        <time>2019-07-18T13:09:33Z</time>
      </trkpt>
      <trkpt lat="45.52264" lon="6.7386">
        <ele>1788.1</ele>
        <time>2019-07-18T13:09:33Z</time>
      </trkpt>
      <trkpt lat="45.52273" lon="6.73869">
        <ele>1785</ele>
        <time>2019-07-18T13:09:33Z</time>
      </trkpt>
      <trkpt lat="45.52281" lon="6.73878">
        <ele>1784.7</ele>
        <time>2019-07-18T13:09:33Z</time>
      </trkpt>
      <trkpt lat="45.52288" lon="6.73888">
        <ele>1783</ele>
        <time>2019-07-18T13:09:33Z</time>
      </trkpt>
      <trkpt lat="45.52295" lon="6.73899">
        <ele>1782.7</ele>
        <time>2019-07-18T13:09:33Z</time>
      </trkpt>
      <trkpt lat="45.52303" lon="6.7391">
        <ele>1780</ele>
        <time>2019-07-18T13:09:33Z</time>
      </trkpt>
      <trkpt lat="45.5231" lon="6.73921">
        <ele>1779.8</ele>
        <time>2019-07-18T13:09:33Z</time>
      </trkpt>
      <trkpt lat="45.52317" lon="6.73934">
        <ele>1778</ele>
        <time>2019-07-18T13:09:33Z</time>
      </trkpt>
      <trkpt lat="45.52324" lon="6.73945">
        <ele>1777</ele>
        <time>2019-07-18T13:09:33Z</time>
      </trkpt>
      <trkpt lat="45.52331" lon="6.73956">
        <ele>1776</ele>
        <time>2019-07-18T13:09:33Z</time>
      </trkpt>
      <trkpt lat="45.52339" lon="6.73966">
        <ele>1774.7</ele>
        <time>2019-07-18T13:09:33Z</time>
      </trkpt>
      <trkpt lat="45.52348" lon="6.73974">
        <ele>1774</ele>
        <time>2019-07-18T13:09:33Z</time>
      </trkpt>
      <trkpt lat="45.52358" lon="6.7398">
        <ele>1773.7</ele>
        <time>2019-07-18T13:09:33Z</time>
      </trkpt>
      <trkpt lat="45.5237" lon="6.73982">
        <ele>1773</ele>
        <time>2019-07-18T13:09:33Z</time>
      </trkpt>
      <trkpt lat="45.5238" lon="6.73981">
        <ele>1772.9</ele>
        <time>2019-07-18T13:09:33Z</time>
      </trkpt>
      <trkpt lat="45.5239" lon="6.7398">
        <ele>1772</ele>
        <time>2019-07-18T13:09:33Z</time>
      </trkpt>
      <trkpt lat="45.52401" lon="6.73978">
        <ele>1771.6</ele>
        <time>2019-07-18T13:09:33Z</time>
      </trkpt>
      <trkpt lat="45.52413" lon="6.73976">
        <ele>1771</ele>
        <time>2019-07-18T13:09:33Z</time>
      </trkpt>
      <trkpt lat="45.52426" lon="6.73973">
        <ele>1770.3</ele>
        <time>2019-07-18T13:09:33Z</time>
      </trkpt>
      <trkpt lat="45.52437" lon="6.73969">
        <ele>1770</ele>
        <time>2019-07-18T13:09:33Z</time>
      </trkpt>
      <trkpt lat="45.52447" lon="6.73967">
        <ele>1773.1</ele>
        <time>2019-07-18T13:09:33Z</time>
      </trkpt>
      <trkpt lat="45.52458" lon="6.73967">
        <ele>1770</ele>
        <time>2019-07-18T13:09:33Z</time>
      </trkpt>
      <trkpt lat="45.5247" lon="6.73967">
        <ele>1773.2</ele>
        <time>2019-07-18T13:09:33Z</time>
      </trkpt>
      <trkpt lat="45.5248" lon="6.73964">
        <ele>1769</ele>
        <time>2019-07-18T13:09:33Z</time>
      </trkpt>
      <trkpt lat="45.52492" lon="6.7396">
        <ele>1771.7</ele>
        <time>2019-07-18T13:09:33Z</time>
      </trkpt>
      <trkpt lat="45.52502" lon="6.73955">
        <ele>1770</ele>
        <time>2019-07-18T13:09:33Z</time>
      </trkpt>
      <trkpt lat="45.52512" lon="6.73949">
        <ele>1773.2</ele>
        <time>2019-07-18T13:09:33Z</time>
      </trkpt>
      <trkpt lat="45.52522" lon="6.73946">
        <ele>1772</ele>
        <time>2019-07-18T13:09:33Z</time>
      </trkpt>
      <trkpt lat="45.52532" lon="6.73945">
        <ele>1773.1</ele>
        <time>2019-07-18T13:09:33Z</time>
      </trkpt>
      <trkpt lat="45.52542" lon="6.73943">
        <ele>1772</ele>
        <time>2019-07-18T13:09:33Z</time>
      </trkpt>
      <trkpt lat="45.52553" lon="6.73939">
        <ele>1773.2</ele>
        <time>2019-07-18T13:09:33Z</time>
      </trkpt>
      <trkpt lat="45.52564" lon="6.73941">
        <ele>1772</ele>
        <time>2019-07-18T13:09:33Z</time>
      </trkpt>
      <trkpt lat="45.52574" lon="6.7394">
        <ele>1770.4</ele>
        <time>2019-07-18T13:09:33Z</time>
      </trkpt>
      <trkpt lat="45.52585" lon="6.73937">
        <ele>1773</ele>
        <time>2019-07-18T13:09:33Z</time>
      </trkpt>
      <trkpt lat="45.52596" lon="6.73934">
        <ele>1771.7</ele>
        <time>2019-07-18T13:09:33Z</time>
      </trkpt>
      <trkpt lat="45.52606" lon="6.73933">
        <ele>1774</ele>
        <time>2019-07-18T13:09:33Z</time>
      </trkpt>
      <trkpt lat="45.52618" lon="6.73936">
        <ele>1769.7</ele>
        <time>2019-07-18T13:09:33Z</time>
      </trkpt>
      <trkpt lat="45.5263" lon="6.7394">
        <ele>1772</ele>
        <time>2019-07-18T13:09:33Z</time>
      </trkpt>
      <trkpt lat="45.52642" lon="6.73945">
        <ele>1766.7</ele>
        <time>2019-07-18T13:09:33Z</time>
      </trkpt>
      <trkpt lat="45.52651" lon="6.73954">
        <ele>1771</ele>
        <time>2019-07-18T13:09:33Z</time>
      </trkpt>
      <trkpt lat="45.52661" lon="6.73962">
        <ele>1763.3</ele>
        <time>2019-07-18T13:09:33Z</time>
      </trkpt>
      <trkpt lat="45.52672" lon="6.73969">
        <ele>1768</ele>
        <time>2019-07-18T13:09:33Z</time>
      </trkpt>
      <trkpt lat="45.52683" lon="6.73975">
        <ele>1761.8</ele>
        <time>2019-07-18T13:09:33Z</time>
      </trkpt>
      <trkpt lat="45.52694" lon="6.73984">
        <ele>1764</ele>
        <time>2019-07-18T13:09:33Z</time>
      </trkpt>
      <trkpt lat="45.52703" lon="6.73996">
        <ele>1755.9</ele>
        <time>2019-07-18T13:09:33Z</time>
      </trkpt>
      <trkpt lat="45.52713" lon="6.74005">
        <ele>1762</ele>
        <time>2019-07-18T13:09:33Z</time>
      </trkpt>
      <trkpt lat="45.52722" lon="6.74011">
        <ele>1751.6</ele>
        <time>2019-07-18T13:09:33Z</time>
      </trkpt>
      <trkpt lat="45.52732" lon="6.74022">
        <ele>1755</ele>
        <time>2019-07-18T13:09:33Z</time>
      </trkpt>
      <trkpt lat="45.52743" lon="6.74028">
        <ele>1748.7</ele>
        <time>2019-07-18T13:09:33Z</time>
      </trkpt>
      <trkpt lat="45.52751" lon="6.74037">
        <ele>1751</ele>
        <time>2019-07-18T13:09:33Z</time>
      </trkpt>
      <trkpt lat="45.52759" lon="6.74047">
        <ele>1746.1</ele>
        <time>2019-07-18T13:09:33Z</time>
      </trkpt>
      <trkpt lat="45.52768" lon="6.74056">
        <ele>1747</ele>
        <time>2019-07-18T13:09:33Z</time>
      </trkpt>
      <trkpt lat="45.52777" lon="6.74064">
        <ele>1742.6</ele>
        <time>2019-07-18T13:09:33Z</time>
      </trkpt>
      <trkpt lat="45.52787" lon="6.7407">
        <ele>1745</ele>
        <time>2019-07-18T13:09:33Z</time>
      </trkpt>
      <trkpt lat="45.528" lon="6.74068">
        <ele>1741.4</ele>
        <time>2019-07-18T13:09:33Z</time>
      </trkpt>
      <trkpt lat="45.52811" lon="6.74069">
        <ele>1746</ele>
        <time>2019-07-18T13:09:33Z</time>
      </trkpt>
      <trkpt lat="45.52822" lon="6.74073">
        <ele>1744</ele>
        <time>2019-07-18T13:09:33Z</time>
      </trkpt>
      <trkpt lat="45.5283" lon="6.74083">
        <ele>1745</ele>
        <time>2019-07-18T13:09:33Z</time>
      </trkpt>
      <trkpt lat="45.52836" lon="6.74095">
        <ele>1737</ele>
        <time>2019-07-18T13:09:33Z</time>
      </trkpt>
      <trkpt lat="45.52847" lon="6.74103">
        <ele>1745</ele>
        <time>2019-07-18T13:09:33Z</time>
      </trkpt>
      <trkpt lat="45.5286" lon="6.74106">
        <ele>1738.6</ele>
        <time>2019-07-18T13:09:33Z</time>
      </trkpt>
      <trkpt lat="45.52873" lon="6.74109">
        <ele>1742</ele>
        <time>2019-07-18T13:09:33Z</time>
      </trkpt>
      <trkpt lat="45.52886" lon="6.74114">
        <ele>1735.3</ele>
        <time>2019-07-18T13:09:33Z</time>
      </trkpt>
      <trkpt lat="45.52899" lon="6.74121">
        <ele>1740</ele>
        <time>2019-07-18T13:09:33Z</time>
      </trkpt>
      <trkpt lat="45.52908" lon="6.74127">
        <ele>1731.3</ele>
        <time>2019-07-18T13:09:33Z</time>
      </trkpt>
      <trkpt lat="45.52921" lon="6.74131">
        <ele>1737</ele>
        <time>2019-07-18T13:09:33Z</time>
      </trkpt>
      <trkpt lat="45.52933" lon="6.74131">
        <ele>1733.5</ele>
        <time>2019-07-18T13:09:33Z</time>
      </trkpt>
      <trkpt lat="45.52945" lon="6.74135">
        <ele>1737</ele>
        <time>2019-07-18T13:09:33Z</time>
      </trkpt>
      <trkpt lat="45.52956" lon="6.74142">
        <ele>1732.4</ele>
        <time>2019-07-18T13:09:33Z</time>
      </trkpt>
      <trkpt lat="45.52965" lon="6.74149">
        <ele>1737</ele>
        <time>2019-07-18T13:09:33Z</time>
      </trkpt>
      <trkpt lat="45.52976" lon="6.74163">
        <ele>1728.5</ele>
        <time>2019-07-18T13:09:33Z</time>
      </trkpt>
      <trkpt lat="45.52985" lon="6.74178">
        <ele>1732</ele>
        <time>2019-07-18T13:09:33Z</time>
      </trkpt>
      <trkpt lat="45.52993" lon="6.74192">
        <ele>1726.2</ele>
        <time>2019-07-18T13:09:33Z</time>
      </trkpt>
      <trkpt lat="45.52998" lon="6.74205">
        <ele>1726</ele>
        <time>2019-07-18T13:09:33Z</time>
      </trkpt>
      <trkpt lat="45.53004" lon="6.74215">
        <ele>1725.1</ele>
        <time>2019-07-18T13:09:33Z</time>
      </trkpt>
      <trkpt lat="45.53013" lon="6.74229">
        <ele>1722</ele>
        <time>2019-07-18T13:09:33Z</time>
      </trkpt>
      <trkpt lat="45.53023" lon="6.74234">
        <ele>1726.3</ele>
        <time>2019-07-18T13:09:33Z</time>
      </trkpt>
      <trkpt lat="45.53033" lon="6.74238">
        <ele>1723</ele>
        <time>2019-07-18T13:09:33Z</time>
      </trkpt>
      <trkpt lat="45.53044" lon="6.74241">
        <ele>1728.7</ele>
        <time>2019-07-18T13:09:33Z</time>
      </trkpt>
      <trkpt lat="45.53056" lon="6.74244">
        <ele>1725</ele>
        <time>2019-07-18T13:09:33Z</time>
      </trkpt>
      <trkpt lat="45.53068" lon="6.74248">
        <ele>1728.8</ele>
        <time>2019-07-18T13:09:33Z</time>
      </trkpt>
      <trkpt lat="45.53078" lon="6.74249">
        <ele>1727</ele>
        <time>2019-07-18T13:09:33Z</time>
      </trkpt>
      <trkpt lat="45.53092" lon="6.74245">
        <ele>1731.1</ele>
        <time>2019-07-18T13:09:33Z</time>
      </trkpt>
      <trkpt lat="45.53104" lon="6.74247">
        <ele>1728</ele>
        <time>2019-07-18T13:09:33Z</time>
      </trkpt>
      <trkpt lat="45.53116" lon="6.74249">
        <ele>1729</ele>
        <time>2019-07-18T13:09:33Z</time>
      </trkpt>
      <trkpt lat="45.53126" lon="6.74257">
        <ele>1728</ele>
        <time>2019-07-18T13:09:33Z</time>
      </trkpt>
      <trkpt lat="45.53137" lon="6.74266">
        <ele>1726.1</ele>
        <time>2019-07-18T13:09:33Z</time>
      </trkpt>
      <trkpt lat="45.53146" lon="6.74281">
        <ele>1728</ele>
        <time>2019-07-18T13:09:33Z</time>
      </trkpt>
      <trkpt lat="45.53156" lon="6.74293">
        <ele>1724.9</ele>
        <time>2019-07-18T13:09:33Z</time>
      </trkpt>
      <trkpt lat="45.53165" lon="6.74303">
        <ele>1724</ele>
        <time>2019-07-18T13:09:33Z</time>
      </trkpt>
      <trkpt lat="45.53175" lon="6.7431">
        <ele>1725</ele>
        <time>2019-07-18T13:09:33Z</time>
      </trkpt>
      <trkpt lat="45.53185" lon="6.74322">
        <ele>1721</ele>
        <time>2019-07-18T13:09:33Z</time>
      </trkpt>
      <trkpt lat="45.53194" lon="6.74333">
        <ele>1723</ele>
        <time>2019-07-18T13:09:33Z</time>
      </trkpt>
      <trkpt lat="45.53204" lon="6.74343">
        <ele>1721</ele>
        <time>2019-07-18T13:09:33Z</time>
      </trkpt>
      <trkpt lat="45.53212" lon="6.74354">
        <ele>1721.1</ele>
        <time>2019-07-18T13:09:33Z</time>
      </trkpt>
      <trkpt lat="45.53221" lon="6.74369">
        <ele>1719</ele>
        <time>2019-07-18T13:09:33Z</time>
      </trkpt>
      <trkpt lat="45.53226" lon="6.74382">
        <ele>1719.4</ele>
        <time>2019-07-18T13:09:33Z</time>
      </trkpt>
      <trkpt lat="45.53234" lon="6.74397">
        <ele>1717</ele>
        <time>2019-07-18T13:09:33Z</time>
      </trkpt>
      <trkpt lat="45.53241" lon="6.74411">
        <ele>1717.5</ele>
        <time>2019-07-18T13:09:33Z</time>
      </trkpt>
      <trkpt lat="45.5325" lon="6.7442">
        <ele>1715</ele>
        <time>2019-07-18T13:09:33Z</time>
      </trkpt>
      <trkpt lat="45.5326" lon="6.74427">
        <ele>1715.6</ele>
        <time>2019-07-18T13:09:33Z</time>
      </trkpt>
      <trkpt lat="45.53271" lon="6.74428">
        <ele>1712</ele>
        <time>2019-07-18T13:09:33Z</time>
      </trkpt>
      <trkpt lat="45.53282" lon="6.7443">
        <ele>1717.5</ele>
        <time>2019-07-18T13:09:33Z</time>
      </trkpt>
      <trkpt lat="45.53293" lon="6.74429">
        <ele>1712</ele>
        <time>2019-07-18T13:09:33Z</time>
      </trkpt>
      <trkpt lat="45.53303" lon="6.74426">
        <ele>1721.1</ele>
        <time>2019-07-18T13:09:33Z</time>
      </trkpt>
      <trkpt lat="45.53314" lon="6.74424">
        <ele>1715</ele>
        <time>2019-07-18T13:09:33Z</time>
      </trkpt>
      <trkpt lat="45.53324" lon="6.74424">
        <ele>1723</ele>
        <time>2019-07-18T13:09:33Z</time>
      </trkpt>
      <trkpt lat="45.53336" lon="6.74427">
        <ele>1719</ele>
        <time>2019-07-18T13:09:33Z</time>
      </trkpt>
      <trkpt lat="45.53347" lon="6.74428">
        <ele>1723.3</ele>
        <time>2019-07-18T13:09:33Z</time>
      </trkpt>
      <trkpt lat="45.53359" lon="6.74435">
        <ele>1722</ele>
        <time>2019-07-18T13:09:33Z</time>
      </trkpt>
      <trkpt lat="45.53369" lon="6.74446">
        <ele>1717.9</ele>
        <time>2019-07-18T13:09:33Z</time>
      </trkpt>
      <trkpt lat="45.5338" lon="6.74454">
        <ele>1722</ele>
        <time>2019-07-18T13:09:33Z</time>
      </trkpt>
      <trkpt lat="45.53392" lon="6.74464">
        <ele>1717.6</ele>
        <time>2019-07-18T13:09:33Z</time>
      </trkpt>
      <trkpt lat="45.53403" lon="6.74466">
        <ele>1716</ele>
        <time>2019-07-18T13:09:33Z</time>
      </trkpt>
      <trkpt lat="45.53414" lon="6.74468">
        <ele>1717.9</ele>
        <time>2019-07-18T13:09:33Z</time>
      </trkpt>
      <trkpt lat="45.53425" lon="6.74472">
        <ele>1713</ele>
        <time>2019-07-18T13:09:33Z</time>
      </trkpt>
      <trkpt lat="45.53437" lon="6.74473">
        <ele>1717</ele>
        <time>2019-07-18T13:09:33Z</time>
      </trkpt>
      <trkpt lat="45.53449" lon="6.74475">
        <ele>1713</ele>
        <time>2019-07-18T13:09:33Z</time>
      </trkpt>
      <trkpt lat="45.53461" lon="6.74473">
        <ele>1717.1</ele>
        <time>2019-07-18T13:09:33Z</time>
      </trkpt>
      <trkpt lat="45.53474" lon="6.74471">
        <ele>1713</ele>
        <time>2019-07-18T13:09:33Z</time>
      </trkpt>
      <trkpt lat="45.53485" lon="6.74469">
        <ele>1717.2</ele>
        <time>2019-07-18T13:09:33Z</time>
      </trkpt>
      <trkpt lat="45.53495" lon="6.74465">
        <ele>1716</ele>
        <time>2019-07-18T13:09:33Z</time>
      </trkpt>
      <trkpt lat="45.53507" lon="6.74463">
        <ele>1718.4</ele>
        <time>2019-07-18T13:09:33Z</time>
      </trkpt>
      <trkpt lat="45.53519" lon="6.74464">
        <ele>1721</ele>
        <time>2019-07-18T13:09:33Z</time>
      </trkpt>
      <trkpt lat="45.53531" lon="6.74466">
        <ele>1716.3</ele>
        <time>2019-07-18T13:09:33Z</time>
      </trkpt>
      <trkpt lat="45.53542" lon="6.74468">
        <ele>1721</ele>
        <time>2019-07-18T13:09:33Z</time>
      </trkpt>
      <trkpt lat="45.53554" lon="6.74474">
        <ele>1713.4</ele>
        <time>2019-07-18T13:09:33Z</time>
      </trkpt>
      <trkpt lat="45.53564" lon="6.74483">
        <ele>1719</ele>
        <time>2019-07-18T13:09:33Z</time>
      </trkpt>
      <trkpt lat="45.53572" lon="6.74491">
        <ele>1710.6</ele>
        <time>2019-07-18T13:09:33Z</time>
      </trkpt>
      <trkpt lat="45.53584" lon="6.74496">
        <ele>1714</ele>
        <time>2019-07-18T13:09:33Z</time>
      </trkpt>
      <trkpt lat="45.53595" lon="6.745">
        <ele>1709.4</ele>
        <time>2019-07-18T13:09:33Z</time>
      </trkpt>
      <trkpt lat="45.53607" lon="6.74503">
        <ele>1712</ele>
        <time>2019-07-18T13:09:33Z</time>
      </trkpt>
      <trkpt lat="45.5362" lon="6.7451">
        <ele>1709.5</ele>
        <time>2019-07-18T13:09:33Z</time>
      </trkpt>
      <trkpt lat="45.53629" lon="6.74517">
        <ele>1711</ele>
        <time>2019-07-18T13:09:33Z</time>
      </trkpt>
      <trkpt lat="45.5364" lon="6.74523">
        <ele>1710.1</ele>
        <time>2019-07-18T13:09:33Z</time>
      </trkpt>
      <trkpt lat="45.5365" lon="6.74533">
        <ele>1711</ele>
        <time>2019-07-18T13:09:33Z</time>
      </trkpt>
      <trkpt lat="45.53659" lon="6.74543">
        <ele>1710</ele>
        <time>2019-07-18T13:09:33Z</time>
      </trkpt>
      <trkpt lat="45.5367" lon="6.74551">
        <ele>1711</ele>
        <time>2019-07-18T13:09:33Z</time>
      </trkpt>
      <trkpt lat="45.53679" lon="6.7456">
        <ele>1709.9</ele>
        <time>2019-07-18T13:09:33Z</time>
      </trkpt>
      <trkpt lat="45.5369" lon="6.74567">
        <ele>1710</ele>
        <time>2019-07-18T13:09:33Z</time>
      </trkpt>
      <trkpt lat="45.53699" lon="6.74573">
        <ele>1708.4</ele>
        <time>2019-07-18T13:09:33Z</time>
      </trkpt>
      <trkpt lat="45.5371" lon="6.74576">
        <ele>1709</ele>
        <time>2019-07-18T13:09:33Z</time>
      </trkpt>
      <trkpt lat="45.53721" lon="6.74578">
        <ele>1709.3</ele>
        <time>2019-07-18T13:09:33Z</time>
      </trkpt>
      <trkpt lat="45.53731" lon="6.7458">
        <ele>1709</ele>
        <time>2019-07-18T13:09:33Z</time>
      </trkpt>
      <trkpt lat="45.53741" lon="6.74581">
        <ele>1711.5</ele>
        <time>2019-07-18T13:09:33Z</time>
      </trkpt>
      <trkpt lat="45.53752" lon="6.74585">
        <ele>1710</ele>
        <time>2019-07-18T13:09:33Z</time>
      </trkpt>
      <trkpt lat="45.53764" lon="6.74589">
        <ele>1712.3</ele>
        <time>2019-07-18T13:09:33Z</time>
      </trkpt>
      <trkpt lat="45.53775" lon="6.74594">
        <ele>1710</ele>
        <time>2019-07-18T13:09:33Z</time>
      </trkpt>
      <trkpt lat="45.53784" lon="6.74601">
        <ele>1710.1</ele>
        <time>2019-07-18T13:09:33Z</time>
      </trkpt>
      <trkpt lat="45.53796" lon="6.74609">
        <ele>1707</ele>
        <time>2019-07-18T13:09:33Z</time>
      </trkpt>
      <trkpt lat="45.53806" lon="6.74607">
        <ele>1708.4</ele>
        <time>2019-07-18T13:09:33Z</time>
      </trkpt>
      <trkpt lat="45.53818" lon="6.74605">
        <ele>1706</ele>
        <time>2019-07-18T13:09:33Z</time>
      </trkpt>
      <trkpt lat="45.5383" lon="6.74602">
        <ele>1707.6</ele>
        <time>2019-07-18T13:09:33Z</time>
      </trkpt>
      <trkpt lat="45.5384" lon="6.74603">
        <ele>1706</ele>
        <time>2019-07-18T13:09:33Z</time>
      </trkpt>
      <trkpt lat="45.53853" lon="6.74602">
        <ele>1706.1</ele>
        <time>2019-07-18T13:09:33Z</time>
      </trkpt>
      <trkpt lat="45.53863" lon="6.74604">
        <ele>1706</ele>
        <time>2019-07-18T13:09:33Z</time>
      </trkpt>
      <trkpt lat="45.53873" lon="6.74604">
        <ele>1704.7</ele>
        <time>2019-07-18T13:09:33Z</time>
      </trkpt>
      <trkpt lat="45.53883" lon="6.74602">
        <ele>1703</ele>
        <time>2019-07-18T13:09:33Z</time>
      </trkpt>
      <trkpt lat="45.53893" lon="6.74603">
        <ele>1705.3</ele>
        <time>2019-07-18T13:09:33Z</time>
      </trkpt>
      <trkpt lat="45.53906" lon="6.74604">
        <ele>1703</ele>
        <time>2019-07-18T13:09:33Z</time>
      </trkpt>
      <trkpt lat="45.53919" lon="6.746">
        <ele>1703.8</ele>
        <time>2019-07-18T13:09:33Z</time>
      </trkpt>
      <trkpt lat="45.5393" lon="6.74596">
        <ele>1701</ele>
        <time>2019-07-18T13:09:33Z</time>
      </trkpt>
      <trkpt lat="45.53941" lon="6.74591">
        <ele>1699.4</ele>
        <time>2019-07-18T13:09:33Z</time>
      </trkpt>
      <trkpt lat="45.53952" lon="6.74586">
        <ele>1701</ele>
        <time>2019-07-18T13:09:33Z</time>
      </trkpt>
      <trkpt lat="45.53963" lon="6.74586">
        <ele>1696.7</ele>
        <time>2019-07-18T13:09:33Z</time>
      </trkpt>
      <trkpt lat="45.53975" lon="6.74582">
        <ele>1701</ele>
        <time>2019-07-18T13:09:33Z</time>
      </trkpt>
      <trkpt lat="45.53985" lon="6.74585">
        <ele>1698.1</ele>
        <time>2019-07-18T13:09:33Z</time>
      </trkpt>
      <trkpt lat="45.53996" lon="6.74586">
        <ele>1699</ele>
        <time>2019-07-18T13:09:33Z</time>
      </trkpt>
      <trkpt lat="45.54006" lon="6.74598">
        <ele>1698.2</ele>
        <time>2019-07-18T13:09:33Z</time>
      </trkpt>
      <trkpt lat="45.54013" lon="6.74608">
        <ele>1698</ele>
        <time>2019-07-18T13:09:33Z</time>
      </trkpt>
      <trkpt lat="45.54024" lon="6.74615">
        <ele>1696.6</ele>
        <time>2019-07-18T13:09:33Z</time>
      </trkpt>
      <trkpt lat="45.54034" lon="6.74623">
        <ele>1693</ele>
        <time>2019-07-18T13:09:33Z</time>
      </trkpt>
      <trkpt lat="45.54046" lon="6.74629">
        <ele>1695</ele>
        <time>2019-07-18T13:09:33Z</time>
      </trkpt>
      <trkpt lat="45.54057" lon="6.74634">
        <ele>1691</ele>
        <time>2019-07-18T13:09:33Z</time>
      </trkpt>
      <trkpt lat="45.54068" lon="6.74629">
        <ele>1691.1</ele>
        <time>2019-07-18T13:09:33Z</time>
      </trkpt>
      <trkpt lat="45.54078" lon="6.74622">
        <ele>1685</ele>
        <time>2019-07-18T13:09:33Z</time>
      </trkpt>
      <trkpt lat="45.54087" lon="6.74614">
        <ele>1687.6</ele>
        <time>2019-07-18T13:09:33Z</time>
      </trkpt>
      <trkpt lat="45.54098" lon="6.74606">
        <ele>1685</ele>
        <time>2019-07-18T13:09:33Z</time>
      </trkpt>
      <trkpt lat="45.54107" lon="6.746">
        <ele>1686.7</ele>
        <time>2019-07-18T13:09:33Z</time>
      </trkpt>
      <trkpt lat="45.54117" lon="6.7459">
        <ele>1685</ele>
        <time>2019-07-18T13:09:33Z</time>
      </trkpt>
      <trkpt lat="45.54127" lon="6.74582">
        <ele>1688.8</ele>
        <time>2019-07-18T13:09:33Z</time>
      </trkpt>
      <trkpt lat="45.54136" lon="6.74572">
        <ele>1684</ele>
        <time>2019-07-18T13:09:33Z</time>
      </trkpt>
      <trkpt lat="45.54145" lon="6.74565">
        <ele>1687.8</ele>
        <time>2019-07-18T13:09:33Z</time>
      </trkpt>
      <trkpt lat="45.54153" lon="6.74557">
        <ele>1684</ele>
        <time>2019-07-18T13:09:33Z</time>
      </trkpt>
      <trkpt lat="45.54161" lon="6.74547">
        <ele>1686.2</ele>
        <time>2019-07-18T13:09:33Z</time>
      </trkpt>
      <trkpt lat="45.5417" lon="6.74537">
        <ele>1681</ele>
        <time>2019-07-18T13:09:33Z</time>
      </trkpt>
      <trkpt lat="45.54178" lon="6.74527">
        <ele>1681.1</ele>
        <time>2019-07-18T13:09:33Z</time>
      </trkpt>
      <trkpt lat="45.54188" lon="6.74516">
        <ele>1681</ele>
        <time>2019-07-18T13:09:33Z</time>
      </trkpt>
      <trkpt lat="45.54195" lon="6.74503">
        <ele>1681.2</ele>
        <time>2019-07-18T13:09:33Z</time>
      </trkpt>
      <trkpt lat="45.54202" lon="6.74491">
        <ele>1682</ele>
        <time>2019-07-18T13:09:33Z</time>
      </trkpt>
      <trkpt lat="45.54211" lon="6.74483">
        <ele>1679.6</ele>
        <time>2019-07-18T13:09:33Z</time>
      </trkpt>
      <trkpt lat="45.54222" lon="6.74475">
        <ele>1679</ele>
        <time>2019-07-18T13:09:33Z</time>
      </trkpt>
      <trkpt lat="45.5423" lon="6.74465">
        <ele>1678.7</ele>
        <time>2019-07-18T13:09:33Z</time>
      </trkpt>
      <trkpt lat="45.54243" lon="6.74457">
        <ele>1677</ele>
        <time>2019-07-18T13:09:33Z</time>
      </trkpt>
      <trkpt lat="45.54255" lon="6.74457">
        <ele>1674.6</ele>
        <time>2019-07-18T13:09:33Z</time>
      </trkpt>
      <trkpt lat="45.54272" lon="6.74451">
        <ele>1671.7</ele>
        <time>2019-07-18T13:09:33Z</time>
      </trkpt>
      <trkpt lat="45.54282" lon="6.74442">
        <ele>1666</ele>
        <time>2019-07-18T13:09:33Z</time>
      </trkpt>
      <trkpt lat="45.54291" lon="6.74433">
        <ele>1671.6</ele>
        <time>2019-07-18T13:09:33Z</time>
      </trkpt>
      <trkpt lat="45.54301" lon="6.74424">
        <ele>1666</ele>
        <time>2019-07-18T13:09:33Z</time>
      </trkpt>
      <trkpt lat="45.54312" lon="6.7442">
        <ele>1669.5</ele>
        <time>2019-07-18T13:09:33Z</time>
      </trkpt>
      <trkpt lat="45.54322" lon="6.74412">
        <ele>1666</ele>
        <time>2019-07-18T13:09:33Z</time>
      </trkpt>
      <trkpt lat="45.54331" lon="6.74404">
        <ele>1669.4</ele>
        <time>2019-07-18T13:09:33Z</time>
      </trkpt>
      <trkpt lat="45.54338" lon="6.74392">
        <ele>1666</ele>
        <time>2019-07-18T13:09:33Z</time>
      </trkpt>
      <trkpt lat="45.54345" lon="6.74382">
        <ele>1668.9</ele>
        <time>2019-07-18T13:09:33Z</time>
      </trkpt>
      <trkpt lat="45.54353" lon="6.74369">
        <ele>1665</ele>
        <time>2019-07-18T13:09:33Z</time>
      </trkpt>
      <trkpt lat="45.54359" lon="6.74354">
        <ele>1667.8</ele>
        <time>2019-07-18T13:09:33Z</time>
      </trkpt>
      <trkpt lat="45.54366" lon="6.74339">
        <ele>1665</ele>
        <time>2019-07-18T13:09:33Z</time>
      </trkpt>
      <trkpt lat="45.54374" lon="6.74327">
        <ele>1662.6</ele>
        <time>2019-07-18T13:09:33Z</time>
      </trkpt>
      <trkpt lat="45.54382" lon="6.74316">
        <ele>1664</ele>
        <time>2019-07-18T13:09:33Z</time>
      </trkpt>
      <trkpt lat="45.54394" lon="6.74308">
        <ele>1657.6</ele>
        <time>2019-07-18T13:09:33Z</time>
      </trkpt>
      <trkpt lat="45.54405" lon="6.74299">
        <ele>1662</ele>
        <time>2019-07-18T13:09:33Z</time>
      </trkpt>
      <trkpt lat="45.54414" lon="6.74289">
        <ele>1653.7</ele>
        <time>2019-07-18T13:09:33Z</time>
      </trkpt>
      <trkpt lat="45.54419" lon="6.74277">
        <ele>1652</ele>
        <time>2019-07-18T13:09:33Z</time>
      </trkpt>
      <trkpt lat="45.54426" lon="6.74262">
        <ele>1650.6</ele>
        <time>2019-07-18T13:09:33Z</time>
      </trkpt>
      <trkpt lat="45.54432" lon="6.74249">
        <ele>1650</ele>
        <time>2019-07-18T13:09:33Z</time>
      </trkpt>
      <trkpt lat="45.54435" lon="6.74233">
        <ele>1647.9</ele>
        <time>2019-07-18T13:09:33Z</time>
      </trkpt>
      <trkpt lat="45.54442" lon="6.74222">
        <ele>1646</ele>
        <time>2019-07-18T13:09:33Z</time>
      </trkpt>
      <trkpt lat="45.54449" lon="6.74212">
        <ele>1643.9</ele>
        <time>2019-07-18T13:09:33Z</time>
      </trkpt>
      <trkpt lat="45.54459" lon="6.74201">
        <ele>1645</ele>
        <time>2019-07-18T13:09:33Z</time>
      </trkpt>
      <trkpt lat="45.54467" lon="6.74191">
        <ele>1641.1</ele>
        <time>2019-07-18T13:09:33Z</time>
      </trkpt>
      <trkpt lat="45.54474" lon="6.74179">
        <ele>1642</ele>
        <time>2019-07-18T13:09:33Z</time>
      </trkpt>
      <trkpt lat="45.54482" lon="6.74167">
        <ele>1643</ele>
        <time>2019-07-18T13:09:33Z</time>
      </trkpt>
      <trkpt lat="45.54489" lon="6.74155">
        <ele>1642</ele>
        <time>2019-07-18T13:09:33Z</time>
      </trkpt>
      <trkpt lat="45.54496" lon="6.74145">
        <ele>1646.2</ele>
        <time>2019-07-18T13:09:33Z</time>
      </trkpt>
      <trkpt lat="45.54503" lon="6.74134">
        <ele>1647</ele>
        <time>2019-07-18T13:09:33Z</time>
      </trkpt>
      <trkpt lat="45.5451" lon="6.74122">
        <ele>1650.8</ele>
        <time>2019-07-18T13:09:33Z</time>
      </trkpt>
      <trkpt lat="45.54517" lon="6.74109">
        <ele>1648</ele>
        <time>2019-07-18T13:09:33Z</time>
      </trkpt>
      <trkpt lat="45.54524" lon="6.74096">
        <ele>1653.1</ele>
        <time>2019-07-18T13:09:33Z</time>
      </trkpt>
      <trkpt lat="45.5453" lon="6.74085">
        <ele>1652</ele>
        <time>2019-07-18T13:09:33Z</time>
      </trkpt>
      <trkpt lat="45.54536" lon="6.74072">
        <ele>1655.9</ele>
        <time>2019-07-18T13:09:33Z</time>
      </trkpt>
      <trkpt lat="45.54542" lon="6.74058">
        <ele>1653</ele>
        <time>2019-07-18T13:09:33Z</time>
      </trkpt>
      <trkpt lat="45.54548" lon="6.74045">
        <ele>1659.4</ele>
        <time>2019-07-18T13:09:33Z</time>
      </trkpt>
      <trkpt lat="45.54552" lon="6.74032">
        <ele>1655</ele>
        <time>2019-07-18T13:09:33Z</time>
      </trkpt>
      <trkpt lat="45.54555" lon="6.74018">
        <ele>1662.1</ele>
        <time>2019-07-18T13:09:33Z</time>
      </trkpt>
      <trkpt lat="45.5456" lon="6.74005">
        <ele>1660</ele>
        <time>2019-07-18T13:09:33Z</time>
      </trkpt>
      <trkpt lat="45.54568" lon="6.73994">
        <ele>1663.6</ele>
        <time>2019-07-18T13:09:33Z</time>
      </trkpt>
      <trkpt lat="45.54574" lon="6.73982">
        <ele>1664</ele>
        <time>2019-07-18T13:09:33Z</time>
      </trkpt>
      <trkpt lat="45.54581" lon="6.7397">
        <ele>1665.8</ele>
        <time>2019-07-18T13:09:33Z</time>
      </trkpt>
      <trkpt lat="45.54587" lon="6.73957">
        <ele>1665</ele>
        <time>2019-07-18T13:09:33Z</time>
      </trkpt>
      <trkpt lat="45.54593" lon="6.73944">
        <ele>1669.6</ele>
        <time>2019-07-18T13:09:33Z</time>
      </trkpt>
      <trkpt lat="45.546" lon="6.73928">
        <ele>1668</ele>
        <time>2019-07-18T13:09:33Z</time>
      </trkpt>
      <trkpt lat="45.54606" lon="6.73916">
        <ele>1671.3</ele>
        <time>2019-07-18T13:09:33Z</time>
      </trkpt>
      <trkpt lat="45.54612" lon="6.73903">
        <ele>1671</ele>
        <time>2019-07-18T13:09:33Z</time>
      </trkpt>
      <trkpt lat="45.54613" lon="6.73886">
        <ele>1674.6</ele>
        <time>2019-07-18T13:09:33Z</time>
      </trkpt>
      <trkpt lat="45.54617" lon="6.73873">
        <ele>1672</ele>
        <time>2019-07-18T13:09:33Z</time>
      </trkpt>
      <trkpt lat="45.54622" lon="6.7386">
        <ele>1674.3</ele>
        <time>2019-07-18T13:09:33Z</time>
      </trkpt>
      <trkpt lat="45.54624" lon="6.73844">
        <ele>1676</ele>
        <time>2019-07-18T13:09:33Z</time>
      </trkpt>
      <trkpt lat="45.54628" lon="6.73829">
        <ele>1678.3</ele>
        <time>2019-07-18T13:09:33Z</time>
      </trkpt>
      <trkpt lat="45.54629" lon="6.73814">
        <ele>1677</ele>
        <time>2019-07-18T13:09:33Z</time>
      </trkpt>
      <trkpt lat="45.54632" lon="6.73798">
        <ele>1680.8</ele>
        <time>2019-07-18T13:09:33Z</time>
      </trkpt>
      <trkpt lat="45.54635" lon="6.73783">
        <ele>1680</ele>
        <time>2019-07-18T13:09:33Z</time>
      </trkpt>
      <trkpt lat="45.54635" lon="6.73767">
        <ele>1683.4</ele>
        <time>2019-07-18T13:09:33Z</time>
      </trkpt>
      <trkpt lat="45.54635" lon="6.7375">
        <ele>1682</ele>
        <time>2019-07-18T13:09:33Z</time>
      </trkpt>
      <trkpt lat="45.54635" lon="6.73734">
        <ele>1686</ele>
        <time>2019-07-18T13:09:33Z</time>
      </trkpt>
      <trkpt lat="45.54634" lon="6.7372">
        <ele>1685</ele>
        <time>2019-07-18T13:09:33Z</time>
      </trkpt>
      <trkpt lat="45.54631" lon="6.73706">
        <ele>1688.1</ele>
        <time>2019-07-18T13:09:33Z</time>
      </trkpt>
      <trkpt lat="45.54626" lon="6.73691">
        <ele>1685</ele>
        <time>2019-07-18T13:09:33Z</time>
      </trkpt>
      <trkpt lat="45.54618" lon="6.73677">
        <ele>1689.9</ele>
        <time>2019-07-18T13:09:33Z</time>
      </trkpt>
      <trkpt lat="45.54612" lon="6.73665">
        <ele>1687</ele>
        <time>2019-07-18T13:09:33Z</time>
      </trkpt>
      <trkpt lat="45.54607" lon="6.7365">
        <ele>1692.2</ele>
        <time>2019-07-18T13:09:33Z</time>
      </trkpt>
      <trkpt lat="45.54607" lon="6.73635">
        <ele>1692</ele>
        <time>2019-07-18T13:09:33Z</time>
      </trkpt>
      <trkpt lat="45.54606" lon="6.73618">
        <ele>1692.4</ele>
        <time>2019-07-18T13:09:33Z</time>
      </trkpt>
      <trkpt lat="45.54605" lon="6.73601">
        <ele>1693</ele>
        <time>2019-07-18T13:09:33Z</time>
      </trkpt>
      <trkpt lat="45.54605" lon="6.73586">
        <ele>1693.3</ele>
        <time>2019-07-18T13:09:33Z</time>
      </trkpt>
      <trkpt lat="45.54606" lon="6.73571">
        <ele>1691</ele>
        <time>2019-07-18T13:09:33Z</time>
      </trkpt>
      <trkpt lat="45.54606" lon="6.73554">
        <ele>1690.6</ele>
        <time>2019-07-18T13:09:33Z</time>
      </trkpt>
      <trkpt lat="45.54603" lon="6.73539">
        <ele>1689</ele>
        <time>2019-07-18T13:09:33Z</time>
      </trkpt>
      <trkpt lat="45.54598" lon="6.73523">
        <ele>1691.8</ele>
        <time>2019-07-18T13:09:33Z</time>
      </trkpt>
      <trkpt lat="45.54596" lon="6.73506">
        <ele>1689</ele>
        <time>2019-07-18T13:09:33Z</time>
      </trkpt>
      <trkpt lat="45.54592" lon="6.73491">
        <ele>1690.2</ele>
        <time>2019-07-18T13:09:33Z</time>
      </trkpt>
      <trkpt lat="45.54589" lon="6.73476">
        <ele>1689</ele>
        <time>2019-07-18T13:09:33Z</time>
      </trkpt>
      <trkpt lat="45.54584" lon="6.73461">
        <ele>1690.4</ele>
        <time>2019-07-18T13:09:33Z</time>
      </trkpt>
      <trkpt lat="45.54581" lon="6.73446">
        <ele>1688</ele>
        <time>2019-07-18T13:09:33Z</time>
      </trkpt>
      <trkpt lat="45.54577" lon="6.73429">
        <ele>1690.3</ele>
        <time>2019-07-18T13:09:33Z</time>
      </trkpt>
      <trkpt lat="45.54573" lon="6.73413">
        <ele>1688</ele>
        <time>2019-07-18T13:09:33Z</time>
      </trkpt>
      <trkpt lat="45.54568" lon="6.73402">
        <ele>1690</ele>
        <time>2019-07-18T13:09:33Z</time>
      </trkpt>
      <trkpt lat="45.54562" lon="6.73388">
        <ele>1688</ele>
        <time>2019-07-18T13:09:33Z</time>
      </trkpt>
      <trkpt lat="45.54556" lon="6.73373">
        <ele>1688.8</ele>
        <time>2019-07-18T13:09:33Z</time>
      </trkpt>
      <trkpt lat="45.54549" lon="6.73357">
        <ele>1688</ele>
        <time>2019-07-18T13:09:33Z</time>
      </trkpt>
      <trkpt lat="45.54543" lon="6.73343">
        <ele>1687.5</ele>
        <time>2019-07-18T13:09:33Z</time>
      </trkpt>
      <trkpt lat="45.54536" lon="6.73331">
        <ele>1688</ele>
        <time>2019-07-18T13:09:33Z</time>
      </trkpt>
      <trkpt lat="45.54529" lon="6.7332">
        <ele>1684.3</ele>
        <time>2019-07-18T13:09:33Z</time>
      </trkpt>
      <trkpt lat="45.54521" lon="6.73307">
        <ele>1688</ele>
        <time>2019-07-18T13:09:33Z</time>
      </trkpt>
      <trkpt lat="45.54513" lon="6.73295">
        <ele>1688.6</ele>
        <time>2019-07-18T13:09:33Z</time>
      </trkpt>
      <trkpt lat="45.54506" lon="6.73283">
        <ele>1690</ele>
        <time>2019-07-18T13:09:33Z</time>
      </trkpt>
      <trkpt lat="45.545" lon="6.7327">
        <ele>1694.2</ele>
        <time>2019-07-18T13:09:33Z</time>
      </trkpt>
      <trkpt lat="45.54495" lon="6.73255">
        <ele>1692</ele>
        <time>2019-07-18T13:09:33Z</time>
      </trkpt>
      <trkpt lat="45.54493" lon="6.7324">
        <ele>1697.6</ele>
        <time>2019-07-18T13:09:33Z</time>
      </trkpt>
      <trkpt lat="45.54489" lon="6.73226">
        <ele>1695</ele>
        <time>2019-07-18T13:09:33Z</time>
      </trkpt>
      <trkpt lat="45.54483" lon="6.73211">
        <ele>1705.2</ele>
        <time>2019-07-18T13:09:33Z</time>
      </trkpt>
      <trkpt lat="45.54478" lon="6.73195">
        <ele>1699</ele>
        <time>2019-07-18T13:09:33Z</time>
      </trkpt>
      <trkpt lat="45.54482" lon="6.73179">
        <ele>1705.9</ele>
        <time>2019-07-18T13:09:33Z</time>
      </trkpt>
      <trkpt lat="45.5449" lon="6.73167">
        <ele>1699</ele>
        <time>2019-07-18T13:09:33Z</time>
      </trkpt>
      <trkpt lat="45.54495" lon="6.73154">
        <ele>1695.5</ele>
        <time>2019-07-18T13:09:33Z</time>
      </trkpt>
      <trkpt lat="45.54496" lon="6.73139">
        <ele>1699</ele>
        <time>2019-07-18T13:09:33Z</time>
      </trkpt>
      <trkpt lat="45.54497" lon="6.7312">
        <ele>1693.8</ele>
        <time>2019-07-18T13:09:33Z</time>
      </trkpt>
      <trkpt lat="45.54497" lon="6.73105">
        <ele>1697</ele>
        <time>2019-07-18T13:09:33Z</time>
      </trkpt>
      <trkpt lat="45.54498" lon="6.73091">
        <ele>1693.3</ele>
        <time>2019-07-18T13:09:33Z</time>
      </trkpt>
      <trkpt lat="45.54502" lon="6.73074">
        <ele>1695</ele>
        <time>2019-07-18T13:09:33Z</time>
      </trkpt>
      <trkpt lat="45.54505" lon="6.7306">
        <ele>1689.9</ele>
        <time>2019-07-18T13:09:33Z</time>
      </trkpt>
      <trkpt lat="45.54508" lon="6.73045">
        <ele>1693</ele>
        <time>2019-07-18T13:09:33Z</time>
      </trkpt>
      <trkpt lat="45.54512" lon="6.73031">
        <ele>1689.8</ele>
        <time>2019-07-18T13:09:33Z</time>
      </trkpt>
      <trkpt lat="45.54515" lon="6.73017">
        <ele>1691</ele>
        <time>2019-07-18T13:09:33Z</time>
      </trkpt>
      <trkpt lat="45.5452" lon="6.73003">
        <ele>1690.7</ele>
        <time>2019-07-18T13:09:33Z</time>
      </trkpt>
      <trkpt lat="45.54523" lon="6.72989">
        <ele>1690</ele>
        <time>2019-07-18T13:09:33Z</time>
      </trkpt>
      <trkpt lat="45.54528" lon="6.72972">
        <ele>1689</ele>
        <time>2019-07-18T13:09:33Z</time>
      </trkpt>
      <trkpt lat="45.54534" lon="6.72962">
        <ele>1690</ele>
        <time>2019-07-18T13:09:33Z</time>
      </trkpt>
      <trkpt lat="45.54541" lon="6.72954">
        <ele>1690</ele>
        <time>2019-07-18T13:09:33Z</time>
      </trkpt>
      <trkpt lat="45.54555" lon="6.72935">
        <ele>1690</ele>
        <time>2019-07-18T13:09:33Z</time>
      </trkpt>
      <trkpt lat="45.54569" lon="6.72903">
        <ele>1690</ele>
        <time>2019-07-18T13:09:33Z</time>
      </trkpt>
      <trkpt lat="45.54553" lon="6.72785">
        <ele>1702</ele>
        <time>2019-07-18T13:09:33Z</time>
      </trkpt>
      <trkpt lat="45.54543" lon="6.7279">
        <ele>1705.9</ele>
        <time>2019-07-18T13:09:33Z</time>
      </trkpt>
      <trkpt lat="45.54535" lon="6.72797">
        <ele>1706</ele>
        <time>2019-07-18T13:09:33Z</time>
      </trkpt>
      <trkpt lat="45.54518" lon="6.72823">
        <ele>1708</ele>
        <time>2019-07-18T13:09:33Z</time>
      </trkpt>
      <trkpt lat="45.54481" lon="6.72864">
        <ele>1717.4</ele>
        <time>2019-07-18T13:09:33Z</time>
      </trkpt>
      <trkpt lat="45.54476" lon="6.72851">
        <ele>1720</ele>
        <time>2019-07-18T13:09:33Z</time>
      </trkpt>
      <trkpt lat="45.54474" lon="6.72836">
        <ele>1713</ele>
        <time>2019-07-18T13:09:33Z</time>
      </trkpt>
      <trkpt lat="45.54473" lon="6.72821">
        <ele>1724.1</ele>
        <time>2019-07-18T13:09:33Z</time>
      </trkpt>
      <trkpt lat="45.54471" lon="6.72806">
        <ele>1721</ele>
        <time>2019-07-18T13:09:33Z</time>
      </trkpt>
      <trkpt lat="45.54328" lon="6.72737">
        <ele>1765.5</ele>
        <time>2019-07-18T13:09:33Z</time>
      </trkpt>
      <trkpt lat="45.54299" lon="6.72714">
        <ele>1761</ele>
        <time>2019-07-18T13:09:33Z</time>
      </trkpt>
      <trkpt lat="45.54295" lon="6.72702">
        <ele>1768.8</ele>
        <time>2019-07-18T13:09:33Z</time>
      </trkpt>
      <trkpt lat="45.54289" lon="6.72668">
        <ele>1769.6</ele>
        <time>2019-07-18T13:09:33Z</time>
      </trkpt>
      <trkpt lat="45.54289" lon="6.72654">
        <ele>1766</ele>
        <time>2019-07-18T13:09:33Z</time>
      </trkpt>
      <trkpt lat="45.54289" lon="6.7264">
        <ele>1770.6</ele>
        <time>2019-07-18T13:09:33Z</time>
      </trkpt>
      <trkpt lat="45.54288" lon="6.72627">
        <ele>1771.1</ele>
        <time>2019-07-18T13:09:33Z</time>
      </trkpt>
      <trkpt lat="45.54287" lon="6.72615">
        <ele>1767</ele>
        <time>2019-07-18T13:09:33Z</time>
      </trkpt>
      <trkpt lat="45.54283" lon="6.72581">
        <ele>1770</ele>
        <time>2019-07-18T13:09:33Z</time>
      </trkpt>
      <trkpt lat="45.54259" lon="6.72541">
        <ele>1778.7</ele>
        <time>2019-07-18T13:09:33Z</time>
      </trkpt>
      <trkpt lat="45.54254" lon="6.72498">
        <ele>1779</ele>
        <time>2019-07-18T13:09:33Z</time>
      </trkpt>
      <trkpt lat="45.54253" lon="6.72483">
        <ele>1784.4</ele>
        <time>2019-07-18T13:09:33Z</time>
      </trkpt>
      <trkpt lat="45.54252" lon="6.72468">
        <ele>1782</ele>
        <time>2019-07-18T13:09:33Z</time>
      </trkpt>
      <trkpt lat="45.54251" lon="6.72454">
        <ele>1786.9</ele>
        <time>2019-07-18T13:09:33Z</time>
      </trkpt>
      <trkpt lat="45.54249" lon="6.7244">
        <ele>1787</ele>
        <time>2019-07-18T13:09:33Z</time>
      </trkpt>
      <trkpt lat="45.54245" lon="6.72426">
        <ele>1792.3</ele>
        <time>2019-07-18T13:09:33Z</time>
      </trkpt>
      <trkpt lat="45.54242" lon="6.72414">
        <ele>1792</ele>
        <time>2019-07-18T13:09:33Z</time>
      </trkpt>
      <trkpt lat="45.54238" lon="6.72403">
        <ele>1796.1</ele>
        <time>2019-07-18T13:09:33Z</time>
      </trkpt>
      <trkpt lat="45.54231" lon="6.72382">
        <ele>1795</ele>
        <time>2019-07-18T13:09:33Z</time>
      </trkpt>
      <trkpt lat="45.54228" lon="6.72368">
        <ele>1796.4</ele>
        <time>2019-07-18T13:09:33Z</time>
      </trkpt>
      <trkpt lat="45.54225" lon="6.72352">
        <ele>1796</ele>
        <time>2019-07-18T13:09:33Z</time>
      </trkpt>
      <trkpt lat="45.5422" lon="6.72336">
        <ele>1798</ele>
        <time>2019-07-18T13:09:33Z</time>
      </trkpt>
      <trkpt lat="45.54216" lon="6.7232">
        <ele>1797</ele>
        <time>2019-07-18T13:09:33Z</time>
      </trkpt>
      <trkpt lat="45.54213" lon="6.72306">
        <ele>1800.7</ele>
        <time>2019-07-18T13:09:33Z</time>
      </trkpt>
      <trkpt lat="45.5421" lon="6.72292">
        <ele>1798</ele>
        <time>2019-07-18T13:09:33Z</time>
      </trkpt>
      <trkpt lat="45.54208" lon="6.72277">
        <ele>1802.6</ele>
        <time>2019-07-18T13:09:33Z</time>
      </trkpt>
      <trkpt lat="45.54164" lon="6.72089">
        <ele>1817.3</ele>
        <time>2019-07-18T13:09:33Z</time>
      </trkpt>
      <trkpt lat="45.54151" lon="6.72066">
        <ele>1818.3</ele>
        <time>2019-07-18T13:09:33Z</time>
      </trkpt>
      <trkpt lat="45.5414" lon="6.72049">
        <ele>1819.4</ele>
        <time>2019-07-18T13:09:33Z</time>
      </trkpt>
      <trkpt lat="45.54133" lon="6.72037">
        <ele>1819</ele>
        <time>2019-07-18T13:09:33Z</time>
      </trkpt>
      <trkpt lat="45.54127" lon="6.72027">
        <ele>1822.3</ele>
        <time>2019-07-18T13:09:33Z</time>
      </trkpt>
      <trkpt lat="45.5412" lon="6.72016">
        <ele>1822</ele>
        <time>2019-07-18T13:09:33Z</time>
      </trkpt>
      <trkpt lat="45.54112" lon="6.72006">
        <ele>1825.5</ele>
        <time>2019-07-18T13:09:33Z</time>
      </trkpt>
      <trkpt lat="45.54105" lon="6.71998">
        <ele>1824</ele>
        <time>2019-07-18T13:09:33Z</time>
      </trkpt>
      <trkpt lat="45.54098" lon="6.7199">
        <ele>1827.5</ele>
        <time>2019-07-18T13:09:33Z</time>
      </trkpt>
      <trkpt lat="45.53903" lon="6.71949">
        <ele>1862.7</ele>
        <time>2019-07-18T13:09:33Z</time>
      </trkpt>
      <trkpt lat="45.53861" lon="6.71976">
        <ele>1873.2</ele>
        <time>2019-07-18T13:09:33Z</time>
      </trkpt>
      <trkpt lat="45.53854" lon="6.71984">
        <ele>1868</ele>
        <time>2019-07-18T13:09:33Z</time>
      </trkpt>
      <trkpt lat="45.53839" lon="6.72">
        <ele>1879.6</ele>
        <time>2019-07-18T13:09:33Z</time>
      </trkpt>
      <trkpt lat="45.53831" lon="6.72008">
        <ele>1875</ele>
        <time>2019-07-18T13:09:33Z</time>
      </trkpt>
      <trkpt lat="45.53821" lon="6.7201">
        <ele>1884.2</ele>
        <time>2019-07-18T13:09:33Z</time>
      </trkpt>
      <trkpt lat="45.53811" lon="6.72013">
        <ele>1881</ele>
        <time>2019-07-18T13:09:33Z</time>
      </trkpt>
      <trkpt lat="45.53801" lon="6.72009">
        <ele>1888.7</ele>
        <time>2019-07-18T13:09:33Z</time>
      </trkpt>
      <trkpt lat="45.53793" lon="6.72002">
        <ele>1886</ele>
        <time>2019-07-18T13:09:33Z</time>
      </trkpt>
      <trkpt lat="45.53784" lon="6.72001">
        <ele>1892.3</ele>
        <time>2019-07-18T13:09:33Z</time>
      </trkpt>
      <trkpt lat="45.53775" lon="6.72">
        <ele>1894.7</ele>
        <time>2019-07-18T13:09:33Z</time>
      </trkpt>
      <trkpt lat="45.53766" lon="6.71995">
        <ele>1889</ele>
        <time>2019-07-18T13:09:33Z</time>
      </trkpt>
      <trkpt lat="45.53747" lon="6.71976">
        <ele>1896</ele>
        <time>2019-07-18T13:09:33Z</time>
      </trkpt>
      <trkpt lat="45.53738" lon="6.71968">
        <ele>1904.8</ele>
        <time>2019-07-18T13:09:33Z</time>
      </trkpt>
      <trkpt lat="45.53599" lon="6.71698">
        <ele>1934</ele>
        <time>2019-07-18T13:09:33Z</time>
      </trkpt>
      <trkpt lat="45.53573" lon="6.71683">
        <ele>1934</ele>
        <time>2019-07-18T13:09:33Z</time>
      </trkpt>
      <trkpt lat="45.53556" lon="6.71683">
        <ele>1936.3</ele>
        <time>2019-07-18T13:09:33Z</time>
      </trkpt>
      <trkpt lat="45.53545" lon="6.71684">
        <ele>1934</ele>
        <time>2019-07-18T13:09:33Z</time>
      </trkpt>
      <trkpt lat="45.53534" lon="6.71681">
        <ele>1936.5</ele>
        <time>2019-07-18T13:09:33Z</time>
      </trkpt>
      <trkpt lat="45.53526" lon="6.71673">
        <ele>1936</ele>
        <time>2019-07-18T13:09:33Z</time>
      </trkpt>
      <trkpt lat="45.5352" lon="6.71661">
        <ele>1934.8</ele>
        <time>2019-07-18T13:09:33Z</time>
      </trkpt>
      <trkpt lat="45.53518" lon="6.71647">
        <ele>1935</ele>
        <time>2019-07-18T13:09:33Z</time>
      </trkpt>
      <trkpt lat="45.53513" lon="6.71632">
        <ele>1931.6</ele>
        <time>2019-07-18T13:09:33Z</time>
      </trkpt>
      <trkpt lat="45.53504" lon="6.71623">
        <ele>1934</ele>
        <time>2019-07-18T13:09:33Z</time>
      </trkpt>
      <trkpt lat="45.53496" lon="6.71614">
        <ele>1931.7</ele>
        <time>2019-07-18T13:09:33Z</time>
      </trkpt>
      <trkpt lat="45.5349" lon="6.71602">
        <ele>1933</ele>
        <time>2019-07-18T13:09:33Z</time>
      </trkpt>
      <trkpt lat="45.53493" lon="6.71587">
        <ele>1933.5</ele>
        <time>2019-07-18T13:09:33Z</time>
      </trkpt>
      <trkpt lat="45.53491" lon="6.71571">
        <ele>1933</ele>
        <time>2019-07-18T13:09:33Z</time>
      </trkpt>
      <trkpt lat="45.53484" lon="6.71561">
        <ele>1938.5</ele>
        <time>2019-07-18T13:09:33Z</time>
      </trkpt>
      <trkpt lat="45.53474" lon="6.7156">
        <ele>1935</ele>
        <time>2019-07-18T13:09:33Z</time>
      </trkpt>
      <trkpt lat="45.53463" lon="6.71563">
        <ele>1942.4</ele>
        <time>2019-07-18T13:09:33Z</time>
      </trkpt>
      <trkpt lat="45.53454" lon="6.7157">
        <ele>1937</ele>
        <time>2019-07-18T13:09:33Z</time>
      </trkpt>
      <trkpt lat="45.53449" lon="6.71583">
        <ele>1948.2</ele>
        <time>2019-07-18T13:09:33Z</time>
      </trkpt>
      <trkpt lat="45.5344" lon="6.7159">
        <ele>1944</ele>
        <time>2019-07-18T13:09:33Z</time>
      </trkpt>
      <trkpt lat="45.53432" lon="6.71601">
        <ele>1952.6</ele>
        <time>2019-07-18T13:09:33Z</time>
      </trkpt>
      <trkpt lat="45.53428" lon="6.71614">
        <ele>1949</ele>
        <time>2019-07-18T13:09:33Z</time>
      </trkpt>
      <trkpt lat="45.53422" lon="6.71625">
        <ele>1953.2</ele>
        <time>2019-07-18T13:09:33Z</time>
      </trkpt>
      <trkpt lat="45.53415" lon="6.71639">
        <ele>1955</ele>
        <time>2019-07-18T13:09:33Z</time>
      </trkpt>
      <trkpt lat="45.53413" lon="6.71653">
        <ele>1957.2</ele>
        <time>2019-07-18T13:09:33Z</time>
      </trkpt>
      <trkpt lat="45.53408" lon="6.71666">
        <ele>1959</ele>
        <time>2019-07-18T13:09:33Z</time>
      </trkpt>
      <trkpt lat="45.53408" lon="6.71652">
        <ele>1959.3</ele>
        <time>2019-07-18T13:09:33Z</time>
      </trkpt>
      <trkpt lat="45.53401" lon="6.7164">
        <ele>1962</ele>
        <time>2019-07-18T13:09:33Z</time>
      </trkpt>
      <trkpt lat="45.53404" lon="6.71626">
        <ele>1964.7</ele>
        <time>2019-07-18T13:09:33Z</time>
      </trkpt>
      <trkpt lat="45.53409" lon="6.71613">
        <ele>1963</ele>
        <time>2019-07-18T13:09:33Z</time>
      </trkpt>
      <trkpt lat="45.53404" lon="6.71601">
        <ele>1971.5</ele>
        <time>2019-07-18T13:09:33Z</time>
      </trkpt>
      <trkpt lat="45.53396" lon="6.71592">
        <ele>1964</ele>
        <time>2019-07-18T13:09:33Z</time>
      </trkpt>
      <trkpt lat="45.53388" lon="6.71582">
        <ele>1985.3</ele>
        <time>2019-07-18T13:09:33Z</time>
      </trkpt>
      <trkpt lat="45.53384" lon="6.71569">
        <ele>1975</ele>
        <time>2019-07-18T13:09:33Z</time>
      </trkpt>
      <trkpt lat="45.53383" lon="6.71584">
        <ele>1989.2</ele>
        <time>2019-07-18T13:09:33Z</time>
      </trkpt>
      <trkpt lat="45.53386" lon="6.71599">
        <ele>1981</ele>
        <time>2019-07-18T13:09:33Z</time>
      </trkpt>
      <trkpt lat="45.53381" lon="6.71611">
        <ele>1988.7</ele>
        <time>2019-07-18T13:09:33Z</time>
      </trkpt>
      <trkpt lat="45.53373" lon="6.71621">
        <ele>1985</ele>
        <time>2019-07-18T13:09:33Z</time>
      </trkpt>
      <trkpt lat="45.53372" lon="6.71606">
        <ele>1995.5</ele>
        <time>2019-07-18T13:09:33Z</time>
      </trkpt>
      <trkpt lat="45.53366" lon="6.71595">
        <ele>1993</ele>
        <time>2019-07-18T13:09:33Z</time>
      </trkpt>
      <trkpt lat="45.53356" lon="6.71589">
        <ele>2007.4</ele>
        <time>2019-07-18T13:09:33Z</time>
      </trkpt>
      <trkpt lat="45.53347" lon="6.7158">
        <ele>1999</ele>
        <time>2019-07-18T13:09:33Z</time>
      </trkpt>
      <trkpt lat="45.53338" lon="6.71577">
        <ele>2015.7</ele>
        <time>2019-07-18T13:09:33Z</time>
      </trkpt>
      <trkpt lat="45.53345" lon="6.71586">
        <ele>2009</ele>
        <time>2019-07-18T13:09:33Z</time>
      </trkpt>
      <trkpt lat="45.53335" lon="6.71591">
        <ele>2019.1</ele>
        <time>2019-07-18T13:09:33Z</time>
      </trkpt>
      <trkpt lat="45.53326" lon="6.71597">
        <ele>2010</ele>
        <time>2019-07-18T13:09:33Z</time>
      </trkpt>
      <trkpt lat="45.53325" lon="6.71611">
        <ele>2023.3</ele>
        <time>2019-07-18T13:09:33Z</time>
      </trkpt>
      <trkpt lat="45.53318" lon="6.71621">
        <ele>2020</ele>
        <time>2019-07-18T13:09:33Z</time>
      </trkpt>
      <trkpt lat="45.53313" lon="6.71634">
        <ele>2025.9</ele>
        <time>2019-07-18T13:09:33Z</time>
      </trkpt>
      <trkpt lat="45.53305" lon="6.71645">
        <ele>2026</ele>
        <time>2019-07-18T13:09:33Z</time>
      </trkpt>
      <trkpt lat="45.53295" lon="6.71648">
        <ele>2032.9</ele>
        <time>2019-07-18T13:09:33Z</time>
      </trkpt>
      <trkpt lat="45.53287" lon="6.71657">
        <ele>2028</ele>
        <time>2019-07-18T13:09:33Z</time>
      </trkpt>
      <trkpt lat="45.53277" lon="6.71662">
        <ele>2040.3</ele>
        <time>2019-07-18T13:09:33Z</time>
      </trkpt>
      <trkpt lat="45.53273" lon="6.71676">
        <ele>2038</ele>
        <time>2019-07-18T13:09:33Z</time>
      </trkpt>
      <trkpt lat="45.53267" lon="6.71688">
        <ele>2043.9</ele>
        <time>2019-07-18T13:09:33Z</time>
      </trkpt>
      <trkpt lat="45.53264" lon="6.71702">
        <ele>2043</ele>
        <time>2019-07-18T13:09:33Z</time>
      </trkpt>
      <trkpt lat="45.53268" lon="6.71716">
        <ele>2045.5</ele>
        <time>2019-07-18T13:09:33Z</time>
      </trkpt>
      <trkpt lat="45.53262" lon="6.71728">
        <ele>2049</ele>
        <time>2019-07-18T13:09:33Z</time>
      </trkpt>
      <trkpt lat="45.53268" lon="6.71739">
        <ele>2045.7</ele>
        <time>2019-07-18T13:09:33Z</time>
      </trkpt>
      <trkpt lat="45.53258" lon="6.71739">
        <ele>2053</ele>
        <time>2019-07-18T13:09:33Z</time>
      </trkpt>
      <trkpt lat="45.53248" lon="6.71736">
        <ele>2057.7</ele>
        <time>2019-07-18T13:09:33Z</time>
      </trkpt>
      <trkpt lat="45.53242" lon="6.71723">
        <ele>2054</ele>
        <time>2019-07-18T13:09:33Z</time>
      </trkpt>
      <trkpt lat="45.53235" lon="6.71712">
        <ele>2064.6</ele>
        <time>2019-07-18T13:09:33Z</time>
      </trkpt>
      <trkpt lat="45.53229" lon="6.71701">
        <ele>2062</ele>
        <time>2019-07-18T13:09:33Z</time>
      </trkpt>
      <trkpt lat="45.53226" lon="6.71687">
        <ele>2069.1</ele>
        <time>2019-07-18T13:09:33Z</time>
      </trkpt>
      <trkpt lat="45.53223" lon="6.71672">
        <ele>2069</ele>
        <time>2019-07-18T13:09:33Z</time>
      </trkpt>
      <trkpt lat="45.53225" lon="6.71659">
        <ele>2070.7</ele>
        <time>2019-07-18T13:09:33Z</time>
      </trkpt>
      <trkpt lat="45.53228" lon="6.71644">
        <ele>2071</ele>
        <time>2019-07-18T13:09:33Z</time>
      </trkpt>
      <trkpt lat="45.53224" lon="6.71629">
        <ele>2071.6</ele>
        <time>2019-07-18T13:09:33Z</time>
      </trkpt>
      <trkpt lat="45.53216" lon="6.71637">
        <ele>2073</ele>
        <time>2019-07-18T13:09:33Z</time>
      </trkpt>
      <trkpt lat="45.53213" lon="6.71651">
        <ele>2078.5</ele>
        <time>2019-07-18T13:09:33Z</time>
      </trkpt>
      <trkpt lat="45.53202" lon="6.71699">
        <ele>2080</ele>
        <time>2019-07-18T13:09:33Z</time>
      </trkpt>
      <trkpt lat="45.53195" lon="6.71732">
        <ele>2084</ele>
        <time>2019-07-18T13:09:33Z</time>
      </trkpt>
      <trkpt lat="45.53196" lon="6.71746">
        <ele>2088.8</ele>
        <time>2019-07-18T13:09:33Z</time>
      </trkpt>
      <trkpt lat="45.53195" lon="6.7177">
        <ele>2090</ele>
        <time>2019-07-18T13:09:33Z</time>
      </trkpt>
      <trkpt lat="45.53198" lon="6.71784">
        <ele>2092.5</ele>
        <time>2019-07-18T13:09:33Z</time>
      </trkpt>
      <trkpt lat="45.5319" lon="6.71777">
        <ele>2093</ele>
        <time>2019-07-18T13:09:33Z</time>
      </trkpt>
      <trkpt lat="45.53185" lon="6.71764">
        <ele>2098.3</ele>
        <time>2019-07-18T13:09:33Z</time>
      </trkpt>
      <trkpt lat="45.53179" lon="6.71751">
        <ele>2097</ele>
        <time>2019-07-18T13:09:33Z</time>
      </trkpt>
      <trkpt lat="45.53173" lon="6.71738">
        <ele>2103.4</ele>
        <time>2019-07-18T13:09:33Z</time>
      </trkpt>
      <trkpt lat="45.53169" lon="6.71724">
        <ele>2102</ele>
        <time>2019-07-18T13:09:33Z</time>
      </trkpt>
      <trkpt lat="45.53169" lon="6.7171">
        <ele>2105.5</ele>
        <time>2019-07-18T13:09:33Z</time>
      </trkpt>
      <trkpt lat="45.5317" lon="6.71697">
        <ele>2104.9</ele>
        <time>2019-07-18T13:09:33Z</time>
      </trkpt>
      <trkpt lat="45.53167" lon="6.71682">
        <ele>2105</ele>
        <time>2019-07-18T13:09:33Z</time>
      </trkpt>
      <trkpt lat="45.53162" lon="6.71692">
        <ele>2108.3</ele>
        <time>2019-07-18T13:09:33Z</time>
      </trkpt>
      <trkpt lat="45.5315" lon="6.71769">
        <ele>2118.2</ele>
        <time>2019-07-18T13:09:33Z</time>
      </trkpt>
      <trkpt lat="45.53159" lon="6.71789">
        <ele>2120.2</ele>
        <time>2019-07-18T13:09:33Z</time>
      </trkpt>
      <trkpt lat="45.53165" lon="6.71802">
        <ele>2121</ele>
        <time>2019-07-18T13:09:33Z</time>
      </trkpt>
      <trkpt lat="45.53168" lon="6.71815">
        <ele>2123</ele>
        <time>2019-07-18T13:09:33Z</time>
      </trkpt>
      <trkpt lat="45.53168" lon="6.7183">
        <ele>2122</ele>
        <time>2019-07-18T13:09:33Z</time>
      </trkpt>
      <trkpt lat="45.53172" lon="6.71889">
        <ele>2131</ele>
        <time>2019-07-18T13:09:33Z</time>
      </trkpt>
      <trkpt lat="45.53154" lon="6.72005">
        <ele>2146</ele>
        <time>2019-07-18T13:09:33Z</time>
      </trkpt>
      <trkpt lat="45.5315" lon="6.7207">
        <ele>2165</ele>
        <time>2019-07-18T13:09:33Z</time>
      </trkpt>
      <trkpt lat="45.53142" lon="6.72065">
        <ele>2160</ele>
        <time>2019-07-18T13:09:33Z</time>
      </trkpt>
      <trkpt lat="45.53137" lon="6.72052">
        <ele>2169.4</ele>
        <time>2019-07-18T13:09:33Z</time>
      </trkpt>
      <trkpt lat="45.53138" lon="6.72088">
        <ele>2172</ele>
        <time>2019-07-18T13:09:33Z</time>
      </trkpt>
      <trkpt lat="45.53137" lon="6.72103">
        <ele>2180.3</ele>
        <time>2019-07-18T13:09:33Z</time>
      </trkpt>
      <trkpt lat="45.53147" lon="6.72144">
        <ele>2182.3</ele>
        <time>2019-07-18T13:09:33Z</time>
      </trkpt>
      <trkpt lat="45.53135" lon="6.72161">
        <ele>2185</ele>
        <time>2019-07-18T13:09:33Z</time>
      </trkpt>
      <trkpt lat="45.53128" lon="6.72151">
        <ele>2192.1</ele>
        <time>2019-07-18T13:09:33Z</time>
      </trkpt>
      <trkpt lat="45.53117" lon="6.72174">
        <ele>2199</ele>
        <time>2019-07-18T13:09:33Z</time>
      </trkpt>
      <trkpt lat="45.53107" lon="6.72163">
        <ele>2203.3</ele>
        <time>2019-07-18T13:09:33Z</time>
      </trkpt>
      <trkpt lat="45.53075" lon="6.72214">
        <ele>2213</ele>
        <time>2019-07-18T13:09:33Z</time>
      </trkpt>
      <trkpt lat="45.53062" lon="6.72227">
        <ele>2223.3</ele>
        <time>2019-07-18T13:09:33Z</time>
      </trkpt>
      <trkpt lat="45.53043" lon="6.72247">
        <ele>2232.3</ele>
        <time>2019-07-18T13:09:33Z</time>
      </trkpt>
      <trkpt lat="45.53006" lon="6.72272">
        <ele>2234</ele>
        <time>2019-07-18T13:09:33Z</time>
      </trkpt>
      <trkpt lat="45.52974" lon="6.72288">
        <ele>2253.7</ele>
        <time>2019-07-18T13:09:33Z</time>
      </trkpt>
      <trkpt lat="45.5293" lon="6.72299">
        <ele>2263.8</ele>
        <time>2019-07-18T13:09:33Z</time>
      </trkpt>
      <trkpt lat="45.52883" lon="6.72299">
        <ele>2272.9</ele>
        <time>2019-07-18T13:09:33Z</time>
      </trkpt>
      <trkpt lat="45.52874" lon="6.72296">
        <ele>2269</ele>
        <time>2019-07-18T13:09:33Z</time>
      </trkpt>
      <trkpt lat="45.52822" lon="6.72294">
        <ele>2282.8</ele>
        <time>2019-07-18T13:09:33Z</time>
      </trkpt>
      <trkpt lat="45.52813" lon="6.72294">
        <ele>2281</ele>
        <time>2019-07-18T13:09:33Z</time>
      </trkpt>
      <trkpt lat="45.52701" lon="6.72217">
        <ele>2289.3</ele>
        <time>2019-07-18T13:09:33Z</time>
      </trkpt>
      <trkpt lat="45.52692" lon="6.72209">
        <ele>2288</ele>
        <time>2019-07-18T13:09:33Z</time>
      </trkpt>
      <trkpt lat="45.52683" lon="6.72201">
        <ele>2287.5</ele>
        <time>2019-07-18T13:09:33Z</time>
      </trkpt>
      <trkpt lat="45.52676" lon="6.72191">
        <ele>2288</ele>
        <time>2019-07-18T13:09:33Z</time>
      </trkpt>
      <trkpt lat="45.52668" lon="6.72179">
        <ele>2287.3</ele>
        <time>2019-07-18T13:09:33Z</time>
      </trkpt>
      <trkpt lat="45.52661" lon="6.72169">
        <ele>2287</ele>
        <time>2019-07-18T13:09:33Z</time>
      </trkpt>
      <trkpt lat="45.52654" lon="6.72155">
        <ele>2288.2</ele>
        <time>2019-07-18T13:09:33Z</time>
      </trkpt>
      <trkpt lat="45.52645" lon="6.72142">
        <ele>2288</ele>
        <time>2019-07-18T13:09:33Z</time>
      </trkpt>
      <trkpt lat="45.52636" lon="6.7213">
        <ele>2289</ele>
        <time>2019-07-18T13:09:33Z</time>
      </trkpt>
      <trkpt lat="45.52628" lon="6.72121">
        <ele>2288</ele>
        <time>2019-07-18T13:09:33Z</time>
      </trkpt>
      <trkpt lat="45.52621" lon="6.72111">
        <ele>2288.6</ele>
        <time>2019-07-18T13:09:33Z</time>
      </trkpt>
      <trkpt lat="45.52614" lon="6.72101">
        <ele>2288</ele>
        <time>2019-07-18T13:09:33Z</time>
      </trkpt>
      <trkpt lat="45.52607" lon="6.7209">
        <ele>2286.2</ele>
        <time>2019-07-18T13:09:33Z</time>
      </trkpt>
      <trkpt lat="45.52591" lon="6.72062">
        <ele>2288.4</ele>
        <time>2019-07-18T13:09:33Z</time>
      </trkpt>
      <trkpt lat="45.52585" lon="6.72054">
        <ele>2288.2</ele>
        <time>2019-07-18T13:09:33Z</time>
      </trkpt>
      <trkpt lat="45.52573" lon="6.72037">
        <ele>2287.7</ele>
        <time>2019-07-18T13:09:33Z</time>
      </trkpt>
      <trkpt lat="45.5256" lon="6.72022">
        <ele>2288</ele>
        <time>2019-07-18T13:09:33Z</time>
      </trkpt>
      <trkpt lat="45.52553" lon="6.72014">
        <ele>2287.7</ele>
        <time>2019-07-18T13:09:33Z</time>
      </trkpt>
      <trkpt lat="45.52545" lon="6.72007">
        <ele>2288.5</ele>
        <time>2019-07-18T13:09:33Z</time>
      </trkpt>
      <trkpt lat="45.52538" lon="6.72">
        <ele>2288</ele>
        <time>2019-07-18T13:09:33Z</time>
      </trkpt>
      <trkpt lat="45.52529" lon="6.71995">
        <ele>2289.5</ele>
        <time>2019-07-18T13:09:33Z</time>
      </trkpt>
      <trkpt lat="45.5252" lon="6.7199">
        <ele>2289.6</ele>
        <time>2019-07-18T13:09:33Z</time>
      </trkpt>
      <trkpt lat="45.52511" lon="6.71986">
        <ele>2289</ele>
        <time>2019-07-18T13:09:33Z</time>
      </trkpt>
      <trkpt lat="45.52502" lon="6.71982">
        <ele>2289.7</ele>
        <time>2019-07-18T13:09:33Z</time>
      </trkpt>
      <trkpt lat="45.52494" lon="6.71979">
        <ele>2289.9</ele>
        <time>2019-07-18T13:09:33Z</time>
      </trkpt>
      <trkpt lat="45.52485" lon="6.71975">
        <ele>2289</ele>
        <time>2019-07-18T13:09:33Z</time>
      </trkpt>
      <trkpt lat="45.52362" lon="6.71796">
        <ele>2304</ele>
        <time>2019-07-18T13:09:33Z</time>
      </trkpt>
      <trkpt lat="45.52356" lon="6.71785">
        <ele>2313.2</ele>
        <time>2019-07-18T13:09:33Z</time>
      </trkpt>
      <trkpt lat="45.5234" lon="6.71748">
        <ele>2317</ele>
        <time>2019-07-18T13:09:33Z</time>
      </trkpt>
      <trkpt lat="45.52223" lon="6.71664">
        <ele>2338</ele>
        <time>2019-07-18T13:09:33Z</time>
      </trkpt>
      <trkpt lat="45.52215" lon="6.71657">
        <ele>2339</ele>
        <time>2019-07-18T13:09:33Z</time>
      </trkpt>
      <trkpt lat="45.52207" lon="6.71651">
        <ele>2335.8</ele>
        <time>2019-07-18T13:09:33Z</time>
      </trkpt>
      <trkpt lat="45.5219" lon="6.71638">
        <ele>2337</ele>
        <time>2019-07-18T13:09:33Z</time>
      </trkpt>
      <trkpt lat="45.52183" lon="6.71632">
        <ele>2331.9</ele>
        <time>2019-07-18T13:09:33Z</time>
      </trkpt>
      <trkpt lat="45.52174" lon="6.71624">
        <ele>2334</ele>
        <time>2019-07-18T13:09:33Z</time>
      </trkpt>
      <trkpt lat="45.52111" lon="6.71557">
        <ele>2317</ele>
        <time>2019-07-18T13:09:33Z</time>
      </trkpt>
      <trkpt lat="45.52097" lon="6.71543">
        <ele>2317</ele>
        <time>2019-07-18T13:09:33Z</time>
      </trkpt>
      <trkpt lat="45.51966" lon="6.71395">
        <ele>2296</ele>
        <time>2019-07-18T13:09:33Z</time>
      </trkpt>
      <trkpt lat="45.51957" lon="6.71386">
        <ele>2293.8</ele>
        <time>2019-07-18T13:09:33Z</time>
      </trkpt>
      <trkpt lat="45.51922" lon="6.71343">
        <ele>2281.3</ele>
        <time>2019-07-18T13:09:33Z</time>
      </trkpt>
      <trkpt lat="45.51909" lon="6.71323">
        <ele>2283</ele>
        <time>2019-07-18T13:09:33Z</time>
      </trkpt>
      <trkpt lat="45.51903" lon="6.71312">
        <ele>2276.9</ele>
        <time>2019-07-18T13:09:33Z</time>
      </trkpt>
      <trkpt lat="45.51892" lon="6.713">
        <ele>2277</ele>
        <time>2019-07-18T13:09:33Z</time>
      </trkpt>
      <trkpt lat="45.51883" lon="6.713">
        <ele>2273.7</ele>
        <time>2019-07-18T13:09:33Z</time>
      </trkpt>
      <trkpt lat="45.51862" lon="6.71302">
        <ele>2268.4</ele>
        <time>2019-07-18T13:09:33Z</time>
      </trkpt>
      <trkpt lat="45.51843" lon="6.71297">
        <ele>2270</ele>
        <time>2019-07-18T13:09:33Z</time>
      </trkpt>
      <trkpt lat="45.51833" lon="6.71294">
        <ele>2261.8</ele>
        <time>2019-07-18T13:09:33Z</time>
      </trkpt>
      <trkpt lat="45.51822" lon="6.71291">
        <ele>2263</ele>
        <time>2019-07-18T13:09:33Z</time>
      </trkpt>
      <trkpt lat="45.51811" lon="6.71289">
        <ele>2258.2</ele>
        <time>2019-07-18T13:09:33Z</time>
      </trkpt>
      <trkpt lat="45.51799" lon="6.71285">
        <ele>2260</ele>
        <time>2019-07-18T13:09:33Z</time>
      </trkpt>
      <trkpt lat="45.51789" lon="6.7128">
        <ele>2252.7</ele>
        <time>2019-07-18T13:09:33Z</time>
      </trkpt>
      <trkpt lat="45.5177" lon="6.71275">
        <ele>2247.1</ele>
        <time>2019-07-18T13:09:33Z</time>
      </trkpt>
      <trkpt lat="45.51759" lon="6.71274">
        <ele>2250</ele>
        <time>2019-07-18T13:09:33Z</time>
      </trkpt>
      <trkpt lat="45.51749" lon="6.71275">
        <ele>2241.7</ele>
        <time>2019-07-18T13:09:33Z</time>
      </trkpt>
      <trkpt lat="45.51738" lon="6.7127">
        <ele>2244</ele>
        <time>2019-07-18T13:09:33Z</time>
      </trkpt>
      <trkpt lat="45.51728" lon="6.71258">
        <ele>2237.1</ele>
        <time>2019-07-18T13:09:33Z</time>
      </trkpt>
      <trkpt lat="45.51721" lon="6.71243">
        <ele>2240</ele>
        <time>2019-07-18T13:09:33Z</time>
      </trkpt>
      <trkpt lat="45.51714" lon="6.7123">
        <ele>2231.5</ele>
        <time>2019-07-18T13:09:33Z</time>
      </trkpt>
      <trkpt lat="45.51707" lon="6.71218">
        <ele>2234</ele>
        <time>2019-07-18T13:09:33Z</time>
      </trkpt>
      <trkpt lat="45.517" lon="6.71202">
        <ele>2226</ele>
        <time>2019-07-18T13:09:33Z</time>
      </trkpt>
      <trkpt lat="45.51693" lon="6.71188">
        <ele>2229</ele>
        <time>2019-07-18T13:09:33Z</time>
      </trkpt>
      <trkpt lat="45.51686" lon="6.71175">
        <ele>2220</ele>
        <time>2019-07-18T13:09:33Z</time>
      </trkpt>
      <trkpt lat="45.51681" lon="6.71163">
        <ele>2223</ele>
        <time>2019-07-18T13:09:33Z</time>
      </trkpt>
      <trkpt lat="45.51673" lon="6.71149">
        <ele>2214.2</ele>
        <time>2019-07-18T13:09:33Z</time>
      </trkpt>
      <trkpt lat="45.51667" lon="6.71134">
        <ele>2217</ele>
        <time>2019-07-18T13:09:33Z</time>
      </trkpt>
      <trkpt lat="45.51661" lon="6.71117">
        <ele>2209.9</ele>
        <time>2019-07-18T13:09:33Z</time>
      </trkpt>
      <trkpt lat="45.51658" lon="6.711">
        <ele>2211</ele>
        <time>2019-07-18T13:09:33Z</time>
      </trkpt>
      <trkpt lat="45.51654" lon="6.71086">
        <ele>2206.9</ele>
        <time>2019-07-18T13:09:33Z</time>
      </trkpt>
      <trkpt lat="45.51651" lon="6.71071">
        <ele>2208</ele>
        <time>2019-07-18T13:09:33Z</time>
      </trkpt>
      <trkpt lat="45.5165" lon="6.71054">
        <ele>2202.5</ele>
        <time>2019-07-18T13:09:33Z</time>
      </trkpt>
      <trkpt lat="45.51646" lon="6.71041">
        <ele>2204</ele>
        <time>2019-07-18T13:09:33Z</time>
      </trkpt>
      <trkpt lat="45.51636" lon="6.71037">
        <ele>2199.5</ele>
        <time>2019-07-18T13:09:33Z</time>
      </trkpt>
      <trkpt lat="45.51626" lon="6.71033">
        <ele>2201</ele>
        <time>2019-07-18T13:09:33Z</time>
      </trkpt>
      <trkpt lat="45.51615" lon="6.71027">
        <ele>2193.1</ele>
        <time>2019-07-18T13:09:33Z</time>
      </trkpt>
      <trkpt lat="45.51604" lon="6.7102">
        <ele>2196</ele>
        <time>2019-07-18T13:09:33Z</time>
      </trkpt>
      <trkpt lat="45.51593" lon="6.71018">
        <ele>2186.3</ele>
        <time>2019-07-18T13:09:33Z</time>
      </trkpt>
      <trkpt lat="45.51566" lon="6.7101">
        <ele>2177.8</ele>
        <time>2019-07-18T13:09:33Z</time>
      </trkpt>
      <trkpt lat="45.51543" lon="6.71016">
        <ele>2171.3</ele>
        <time>2019-07-18T13:09:33Z</time>
      </trkpt>
      <trkpt lat="45.51534" lon="6.71018">
        <ele>2174</ele>
        <time>2019-07-18T13:09:33Z</time>
      </trkpt>
      <trkpt lat="45.51525" lon="6.71022">
        <ele>2167.5</ele>
        <time>2019-07-18T13:09:33Z</time>
      </trkpt>
      <trkpt lat="45.51516" lon="6.71026">
        <ele>2166.6</ele>
        <time>2019-07-18T13:09:33Z</time>
      </trkpt>
      <trkpt lat="45.51496" lon="6.71032">
        <ele>2165</ele>
        <time>2019-07-18T13:09:33Z</time>
      </trkpt>
      <trkpt lat="45.51487" lon="6.71037">
        <ele>2166</ele>
        <time>2019-07-18T13:09:33Z</time>
      </trkpt>
      <trkpt lat="45.51475" lon="6.71036">
        <ele>2164.1</ele>
        <time>2019-07-18T13:09:33Z</time>
      </trkpt>
      <trkpt lat="45.51463" lon="6.71033">
        <ele>2165</ele>
        <time>2019-07-18T13:09:33Z</time>
      </trkpt>
      <trkpt lat="45.51455" lon="6.71027">
        <ele>2161.7</ele>
        <time>2019-07-18T13:09:33Z</time>
      </trkpt>
      <trkpt lat="45.51446" lon="6.71019">
        <ele>2162</ele>
        <time>2019-07-18T13:09:33Z</time>
      </trkpt>
      <trkpt lat="45.5144" lon="6.71005">
        <ele>2159.1</ele>
        <time>2019-07-18T13:09:33Z</time>
      </trkpt>
      <trkpt lat="45.51435" lon="6.70991">
        <ele>2160</ele>
        <time>2019-07-18T13:09:33Z</time>
      </trkpt>
      <trkpt lat="45.5143" lon="6.70978">
        <ele>2156</ele>
        <time>2019-07-18T13:09:33Z</time>
      </trkpt>
      <trkpt lat="45.51425" lon="6.70967">
        <ele>2157</ele>
        <time>2019-07-18T13:09:33Z</time>
      </trkpt>
      <trkpt lat="45.5142" lon="6.70956">
        <ele>2153.8</ele>
        <time>2019-07-18T13:09:33Z</time>
      </trkpt>
      <trkpt lat="45.51415" lon="6.70945">
        <ele>2152.8</ele>
        <time>2019-07-18T13:09:33Z</time>
      </trkpt>
      <trkpt lat="45.51406" lon="6.70931">
        <ele>2154</ele>
        <time>2019-07-18T13:09:33Z</time>
      </trkpt>
      <trkpt lat="45.51398" lon="6.70918">
        <ele>2149.4</ele>
        <time>2019-07-18T13:09:33Z</time>
      </trkpt>
      <trkpt lat="45.51389" lon="6.70913">
        <ele>2150</ele>
        <time>2019-07-18T13:09:33Z</time>
      </trkpt>
      <trkpt lat="45.51366" lon="6.70923">
        <ele>2147</ele>
        <time>2019-07-18T13:09:33Z</time>
      </trkpt>
      <trkpt lat="45.51357" lon="6.70921">
        <ele>2148</ele>
        <time>2019-07-18T13:09:33Z</time>
      </trkpt>
      <trkpt lat="45.51349" lon="6.70914">
        <ele>2147.9</ele>
        <time>2019-07-18T13:09:33Z</time>
      </trkpt>
      <trkpt lat="45.51342" lon="6.70902">
        <ele>2147</ele>
        <time>2019-07-18T13:09:33Z</time>
      </trkpt>
      <trkpt lat="45.51338" lon="6.7089">
        <ele>2145</ele>
        <time>2019-07-18T13:09:33Z</time>
      </trkpt>
      <trkpt lat="45.51334" lon="6.70878">
        <ele>2147</ele>
        <time>2019-07-18T13:09:33Z</time>
      </trkpt>
      <trkpt lat="45.5133" lon="6.70866">
        <ele>2142.9</ele>
        <time>2019-07-18T13:09:33Z</time>
      </trkpt>
      <trkpt lat="45.51325" lon="6.70853">
        <ele>2144</ele>
        <time>2019-07-18T13:09:33Z</time>
      </trkpt>
      <trkpt lat="45.51321" lon="6.70838">
        <ele>2140.1</ele>
        <time>2019-07-18T13:09:33Z</time>
      </trkpt>
      <trkpt lat="45.51318" lon="6.70824">
        <ele>2142</ele>
        <time>2019-07-18T13:09:33Z</time>
      </trkpt>
      <trkpt lat="45.51318" lon="6.7081">
        <ele>2137.9</ele>
        <time>2019-07-18T13:09:33Z</time>
      </trkpt>
      <trkpt lat="45.51303" lon="6.70786">
        <ele>2136.5</ele>
        <time>2019-07-18T13:09:33Z</time>
      </trkpt>
      <trkpt lat="45.51293" lon="6.70785">
        <ele>2136</ele>
        <time>2019-07-18T13:09:33Z</time>
      </trkpt>
      <trkpt lat="45.51281" lon="6.70783">
        <ele>2135.5</ele>
        <time>2019-07-18T13:09:33Z</time>
      </trkpt>
      <trkpt lat="45.51271" lon="6.70782">
        <ele>2136</ele>
        <time>2019-07-18T13:09:33Z</time>
      </trkpt>
      <trkpt lat="45.5126" lon="6.70782">
        <ele>2133.4</ele>
        <time>2019-07-18T13:09:33Z</time>
      </trkpt>
      <trkpt lat="45.51249" lon="6.70783">
        <ele>2134</ele>
        <time>2019-07-18T13:09:33Z</time>
      </trkpt>
      <trkpt lat="45.5124" lon="6.70782">
        <ele>2130.9</ele>
        <time>2019-07-18T13:09:33Z</time>
      </trkpt>
      <trkpt lat="45.51227" lon="6.70784">
        <ele>2132</ele>
        <time>2019-07-18T13:09:33Z</time>
      </trkpt>
      <trkpt lat="45.51216" lon="6.70785">
        <ele>2128.6</ele>
        <time>2019-07-18T13:09:33Z</time>
      </trkpt>
      <trkpt lat="45.51206" lon="6.70784">
        <ele>2129</ele>
        <time>2019-07-18T13:09:33Z</time>
      </trkpt>
      <trkpt lat="45.51195" lon="6.70783">
        <ele>2127.5</ele>
        <time>2019-07-18T13:09:33Z</time>
      </trkpt>
      <trkpt lat="45.51184" lon="6.7078">
        <ele>2128</ele>
        <time>2019-07-18T13:09:33Z</time>
      </trkpt>
      <trkpt lat="45.51172" lon="6.70776">
        <ele>2126.2</ele>
        <time>2019-07-18T13:09:33Z</time>
      </trkpt>
      <trkpt lat="45.51162" lon="6.70774">
        <ele>2128</ele>
        <time>2019-07-18T13:09:33Z</time>
      </trkpt>
      <trkpt lat="45.51149" lon="6.70771">
        <ele>2123.1</ele>
        <time>2019-07-18T13:09:33Z</time>
      </trkpt>
      <trkpt lat="45.51139" lon="6.70771">
        <ele>2126</ele>
        <time>2019-07-18T13:09:33Z</time>
      </trkpt>
      <trkpt lat="45.51126" lon="6.70772">
        <ele>2120.1</ele>
        <time>2019-07-18T13:09:33Z</time>
      </trkpt>
      <trkpt lat="45.51115" lon="6.7077">
        <ele>2122</ele>
        <time>2019-07-18T13:09:33Z</time>
      </trkpt>
      <trkpt lat="45.51104" lon="6.7077">
        <ele>2115.5</ele>
        <time>2019-07-18T13:09:33Z</time>
      </trkpt>
      <trkpt lat="45.51092" lon="6.70772">
        <ele>2118</ele>
        <time>2019-07-18T13:09:33Z</time>
      </trkpt>
      <trkpt lat="45.51081" lon="6.70775">
        <ele>2112.4</ele>
        <time>2019-07-18T13:09:33Z</time>
      </trkpt>
      <trkpt lat="45.51071" lon="6.70781">
        <ele>2113</ele>
        <time>2019-07-18T13:09:33Z</time>
      </trkpt>
      <trkpt lat="45.51062" lon="6.70789">
        <ele>2110.5</ele>
        <time>2019-07-18T13:09:33Z</time>
      </trkpt>
      <trkpt lat="45.51053" lon="6.70802">
        <ele>2112</ele>
        <time>2019-07-18T13:09:33Z</time>
      </trkpt>
      <trkpt lat="45.51046" lon="6.70812">
        <ele>2111.9</ele>
        <time>2019-07-18T13:09:33Z</time>
      </trkpt>
      <trkpt lat="45.51034" lon="6.70818">
        <ele>2112</ele>
        <time>2019-07-18T13:09:33Z</time>
      </trkpt>
      <trkpt lat="45.51021" lon="6.70818">
        <ele>2112.2</ele>
        <time>2019-07-18T13:09:33Z</time>
      </trkpt>
      <trkpt lat="45.51009" lon="6.70817">
        <ele>2112</ele>
        <time>2019-07-18T13:09:33Z</time>
      </trkpt>
      <trkpt lat="45.50999" lon="6.70815">
        <ele>2107.7</ele>
        <time>2019-07-18T13:09:33Z</time>
      </trkpt>
      <trkpt lat="45.50988" lon="6.70813">
        <ele>2107</ele>
        <time>2019-07-18T13:09:33Z</time>
      </trkpt>
      <trkpt lat="45.50977" lon="6.70809">
        <ele>2104.2</ele>
        <time>2019-07-18T13:09:33Z</time>
      </trkpt>
      <trkpt lat="45.50968" lon="6.70802">
        <ele>2104</ele>
        <time>2019-07-18T13:09:33Z</time>
      </trkpt>
      <trkpt lat="45.50956" lon="6.70801">
        <ele>2102.8</ele>
        <time>2019-07-18T13:09:33Z</time>
      </trkpt>
      <trkpt lat="45.50944" lon="6.70804">
        <ele>2103</ele>
        <time>2019-07-18T13:09:33Z</time>
      </trkpt>
      <trkpt lat="45.50933" lon="6.70807">
        <ele>2103.3</ele>
        <time>2019-07-18T13:09:33Z</time>
      </trkpt>
      <trkpt lat="45.50923" lon="6.70813">
        <ele>2102</ele>
        <time>2019-07-18T13:09:33Z</time>
      </trkpt>
      <trkpt lat="45.50914" lon="6.70824">
        <ele>2103</ele>
        <time>2019-07-18T13:09:33Z</time>
      </trkpt>
      <trkpt lat="45.50903" lon="6.70829">
        <ele>2101</ele>
        <time>2019-07-18T13:09:33Z</time>
      </trkpt>
      <trkpt lat="45.50893" lon="6.70833">
        <ele>2101.4</ele>
        <time>2019-07-18T13:09:33Z</time>
      </trkpt>
      <trkpt lat="45.50883" lon="6.70836">
        <ele>2101</ele>
        <time>2019-07-18T13:09:33Z</time>
      </trkpt>
      <trkpt lat="45.50872" lon="6.70841">
        <ele>2100</ele>
        <time>2019-07-18T13:09:33Z</time>
      </trkpt>
      <trkpt lat="45.5086" lon="6.70847">
        <ele>2100</ele>
        <time>2019-07-18T13:09:33Z</time>
      </trkpt>
      <trkpt lat="45.50848" lon="6.70852">
        <ele>2099</ele>
        <time>2019-07-18T13:09:33Z</time>
      </trkpt>
      <trkpt lat="45.50838" lon="6.7086">
        <ele>2100</ele>
        <time>2019-07-18T13:09:33Z</time>
      </trkpt>
      <trkpt lat="45.50828" lon="6.70868">
        <ele>2099</ele>
        <time>2019-07-18T13:09:33Z</time>
      </trkpt>
      <trkpt lat="45.50818" lon="6.70873">
        <ele>2101</ele>
        <time>2019-07-18T13:09:33Z</time>
      </trkpt>
      <trkpt lat="45.50807" lon="6.70876">
        <ele>2097.8</ele>
        <time>2019-07-18T13:09:33Z</time>
      </trkpt>
      <trkpt lat="45.50795" lon="6.70872">
        <ele>2101</ele>
        <time>2019-07-18T13:09:33Z</time>
      </trkpt>
      <trkpt lat="45.50785" lon="6.70863">
        <ele>2093.2</ele>
        <time>2019-07-18T13:09:33Z</time>
      </trkpt>
      <trkpt lat="45.50773" lon="6.70853">
        <ele>2096</ele>
        <time>2019-07-18T13:09:33Z</time>
      </trkpt>
      <trkpt lat="45.50761" lon="6.70848">
        <ele>2087.1</ele>
        <time>2019-07-18T13:09:33Z</time>
      </trkpt>
      <trkpt lat="45.5075" lon="6.70845">
        <ele>2089</ele>
        <time>2019-07-18T13:09:33Z</time>
      </trkpt>
      <trkpt lat="45.50736" lon="6.70841">
        <ele>2080.9</ele>
        <time>2019-07-18T13:09:33Z</time>
      </trkpt>
      <trkpt lat="45.50724" lon="6.70842">
        <ele>2083</ele>
        <time>2019-07-18T13:09:33Z</time>
      </trkpt>
      <trkpt lat="45.50711" lon="6.70845">
        <ele>2076.6</ele>
        <time>2019-07-18T13:09:33Z</time>
      </trkpt>
      <trkpt lat="45.50699" lon="6.70851">
        <ele>2079</ele>
        <time>2019-07-18T13:09:33Z</time>
      </trkpt>
      <trkpt lat="45.5069" lon="6.70863">
        <ele>2076</ele>
        <time>2019-07-18T13:09:33Z</time>
      </trkpt>
      <trkpt lat="45.50681" lon="6.70872">
        <ele>2077</ele>
        <time>2019-07-18T13:09:33Z</time>
      </trkpt>
      <trkpt lat="45.5067" lon="6.70876">
        <ele>2076.3</ele>
        <time>2019-07-18T13:09:33Z</time>
      </trkpt>
      <trkpt lat="45.50662" lon="6.70868">
        <ele>2075</ele>
        <time>2019-07-18T13:09:33Z</time>
      </trkpt>
      <trkpt lat="45.50667" lon="6.70852">
        <ele>2073.7</ele>
        <time>2019-07-18T13:09:33Z</time>
      </trkpt>
      <trkpt lat="45.5067" lon="6.70837">
        <ele>2074</ele>
        <time>2019-07-18T13:09:33Z</time>
      </trkpt>
      <trkpt lat="45.50674" lon="6.70826">
        <ele>2070.6</ele>
        <time>2019-07-18T13:09:33Z</time>
      </trkpt>
      <trkpt lat="45.50678" lon="6.70812">
        <ele>2070</ele>
        <time>2019-07-18T13:09:33Z</time>
      </trkpt>
      <trkpt lat="45.50678" lon="6.70794">
        <ele>2067.7</ele>
        <time>2019-07-18T13:09:33Z</time>
      </trkpt>
      <trkpt lat="45.5067" lon="6.70775">
        <ele>2065.8</ele>
        <time>2019-07-18T13:09:33Z</time>
      </trkpt>
      <trkpt lat="45.50665" lon="6.70762">
        <ele>2064.3</ele>
        <time>2019-07-18T13:09:33Z</time>
      </trkpt>
      <trkpt lat="45.5066" lon="6.70747">
        <ele>2069</ele>
        <time>2019-07-18T13:09:33Z</time>
      </trkpt>
      <trkpt lat="45.50654" lon="6.70733">
        <ele>2061.2</ele>
        <time>2019-07-18T13:09:33Z</time>
      </trkpt>
      <trkpt lat="45.50648" lon="6.7072">
        <ele>2063</ele>
        <time>2019-07-18T13:09:33Z</time>
      </trkpt>
      <trkpt lat="45.50643" lon="6.70706">
        <ele>2058.7</ele>
        <time>2019-07-18T13:09:33Z</time>
      </trkpt>
      <trkpt lat="45.50643" lon="6.70689">
        <ele>2062</ele>
        <time>2019-07-18T13:09:33Z</time>
      </trkpt>
      <trkpt lat="45.50646" lon="6.70676">
        <ele>2056.2</ele>
        <time>2019-07-18T13:09:33Z</time>
      </trkpt>
      <trkpt lat="45.50651" lon="6.70659">
        <ele>2058</ele>
        <time>2019-07-18T13:09:33Z</time>
      </trkpt>
      <trkpt lat="45.50655" lon="6.7064">
        <ele>2052.5</ele>
        <time>2019-07-18T13:09:33Z</time>
      </trkpt>
      <trkpt lat="45.50658" lon="6.70626">
        <ele>2054</ele>
        <time>2019-07-18T13:09:33Z</time>
      </trkpt>
      <trkpt lat="45.50662" lon="6.70613">
        <ele>2050.3</ele>
        <time>2019-07-18T13:09:33Z</time>
      </trkpt>
      <trkpt lat="45.50668" lon="6.706">
        <ele>2052</ele>
        <time>2019-07-18T13:09:33Z</time>
      </trkpt>
      <trkpt lat="45.50675" lon="6.70588">
        <ele>2047.4</ele>
        <time>2019-07-18T13:09:33Z</time>
      </trkpt>
      <trkpt lat="45.50683" lon="6.70578">
        <ele>2048</ele>
        <time>2019-07-18T13:09:33Z</time>
      </trkpt>
      <trkpt lat="45.50692" lon="6.70568">
        <ele>2044.1</ele>
        <time>2019-07-18T13:09:33Z</time>
      </trkpt>
      <trkpt lat="45.507" lon="6.70554">
        <ele>2046</ele>
        <time>2019-07-18T13:09:33Z</time>
      </trkpt>
      <trkpt lat="45.50705" lon="6.7054">
        <ele>2040</ele>
        <time>2019-07-18T13:09:33Z</time>
      </trkpt>
      <trkpt lat="45.50707" lon="6.70522">
        <ele>2044</ele>
        <time>2019-07-18T13:09:33Z</time>
      </trkpt>
      <trkpt lat="45.50711" lon="6.70509">
        <ele>2037.6</ele>
        <time>2019-07-18T13:09:33Z</time>
      </trkpt>
      <trkpt lat="45.50721" lon="6.70499">
        <ele>2038</ele>
        <time>2019-07-18T13:09:33Z</time>
      </trkpt>
      <trkpt lat="45.50732" lon="6.70498">
        <ele>2033.8</ele>
        <time>2019-07-18T13:09:33Z</time>
      </trkpt>
      <trkpt lat="45.50744" lon="6.70499">
        <ele>2035</ele>
        <time>2019-07-18T13:09:33Z</time>
      </trkpt>
      <trkpt lat="45.50755" lon="6.70493">
        <ele>2028.2</ele>
        <time>2019-07-18T13:09:33Z</time>
      </trkpt>
      <trkpt lat="45.50767" lon="6.70487">
        <ele>2031</ele>
        <time>2019-07-18T13:09:33Z</time>
      </trkpt>
      <trkpt lat="45.50777" lon="6.70482">
        <ele>2022.2</ele>
        <time>2019-07-18T13:09:33Z</time>
      </trkpt>
      <trkpt lat="45.50788" lon="6.70478">
        <ele>2025</ele>
        <time>2019-07-18T13:09:33Z</time>
      </trkpt>
      <trkpt lat="45.50798" lon="6.70474">
        <ele>2018.4</ele>
        <time>2019-07-18T13:09:33Z</time>
      </trkpt>
      <trkpt lat="45.50809" lon="6.70469">
        <ele>2021</ele>
        <time>2019-07-18T13:09:33Z</time>
      </trkpt>
      <trkpt lat="45.50818" lon="6.70461">
        <ele>2012.3</ele>
        <time>2019-07-18T13:09:33Z</time>
      </trkpt>
      <trkpt lat="45.50826" lon="6.70454">
        <ele>2015</ele>
        <time>2019-07-18T13:09:33Z</time>
      </trkpt>
      <trkpt lat="45.50834" lon="6.70447">
        <ele>2008.4</ele>
        <time>2019-07-18T13:09:33Z</time>
      </trkpt>
      <trkpt lat="45.50852" lon="6.70425">
        <ele>2001.8</ele>
        <time>2019-07-18T13:09:33Z</time>
      </trkpt>
      <trkpt lat="45.50859" lon="6.70416">
        <ele>2005</ele>
        <time>2019-07-18T13:09:33Z</time>
      </trkpt>
      <trkpt lat="45.50866" lon="6.70406">
        <ele>1996.9</ele>
        <time>2019-07-18T13:09:33Z</time>
      </trkpt>
      <trkpt lat="45.50873" lon="6.70395">
        <ele>1999</ele>
        <time>2019-07-18T13:09:33Z</time>
      </trkpt>
      <trkpt lat="45.50897" lon="6.70361">
        <ele>1984</ele>
        <time>2019-07-18T13:09:33Z</time>
      </trkpt>
      <trkpt lat="45.50906" lon="6.70352">
        <ele>1984</ele>
        <time>2019-07-18T13:09:33Z</time>
      </trkpt>
      <trkpt lat="45.50916" lon="6.70344">
        <ele>1982.2</ele>
        <time>2019-07-18T13:09:33Z</time>
      </trkpt>
      <trkpt lat="45.50925" lon="6.70336">
        <ele>1980</ele>
        <time>2019-07-18T13:09:33Z</time>
      </trkpt>
      <trkpt lat="45.50956" lon="6.703">
        <ele>1975.5</ele>
        <time>2019-07-18T13:09:33Z</time>
      </trkpt>
      <trkpt lat="45.50967" lon="6.70278">
        <ele>1973.2</ele>
        <time>2019-07-18T13:09:33Z</time>
      </trkpt>
      <trkpt lat="45.50973" lon="6.70265">
        <ele>1975</ele>
        <time>2019-07-18T13:09:33Z</time>
      </trkpt>
      <trkpt lat="45.50986" lon="6.70236">
        <ele>1973</ele>
        <time>2019-07-18T13:09:33Z</time>
      </trkpt>
      <trkpt lat="45.50992" lon="6.70225">
        <ele>1969</ele>
        <time>2019-07-18T13:09:33Z</time>
      </trkpt>
      <trkpt lat="45.51" lon="6.7021">
        <ele>1970</ele>
        <time>2019-07-18T13:09:33Z</time>
      </trkpt>
      <trkpt lat="45.51009" lon="6.70197">
        <ele>1966.3</ele>
        <time>2019-07-18T13:09:33Z</time>
      </trkpt>
      <trkpt lat="45.51016" lon="6.70186">
        <ele>1968</ele>
        <time>2019-07-18T13:09:33Z</time>
      </trkpt>
      <trkpt lat="45.51023" lon="6.70175">
        <ele>1964.3</ele>
        <time>2019-07-18T13:09:33Z</time>
      </trkpt>
      <trkpt lat="45.5103" lon="6.70165">
        <ele>1965</ele>
        <time>2019-07-18T13:09:33Z</time>
      </trkpt>
      <trkpt lat="45.51038" lon="6.70154">
        <ele>1961.9</ele>
        <time>2019-07-18T13:09:33Z</time>
      </trkpt>
      <trkpt lat="45.51046" lon="6.70143">
        <ele>1962</ele>
        <time>2019-07-18T13:09:33Z</time>
      </trkpt>
      <trkpt lat="45.51054" lon="6.70132">
        <ele>1959.6</ele>
        <time>2019-07-18T13:09:33Z</time>
      </trkpt>
      <trkpt lat="45.51062" lon="6.70122">
        <ele>1960</ele>
        <time>2019-07-18T13:09:33Z</time>
      </trkpt>
      <trkpt lat="45.5107" lon="6.70111">
        <ele>1957</ele>
        <time>2019-07-18T13:09:33Z</time>
      </trkpt>
      <trkpt lat="45.51078" lon="6.701">
        <ele>1958</ele>
        <time>2019-07-18T13:09:33Z</time>
      </trkpt>
      <trkpt lat="45.51086" lon="6.70089">
        <ele>1953.7</ele>
        <time>2019-07-18T13:09:33Z</time>
      </trkpt>
      <trkpt lat="45.51093" lon="6.7008">
        <ele>1956</ele>
        <time>2019-07-18T13:09:33Z</time>
      </trkpt>
      <trkpt lat="45.51098" lon="6.70063">
        <ele>1952.4</ele>
        <time>2019-07-18T13:09:33Z</time>
      </trkpt>
      <trkpt lat="45.51102" lon="6.70049">
        <ele>1953</ele>
        <time>2019-07-18T13:09:33Z</time>
      </trkpt>
      <trkpt lat="45.51105" lon="6.70034">
        <ele>1949.9</ele>
        <time>2019-07-18T13:09:33Z</time>
      </trkpt>
      <trkpt lat="45.5111" lon="6.70022">
        <ele>1950</ele>
        <time>2019-07-18T13:09:33Z</time>
      </trkpt>
      <trkpt lat="45.51117" lon="6.70011">
        <ele>1947.8</ele>
        <time>2019-07-18T13:09:33Z</time>
      </trkpt>
      <trkpt lat="45.51125" lon="6.70002">
        <ele>1948</ele>
        <time>2019-07-18T13:09:33Z</time>
      </trkpt>
      <trkpt lat="45.51133" lon="6.69993">
        <ele>1946.3</ele>
        <time>2019-07-18T13:09:33Z</time>
      </trkpt>
      <trkpt lat="45.51141" lon="6.69983">
        <ele>1946</ele>
        <time>2019-07-18T13:09:33Z</time>
      </trkpt>
      <trkpt lat="45.51148" lon="6.69972">
        <ele>1944.3</ele>
        <time>2019-07-18T13:09:33Z</time>
      </trkpt>
      <trkpt lat="45.51154" lon="6.6996">
        <ele>1945</ele>
        <time>2019-07-18T13:09:33Z</time>
      </trkpt>
      <trkpt lat="45.51161" lon="6.69949">
        <ele>1941.8</ele>
        <time>2019-07-18T13:09:33Z</time>
      </trkpt>
      <trkpt lat="45.51168" lon="6.69937">
        <ele>1943</ele>
        <time>2019-07-18T13:09:33Z</time>
      </trkpt>
      <trkpt lat="45.51175" lon="6.69925">
        <ele>1939</ele>
        <time>2019-07-18T13:09:33Z</time>
      </trkpt>
      <trkpt lat="45.51181" lon="6.69912">
        <ele>1940</ele>
        <time>2019-07-18T13:09:33Z</time>
      </trkpt>
      <trkpt lat="45.51186" lon="6.69898">
        <ele>1936.2</ele>
        <time>2019-07-18T13:09:33Z</time>
      </trkpt>
      <trkpt lat="45.51191" lon="6.69885">
        <ele>1937</ele>
        <time>2019-07-18T13:09:33Z</time>
      </trkpt>
      <trkpt lat="45.51247" lon="6.69813">
        <ele>1934</ele>
        <time>2019-07-18T13:09:33Z</time>
      </trkpt>
    </trkseg>
  </trk>
</gpx>